<?xml version="1.0" encoding="UTF-8" standalone="no" ?>
<gpx xmlns="http://www.topografix.com/GPX/1/1" xmlns:xsi="http://www.w3.org/2001/XMLSchema-instance" xsi:schemaLocation="http://www.topografix.com/GPX/1/1 http://www.topografix.com/GPX/1/1/gpx.xsd" version="1.1" creator="VisuGPX - https://www.visugpx.com">
  <metadata>
    <name>2017-03-02am Walk from Saint-Martin-Lestra</name>
    <desc><![CDATA[2017-03-02am Walk from Saint-Martin-Lestra]]></desc>
  </metadata>
  <wpt lat="45.72057" lon="4.35545">
    <ele>572</ele>
    <name><![CDATA[2017-03-02 09:40 (Start)]]></name>
  </wpt>
  <wpt lat="45.72057" lon="4.35544">
    <ele>572</ele>
    <name><![CDATA[2017-03-02 09:40 (End)]]></name>
    <desc><![CDATA[Created by Google My Tracks on Android  Name: 2017-03-02 09:40 Activity type: walking Description: - Total distance: 12.49 km (7.8 mi) Total time: 3:00:20 Moving time: 2:56:22 Average speed: 4.16 km/h (2.6 mi/h) Average moving speed: 4.25 km/h (2.6 mi/h) Max speed: 5.90 km/h (3.7 mi/h) Average pace: 14:26 min/km (23:14 min/mi) Average moving pace: 14:07 min/km (22:43 min/mi) Fastest pace: 10:10 min/km (16:21 min/mi) Max elevation: 649 m (2129 ft) Min elevation: 113 m (371 ft) Elevation gain: 1008 m (3308 ft) Max grade: 2662 % Min grade: -20 % Recorded: 02/03/2017 09:40]]></desc>
  </wpt>
  <trk>
    <name><![CDATA[2017-03-02 09:40]]></name>
    <trkseg>
      <trkpt lat="45.72057" lon="4.35545">
        <ele>572</ele>
        <time>2017-03-02T08:40:02.77Z</time>
      </trkpt>
      <trkpt lat="45.72065" lon="4.3554">
        <ele>572</ele>
        <time>2017-03-02T08:43:32Z</time>
      </trkpt>
      <trkpt lat="45.72066" lon="4.3554">
        <ele>572</ele>
        <time>2017-03-02T08:43:33Z</time>
      </trkpt>
      <trkpt lat="45.72072" lon="4.3553">
        <ele>573</ele>
        <time>2017-03-02T08:43:44Z</time>
      </trkpt>
      <trkpt lat="45.72072" lon="4.35529">
        <ele>573</ele>
        <time>2017-03-02T08:43:45Z</time>
      </trkpt>
      <trkpt lat="45.72075" lon="4.35517">
        <ele>573</ele>
        <time>2017-03-02T08:43:53Z</time>
      </trkpt>
      <trkpt lat="45.72075" lon="4.35515">
        <ele>573</ele>
        <time>2017-03-02T08:43:54Z</time>
      </trkpt>
      <trkpt lat="45.72079" lon="4.35505">
        <ele>574</ele>
        <time>2017-03-02T08:44:02Z</time>
      </trkpt>
      <trkpt lat="45.72079" lon="4.35503">
        <ele>574</ele>
        <time>2017-03-02T08:44:03Z</time>
      </trkpt>
      <trkpt lat="45.7208" lon="4.35491">
        <ele>574</ele>
        <time>2017-03-02T08:44:15Z</time>
      </trkpt>
      <trkpt lat="45.7208" lon="4.35489">
        <ele>574</ele>
        <time>2017-03-02T08:44:16Z</time>
      </trkpt>
      <trkpt lat="45.72081" lon="4.35477">
        <ele>574</ele>
        <time>2017-03-02T08:44:22Z</time>
      </trkpt>
      <trkpt lat="45.72081" lon="4.35475">
        <ele>574</ele>
        <time>2017-03-02T08:44:23Z</time>
      </trkpt>
      <trkpt lat="45.72082" lon="4.35464">
        <ele>574</ele>
        <time>2017-03-02T08:44:29Z</time>
      </trkpt>
      <trkpt lat="45.72082" lon="4.35462">
        <ele>574</ele>
        <time>2017-03-02T08:44:30Z</time>
      </trkpt>
      <trkpt lat="45.72083" lon="4.35451">
        <ele>575</ele>
        <time>2017-03-02T08:44:36Z</time>
      </trkpt>
      <trkpt lat="45.72083" lon="4.35449">
        <ele>575</ele>
        <time>2017-03-02T08:44:37Z</time>
      </trkpt>
      <trkpt lat="45.72082" lon="4.35438">
        <ele>575</ele>
        <time>2017-03-02T08:44:43Z</time>
      </trkpt>
      <trkpt lat="45.72082" lon="4.35436">
        <ele>575</ele>
        <time>2017-03-02T08:44:44Z</time>
      </trkpt>
      <trkpt lat="45.72082" lon="4.35423">
        <ele>576</ele>
        <time>2017-03-02T08:44:50Z</time>
      </trkpt>
      <trkpt lat="45.72082" lon="4.35421">
        <ele>576</ele>
        <time>2017-03-02T08:44:51Z</time>
      </trkpt>
      <trkpt lat="45.72081" lon="4.35409">
        <ele>576</ele>
        <time>2017-03-02T08:44:57Z</time>
      </trkpt>
      <trkpt lat="45.72081" lon="4.35407">
        <ele>576</ele>
        <time>2017-03-02T08:44:58Z</time>
      </trkpt>
      <trkpt lat="45.72086" lon="4.35397">
        <ele>575</ele>
        <time>2017-03-02T08:45:17Z</time>
      </trkpt>
      <trkpt lat="45.72086" lon="4.35396">
        <ele>575</ele>
        <time>2017-03-02T08:45:18Z</time>
      </trkpt>
      <trkpt lat="45.72091" lon="4.35388">
        <ele>575</ele>
        <time>2017-03-02T08:45:26Z</time>
      </trkpt>
      <trkpt lat="45.72092" lon="4.35387">
        <ele>575</ele>
        <time>2017-03-02T08:45:27Z</time>
      </trkpt>
      <trkpt lat="45.721" lon="4.35382">
        <ele>574</ele>
        <time>2017-03-02T08:45:38Z</time>
      </trkpt>
      <trkpt lat="45.72101" lon="4.35382">
        <ele>574</ele>
        <time>2017-03-02T08:45:39Z</time>
      </trkpt>
      <trkpt lat="45.7211" lon="4.35386">
        <ele>574</ele>
        <time>2017-03-02T08:45:47Z</time>
      </trkpt>
      <trkpt lat="45.72111" lon="4.35387">
        <ele>574</ele>
        <time>2017-03-02T08:45:48Z</time>
      </trkpt>
      <trkpt lat="45.72119" lon="4.35386">
        <ele>574</ele>
        <time>2017-03-02T08:45:54Z</time>
      </trkpt>
      <trkpt lat="45.7212" lon="4.35386">
        <ele>574</ele>
        <time>2017-03-02T08:45:55Z</time>
      </trkpt>
      <trkpt lat="45.72128" lon="4.35386">
        <ele>574</ele>
        <time>2017-03-02T08:46:01Z</time>
      </trkpt>
      <trkpt lat="45.7213" lon="4.35387">
        <ele>573</ele>
        <time>2017-03-02T08:46:02Z</time>
      </trkpt>
      <trkpt lat="45.72138" lon="4.35391">
        <ele>573</ele>
        <time>2017-03-02T08:46:08Z</time>
      </trkpt>
      <trkpt lat="45.72139" lon="4.35392">
        <ele>573</ele>
        <time>2017-03-02T08:46:09Z</time>
      </trkpt>
      <trkpt lat="45.72146" lon="4.35396">
        <ele>573</ele>
        <time>2017-03-02T08:46:15Z</time>
      </trkpt>
      <trkpt lat="45.72147" lon="4.35397">
        <ele>573</ele>
        <time>2017-03-02T08:46:16Z</time>
      </trkpt>
      <trkpt lat="45.72155" lon="4.35402">
        <ele>573</ele>
        <time>2017-03-02T08:46:23Z</time>
      </trkpt>
      <trkpt lat="45.72156" lon="4.35402">
        <ele>573</ele>
        <time>2017-03-02T08:46:24Z</time>
      </trkpt>
      <trkpt lat="45.72165" lon="4.35402">
        <ele>573</ele>
        <time>2017-03-02T08:46:31Z</time>
      </trkpt>
      <trkpt lat="45.72166" lon="4.35402">
        <ele>573</ele>
        <time>2017-03-02T08:46:32Z</time>
      </trkpt>
      <trkpt lat="45.72175" lon="4.35405">
        <ele>570</ele>
        <time>2017-03-02T08:46:39Z</time>
      </trkpt>
      <trkpt lat="45.72176" lon="4.35406">
        <ele>570</ele>
        <time>2017-03-02T08:46:40Z</time>
      </trkpt>
      <trkpt lat="45.72184" lon="4.35407">
        <ele>570</ele>
        <time>2017-03-02T08:46:46Z</time>
      </trkpt>
      <trkpt lat="45.72185" lon="4.35408">
        <ele>570</ele>
        <time>2017-03-02T08:46:47Z</time>
      </trkpt>
      <trkpt lat="45.72193" lon="4.35409">
        <ele>569</ele>
        <time>2017-03-02T08:46:53Z</time>
      </trkpt>
      <trkpt lat="45.72195" lon="4.3541">
        <ele>569</ele>
        <time>2017-03-02T08:46:54Z</time>
      </trkpt>
      <trkpt lat="45.72203" lon="4.35411">
        <ele>569</ele>
        <time>2017-03-02T08:47:00Z</time>
      </trkpt>
      <trkpt lat="45.72204" lon="4.35411">
        <ele>568</ele>
        <time>2017-03-02T08:47:01Z</time>
      </trkpt>
      <trkpt lat="45.72212" lon="4.35413">
        <ele>568</ele>
        <time>2017-03-02T08:47:08Z</time>
      </trkpt>
      <trkpt lat="45.72213" lon="4.35413">
        <ele>568</ele>
        <time>2017-03-02T08:47:09Z</time>
      </trkpt>
      <trkpt lat="45.72222" lon="4.35414">
        <ele>568</ele>
        <time>2017-03-02T08:47:16Z</time>
      </trkpt>
      <trkpt lat="45.72223" lon="4.35415">
        <ele>567</ele>
        <time>2017-03-02T08:47:17Z</time>
      </trkpt>
      <trkpt lat="45.72229" lon="4.35423">
        <ele>568</ele>
        <time>2017-03-02T08:47:23Z</time>
      </trkpt>
      <trkpt lat="45.7223" lon="4.35425">
        <ele>568</ele>
        <time>2017-03-02T08:47:24Z</time>
      </trkpt>
      <trkpt lat="45.72233" lon="4.35436">
        <ele>568</ele>
        <time>2017-03-02T08:47:31Z</time>
      </trkpt>
      <trkpt lat="45.72233" lon="4.35438">
        <ele>568</ele>
        <time>2017-03-02T08:47:32Z</time>
      </trkpt>
      <trkpt lat="45.72238" lon="4.35448">
        <ele>568</ele>
        <time>2017-03-02T08:47:38Z</time>
      </trkpt>
      <trkpt lat="45.72238" lon="4.3545">
        <ele>568</ele>
        <time>2017-03-02T08:47:39Z</time>
      </trkpt>
      <trkpt lat="45.72242" lon="4.35461">
        <ele>567</ele>
        <time>2017-03-02T08:47:45Z</time>
      </trkpt>
      <trkpt lat="45.72242" lon="4.35463">
        <ele>567</ele>
        <time>2017-03-02T08:47:46Z</time>
      </trkpt>
      <trkpt lat="45.72245" lon="4.35475">
        <ele>567</ele>
        <time>2017-03-02T08:47:52Z</time>
      </trkpt>
      <trkpt lat="45.72245" lon="4.35476">
        <ele>567</ele>
        <time>2017-03-02T08:47:53Z</time>
      </trkpt>
      <trkpt lat="45.72247" lon="4.35487">
        <ele>566</ele>
        <time>2017-03-02T08:47:59Z</time>
      </trkpt>
      <trkpt lat="45.72247" lon="4.35489">
        <ele>566</ele>
        <time>2017-03-02T08:48:00Z</time>
      </trkpt>
      <trkpt lat="45.72249" lon="4.355">
        <ele>565</ele>
        <time>2017-03-02T08:48:06Z</time>
      </trkpt>
      <trkpt lat="45.72249" lon="4.35502">
        <ele>565</ele>
        <time>2017-03-02T08:48:07Z</time>
      </trkpt>
      <trkpt lat="45.7225" lon="4.35514">
        <ele>561</ele>
        <time>2017-03-02T08:48:13Z</time>
      </trkpt>
      <trkpt lat="45.72251" lon="4.35516">
        <ele>561</ele>
        <time>2017-03-02T08:48:14Z</time>
      </trkpt>
      <trkpt lat="45.72252" lon="4.35528">
        <ele>559</ele>
        <time>2017-03-02T08:48:20Z</time>
      </trkpt>
      <trkpt lat="45.72252" lon="4.3553">
        <ele>559</ele>
        <time>2017-03-02T08:48:21Z</time>
      </trkpt>
      <trkpt lat="45.72252" lon="4.35541">
        <ele>558</ele>
        <time>2017-03-02T08:48:27Z</time>
      </trkpt>
      <trkpt lat="45.72252" lon="4.35543">
        <ele>558</ele>
        <time>2017-03-02T08:48:28Z</time>
      </trkpt>
      <trkpt lat="45.72251" lon="4.35555">
        <ele>557</ele>
        <time>2017-03-02T08:48:34Z</time>
      </trkpt>
      <trkpt lat="45.7225" lon="4.35556">
        <ele>557</ele>
        <time>2017-03-02T08:48:35Z</time>
      </trkpt>
      <trkpt lat="45.72249" lon="4.35568">
        <ele>561</ele>
        <time>2017-03-02T08:48:41Z</time>
      </trkpt>
      <trkpt lat="45.72249" lon="4.3557">
        <ele>561</ele>
        <time>2017-03-02T08:48:42Z</time>
      </trkpt>
      <trkpt lat="45.72246" lon="4.35581">
        <ele>559</ele>
        <time>2017-03-02T08:48:48Z</time>
      </trkpt>
      <trkpt lat="45.72246" lon="4.35582">
        <ele>559</ele>
        <time>2017-03-02T08:48:49Z</time>
      </trkpt>
      <trkpt lat="45.72242" lon="4.35594">
        <ele>559</ele>
        <time>2017-03-02T08:48:55Z</time>
      </trkpt>
      <trkpt lat="45.72241" lon="4.35596">
        <ele>559</ele>
        <time>2017-03-02T08:48:56Z</time>
      </trkpt>
      <trkpt lat="45.72238" lon="4.35607">
        <ele>559</ele>
        <time>2017-03-02T08:49:02Z</time>
      </trkpt>
      <trkpt lat="45.72238" lon="4.35609">
        <ele>559</ele>
        <time>2017-03-02T08:49:03Z</time>
      </trkpt>
      <trkpt lat="45.72235" lon="4.3562">
        <ele>559</ele>
        <time>2017-03-02T08:49:09Z</time>
      </trkpt>
      <trkpt lat="45.72235" lon="4.35622">
        <ele>559</ele>
        <time>2017-03-02T08:49:10Z</time>
      </trkpt>
      <trkpt lat="45.72232" lon="4.35633">
        <ele>559</ele>
        <time>2017-03-02T08:49:16Z</time>
      </trkpt>
      <trkpt lat="45.72231" lon="4.35635">
        <ele>559</ele>
        <time>2017-03-02T08:49:17Z</time>
      </trkpt>
      <trkpt lat="45.72228" lon="4.35646">
        <ele>558</ele>
        <time>2017-03-02T08:49:23Z</time>
      </trkpt>
      <trkpt lat="45.72228" lon="4.35647">
        <ele>558</ele>
        <time>2017-03-02T08:49:24Z</time>
      </trkpt>
      <trkpt lat="45.72224" lon="4.35658">
        <ele>558</ele>
        <time>2017-03-02T08:49:30Z</time>
      </trkpt>
      <trkpt lat="45.72224" lon="4.3566">
        <ele>558</ele>
        <time>2017-03-02T08:49:31Z</time>
      </trkpt>
      <trkpt lat="45.72221" lon="4.35671">
        <ele>557</ele>
        <time>2017-03-02T08:49:37Z</time>
      </trkpt>
      <trkpt lat="45.72221" lon="4.35673">
        <ele>557</ele>
        <time>2017-03-02T08:49:38Z</time>
      </trkpt>
      <trkpt lat="45.72219" lon="4.35685">
        <ele>557</ele>
        <time>2017-03-02T08:49:44Z</time>
      </trkpt>
      <trkpt lat="45.72218" lon="4.35687">
        <ele>557</ele>
        <time>2017-03-02T08:49:45Z</time>
      </trkpt>
      <trkpt lat="45.72218" lon="4.35698">
        <ele>557</ele>
        <time>2017-03-02T08:49:51Z</time>
      </trkpt>
      <trkpt lat="45.72218" lon="4.357">
        <ele>557</ele>
        <time>2017-03-02T08:49:52Z</time>
      </trkpt>
      <trkpt lat="45.72217" lon="4.35711">
        <ele>557</ele>
        <time>2017-03-02T08:49:58Z</time>
      </trkpt>
      <trkpt lat="45.72216" lon="4.35713">
        <ele>557</ele>
        <time>2017-03-02T08:49:59Z</time>
      </trkpt>
      <trkpt lat="45.7222" lon="4.35723">
        <ele>557</ele>
        <time>2017-03-02T08:50:05Z</time>
      </trkpt>
      <trkpt lat="45.72221" lon="4.35724">
        <ele>557</ele>
        <time>2017-03-02T08:50:06Z</time>
      </trkpt>
      <trkpt lat="45.72226" lon="4.35733">
        <ele>556</ele>
        <time>2017-03-02T08:50:11Z</time>
      </trkpt>
      <trkpt lat="45.72226" lon="4.35735">
        <ele>556</ele>
        <time>2017-03-02T08:50:12Z</time>
      </trkpt>
      <trkpt lat="45.72231" lon="4.35746">
        <ele>555</ele>
        <time>2017-03-02T08:50:18Z</time>
      </trkpt>
      <trkpt lat="45.72232" lon="4.35747">
        <ele>555</ele>
        <time>2017-03-02T08:50:19Z</time>
      </trkpt>
      <trkpt lat="45.72238" lon="4.35754">
        <ele>555</ele>
        <time>2017-03-02T08:50:24Z</time>
      </trkpt>
      <trkpt lat="45.72239" lon="4.35756">
        <ele>555</ele>
        <time>2017-03-02T08:50:25Z</time>
      </trkpt>
      <trkpt lat="45.72244" lon="4.35765">
        <ele>556</ele>
        <time>2017-03-02T08:50:31Z</time>
      </trkpt>
      <trkpt lat="45.72245" lon="4.35767">
        <ele>556</ele>
        <time>2017-03-02T08:50:32Z</time>
      </trkpt>
      <trkpt lat="45.7225" lon="4.35776">
        <ele>554</ele>
        <time>2017-03-02T08:50:38Z</time>
      </trkpt>
      <trkpt lat="45.72251" lon="4.35778">
        <ele>554</ele>
        <time>2017-03-02T08:50:39Z</time>
      </trkpt>
      <trkpt lat="45.72245" lon="4.35788">
        <ele>558</ele>
        <time>2017-03-02T08:50:47Z</time>
      </trkpt>
      <trkpt lat="45.72245" lon="4.35789">
        <ele>558</ele>
        <time>2017-03-02T08:50:48Z</time>
      </trkpt>
      <trkpt lat="45.72252" lon="4.35784">
        <ele>554</ele>
        <time>2017-03-02T08:54:43Z</time>
      </trkpt>
      <trkpt lat="45.72254" lon="4.35783">
        <ele>554</ele>
        <time>2017-03-02T08:54:44Z</time>
      </trkpt>
      <trkpt lat="45.7226" lon="4.35778">
        <ele>554</ele>
        <time>2017-03-02T08:54:50Z</time>
      </trkpt>
      <trkpt lat="45.72262" lon="4.35777">
        <ele>554</ele>
        <time>2017-03-02T08:54:51Z</time>
      </trkpt>
      <trkpt lat="45.7227" lon="4.35773">
        <ele>554</ele>
        <time>2017-03-02T08:54:57Z</time>
      </trkpt>
      <trkpt lat="45.72271" lon="4.35772">
        <ele>554</ele>
        <time>2017-03-02T08:54:58Z</time>
      </trkpt>
      <trkpt lat="45.72279" lon="4.35769">
        <ele>554</ele>
        <time>2017-03-02T08:55:04Z</time>
      </trkpt>
      <trkpt lat="45.7228" lon="4.35768">
        <ele>554</ele>
        <time>2017-03-02T08:55:05Z</time>
      </trkpt>
      <trkpt lat="45.72287" lon="4.35762">
        <ele>553</ele>
        <time>2017-03-02T08:55:12Z</time>
      </trkpt>
      <trkpt lat="45.72288" lon="4.35761">
        <ele>553</ele>
        <time>2017-03-02T08:55:13Z</time>
      </trkpt>
      <trkpt lat="45.72295" lon="4.35756">
        <ele>553</ele>
        <time>2017-03-02T08:55:19Z</time>
      </trkpt>
      <trkpt lat="45.72297" lon="4.35755">
        <ele>553</ele>
        <time>2017-03-02T08:55:20Z</time>
      </trkpt>
      <trkpt lat="45.72303" lon="4.35747">
        <ele>550</ele>
        <time>2017-03-02T08:55:26Z</time>
      </trkpt>
      <trkpt lat="45.72305" lon="4.35746">
        <ele>550</ele>
        <time>2017-03-02T08:55:27Z</time>
      </trkpt>
      <trkpt lat="45.72311" lon="4.35739">
        <ele>550</ele>
        <time>2017-03-02T08:55:33Z</time>
      </trkpt>
      <trkpt lat="45.72313" lon="4.35738">
        <ele>550</ele>
        <time>2017-03-02T08:55:34Z</time>
      </trkpt>
      <trkpt lat="45.72319" lon="4.35745">
        <ele>550</ele>
        <time>2017-03-02T08:55:41Z</time>
      </trkpt>
      <trkpt lat="45.7232" lon="4.35747">
        <ele>550</ele>
        <time>2017-03-02T08:55:42Z</time>
      </trkpt>
      <trkpt lat="45.72325" lon="4.35755">
        <ele>551</ele>
        <time>2017-03-02T08:55:50Z</time>
      </trkpt>
      <trkpt lat="45.72326" lon="4.35756">
        <ele>551</ele>
        <time>2017-03-02T08:55:51Z</time>
      </trkpt>
      <trkpt lat="45.72332" lon="4.35764">
        <ele>552</ele>
        <time>2017-03-02T08:55:59Z</time>
      </trkpt>
      <trkpt lat="45.72333" lon="4.35765">
        <ele>552</ele>
        <time>2017-03-02T08:56:00Z</time>
      </trkpt>
      <trkpt lat="45.72339" lon="4.35774">
        <ele>552</ele>
        <time>2017-03-02T08:56:08Z</time>
      </trkpt>
      <trkpt lat="45.7234" lon="4.35776">
        <ele>552</ele>
        <time>2017-03-02T08:56:09Z</time>
      </trkpt>
      <trkpt lat="45.72348" lon="4.35775">
        <ele>552</ele>
        <time>2017-03-02T08:56:19Z</time>
      </trkpt>
      <trkpt lat="45.72348" lon="4.35774">
        <ele>552</ele>
        <time>2017-03-02T08:56:20Z</time>
      </trkpt>
      <trkpt lat="45.72353" lon="4.35765">
        <ele>551</ele>
        <time>2017-03-02T08:56:26Z</time>
      </trkpt>
      <trkpt lat="45.72354" lon="4.35764">
        <ele>551</ele>
        <time>2017-03-02T08:56:27Z</time>
      </trkpt>
      <trkpt lat="45.72358" lon="4.35754">
        <ele>551</ele>
        <time>2017-03-02T08:56:33Z</time>
      </trkpt>
      <trkpt lat="45.72359" lon="4.35753">
        <ele>551</ele>
        <time>2017-03-02T08:56:34Z</time>
      </trkpt>
      <trkpt lat="45.72364" lon="4.35744">
        <ele>549</ele>
        <time>2017-03-02T08:56:40Z</time>
      </trkpt>
      <trkpt lat="45.72365" lon="4.35742">
        <ele>549</ele>
        <time>2017-03-02T08:56:41Z</time>
      </trkpt>
      <trkpt lat="45.7237" lon="4.35733">
        <ele>549</ele>
        <time>2017-03-02T08:56:47Z</time>
      </trkpt>
      <trkpt lat="45.7237" lon="4.35732">
        <ele>549</ele>
        <time>2017-03-02T08:56:48Z</time>
      </trkpt>
      <trkpt lat="45.72376" lon="4.35723">
        <ele>549</ele>
        <time>2017-03-02T08:56:54Z</time>
      </trkpt>
      <trkpt lat="45.72377" lon="4.35722">
        <ele>549</ele>
        <time>2017-03-02T08:56:55Z</time>
      </trkpt>
      <trkpt lat="45.72383" lon="4.35712">
        <ele>549</ele>
        <time>2017-03-02T08:57:01Z</time>
      </trkpt>
      <trkpt lat="45.72384" lon="4.3571">
        <ele>549</ele>
        <time>2017-03-02T08:57:02Z</time>
      </trkpt>
      <trkpt lat="45.72389" lon="4.35702">
        <ele>549</ele>
        <time>2017-03-02T08:57:07Z</time>
      </trkpt>
      <trkpt lat="45.7239" lon="4.357">
        <ele>549</ele>
        <time>2017-03-02T08:57:08Z</time>
      </trkpt>
      <trkpt lat="45.72395" lon="4.35691">
        <ele>549</ele>
        <time>2017-03-02T08:57:14Z</time>
      </trkpt>
      <trkpt lat="45.72396" lon="4.35689">
        <ele>549</ele>
        <time>2017-03-02T08:57:15Z</time>
      </trkpt>
      <trkpt lat="45.72403" lon="4.35681">
        <ele>549</ele>
        <time>2017-03-02T08:57:21Z</time>
      </trkpt>
      <trkpt lat="45.72404" lon="4.35679">
        <ele>549</ele>
        <time>2017-03-02T08:57:22Z</time>
      </trkpt>
      <trkpt lat="45.72409" lon="4.35671">
        <ele>548</ele>
        <time>2017-03-02T08:57:28Z</time>
      </trkpt>
      <trkpt lat="45.7241" lon="4.35669">
        <ele>548</ele>
        <time>2017-03-02T08:57:29Z</time>
      </trkpt>
      <trkpt lat="45.72415" lon="4.35661">
        <ele>548</ele>
        <time>2017-03-02T08:57:35Z</time>
      </trkpt>
      <trkpt lat="45.72416" lon="4.3566">
        <ele>548</ele>
        <time>2017-03-02T08:57:36Z</time>
      </trkpt>
      <trkpt lat="45.72422" lon="4.35651">
        <ele>546</ele>
        <time>2017-03-02T08:57:42Z</time>
      </trkpt>
      <trkpt lat="45.72423" lon="4.35649">
        <ele>545</ele>
        <time>2017-03-02T08:57:43Z</time>
      </trkpt>
      <trkpt lat="45.72429" lon="4.3564">
        <ele>545</ele>
        <time>2017-03-02T08:57:49Z</time>
      </trkpt>
      <trkpt lat="45.7243" lon="4.35639">
        <ele>545</ele>
        <time>2017-03-02T08:57:50Z</time>
      </trkpt>
      <trkpt lat="45.72436" lon="4.3563">
        <ele>544</ele>
        <time>2017-03-02T08:57:56Z</time>
      </trkpt>
      <trkpt lat="45.72436" lon="4.35628">
        <ele>544</ele>
        <time>2017-03-02T08:57:57Z</time>
      </trkpt>
      <trkpt lat="45.72442" lon="4.35619">
        <ele>544</ele>
        <time>2017-03-02T08:58:03Z</time>
      </trkpt>
      <trkpt lat="45.72443" lon="4.35618">
        <ele>544</ele>
        <time>2017-03-02T08:58:04Z</time>
      </trkpt>
      <trkpt lat="45.72448" lon="4.35609">
        <ele>543</ele>
        <time>2017-03-02T08:58:10Z</time>
      </trkpt>
      <trkpt lat="45.72449" lon="4.35608">
        <ele>543</ele>
        <time>2017-03-02T08:58:11Z</time>
      </trkpt>
      <trkpt lat="45.72455" lon="4.356">
        <ele>543</ele>
        <time>2017-03-02T08:58:17Z</time>
      </trkpt>
      <trkpt lat="45.72456" lon="4.35599">
        <ele>543</ele>
        <time>2017-03-02T08:58:18Z</time>
      </trkpt>
      <trkpt lat="45.72462" lon="4.35591">
        <ele>543</ele>
        <time>2017-03-02T08:58:24Z</time>
      </trkpt>
      <trkpt lat="45.72463" lon="4.35589">
        <ele>543</ele>
        <time>2017-03-02T08:58:25Z</time>
      </trkpt>
      <trkpt lat="45.72468" lon="4.3558">
        <ele>542</ele>
        <time>2017-03-02T08:58:31Z</time>
      </trkpt>
      <trkpt lat="45.72469" lon="4.35579">
        <ele>542</ele>
        <time>2017-03-02T08:58:32Z</time>
      </trkpt>
      <trkpt lat="45.72475" lon="4.35569">
        <ele>542</ele>
        <time>2017-03-02T08:58:38Z</time>
      </trkpt>
      <trkpt lat="45.72476" lon="4.35567">
        <ele>542</ele>
        <time>2017-03-02T08:58:39Z</time>
      </trkpt>
      <trkpt lat="45.72481" lon="4.35558">
        <ele>542</ele>
        <time>2017-03-02T08:58:45Z</time>
      </trkpt>
      <trkpt lat="45.72482" lon="4.35557">
        <ele>542</ele>
        <time>2017-03-02T08:58:46Z</time>
      </trkpt>
      <trkpt lat="45.72487" lon="4.35548">
        <ele>542</ele>
        <time>2017-03-02T08:58:52Z</time>
      </trkpt>
      <trkpt lat="45.72488" lon="4.35547">
        <ele>542</ele>
        <time>2017-03-02T08:58:53Z</time>
      </trkpt>
      <trkpt lat="45.72493" lon="4.35538">
        <ele>542</ele>
        <time>2017-03-02T08:58:59Z</time>
      </trkpt>
      <trkpt lat="45.72494" lon="4.35537">
        <ele>542</ele>
        <time>2017-03-02T08:59:00Z</time>
      </trkpt>
      <trkpt lat="45.725" lon="4.35529">
        <ele>542</ele>
        <time>2017-03-02T08:59:07Z</time>
      </trkpt>
      <trkpt lat="45.72501" lon="4.35528">
        <ele>540</ele>
        <time>2017-03-02T08:59:08Z</time>
      </trkpt>
      <trkpt lat="45.72507" lon="4.35519">
        <ele>540</ele>
        <time>2017-03-02T08:59:15Z</time>
      </trkpt>
      <trkpt lat="45.72507" lon="4.35518">
        <ele>540</ele>
        <time>2017-03-02T08:59:16Z</time>
      </trkpt>
      <trkpt lat="45.72514" lon="4.3551">
        <ele>540</ele>
        <time>2017-03-02T08:59:23Z</time>
      </trkpt>
      <trkpt lat="45.72515" lon="4.35509">
        <ele>540</ele>
        <time>2017-03-02T08:59:24Z</time>
      </trkpt>
      <trkpt lat="45.72521" lon="4.35501">
        <ele>540</ele>
        <time>2017-03-02T08:59:30Z</time>
      </trkpt>
      <trkpt lat="45.72522" lon="4.355">
        <ele>540</ele>
        <time>2017-03-02T08:59:31Z</time>
      </trkpt>
      <trkpt lat="45.72528" lon="4.35492">
        <ele>538</ele>
        <time>2017-03-02T08:59:37Z</time>
      </trkpt>
      <trkpt lat="45.72529" lon="4.35491">
        <ele>538</ele>
        <time>2017-03-02T08:59:38Z</time>
      </trkpt>
      <trkpt lat="45.72534" lon="4.35482">
        <ele>538</ele>
        <time>2017-03-02T08:59:45Z</time>
      </trkpt>
      <trkpt lat="45.72535" lon="4.3548">
        <ele>538</ele>
        <time>2017-03-02T08:59:46Z</time>
      </trkpt>
      <trkpt lat="45.7254" lon="4.35472">
        <ele>537</ele>
        <time>2017-03-02T08:59:52Z</time>
      </trkpt>
      <trkpt lat="45.72541" lon="4.3547">
        <ele>537</ele>
        <time>2017-03-02T08:59:53Z</time>
      </trkpt>
      <trkpt lat="45.72547" lon="4.35463">
        <ele>537</ele>
        <time>2017-03-02T08:59:59Z</time>
      </trkpt>
      <trkpt lat="45.72548" lon="4.35462">
        <ele>537</ele>
        <time>2017-03-02T09:00:00Z</time>
      </trkpt>
      <trkpt lat="45.72552" lon="4.35451">
        <ele>537</ele>
        <time>2017-03-02T09:00:06Z</time>
      </trkpt>
      <trkpt lat="45.72553" lon="4.3545">
        <ele>537</ele>
        <time>2017-03-02T09:00:07Z</time>
      </trkpt>
      <trkpt lat="45.72558" lon="4.3544">
        <ele>536</ele>
        <time>2017-03-02T09:00:12Z</time>
      </trkpt>
      <trkpt lat="45.72559" lon="4.35438">
        <ele>536</ele>
        <time>2017-03-02T09:00:13Z</time>
      </trkpt>
      <trkpt lat="45.72563" lon="4.35428">
        <ele>536</ele>
        <time>2017-03-02T09:00:18Z</time>
      </trkpt>
      <trkpt lat="45.72564" lon="4.35426">
        <ele>536</ele>
        <time>2017-03-02T09:00:19Z</time>
      </trkpt>
      <trkpt lat="45.72569" lon="4.35418">
        <ele>536</ele>
        <time>2017-03-02T09:00:24Z</time>
      </trkpt>
      <trkpt lat="45.7257" lon="4.35416">
        <ele>534</ele>
        <time>2017-03-02T09:00:25Z</time>
      </trkpt>
      <trkpt lat="45.72575" lon="4.35407">
        <ele>534</ele>
        <time>2017-03-02T09:00:33Z</time>
      </trkpt>
      <trkpt lat="45.72576" lon="4.35406">
        <ele>534</ele>
        <time>2017-03-02T09:00:34Z</time>
      </trkpt>
      <trkpt lat="45.72581" lon="4.35397">
        <ele>534</ele>
        <time>2017-03-02T09:00:41Z</time>
      </trkpt>
      <trkpt lat="45.72582" lon="4.35395">
        <ele>534</ele>
        <time>2017-03-02T09:00:42Z</time>
      </trkpt>
      <trkpt lat="45.72587" lon="4.35387">
        <ele>533</ele>
        <time>2017-03-02T09:00:47Z</time>
      </trkpt>
      <trkpt lat="45.72588" lon="4.35385">
        <ele>533</ele>
        <time>2017-03-02T09:00:48Z</time>
      </trkpt>
      <trkpt lat="45.72595" lon="4.35378">
        <ele>533</ele>
        <time>2017-03-02T09:00:53Z</time>
      </trkpt>
      <trkpt lat="45.72596" lon="4.35376">
        <ele>533</ele>
        <time>2017-03-02T09:00:54Z</time>
      </trkpt>
      <trkpt lat="45.72602" lon="4.35369">
        <ele>533</ele>
        <time>2017-03-02T09:00:59Z</time>
      </trkpt>
      <trkpt lat="45.72603" lon="4.35367">
        <ele>533</ele>
        <time>2017-03-02T09:01:00Z</time>
      </trkpt>
      <trkpt lat="45.72609" lon="4.35361">
        <ele>532</ele>
        <time>2017-03-02T09:01:05Z</time>
      </trkpt>
      <trkpt lat="45.72611" lon="4.3536">
        <ele>532</ele>
        <time>2017-03-02T09:01:06Z</time>
      </trkpt>
      <trkpt lat="45.72618" lon="4.35353">
        <ele>532</ele>
        <time>2017-03-02T09:01:14Z</time>
      </trkpt>
      <trkpt lat="45.72619" lon="4.35352">
        <ele>532</ele>
        <time>2017-03-02T09:01:15Z</time>
      </trkpt>
      <trkpt lat="45.72626" lon="4.35346">
        <ele>532</ele>
        <time>2017-03-02T09:01:21Z</time>
      </trkpt>
      <trkpt lat="45.72627" lon="4.35344">
        <ele>532</ele>
        <time>2017-03-02T09:01:22Z</time>
      </trkpt>
      <trkpt lat="45.72635" lon="4.35338">
        <ele>532</ele>
        <time>2017-03-02T09:01:29Z</time>
      </trkpt>
      <trkpt lat="45.72636" lon="4.35337">
        <ele>532</ele>
        <time>2017-03-02T09:01:30Z</time>
      </trkpt>
      <trkpt lat="45.72643" lon="4.35329">
        <ele>531</ele>
        <time>2017-03-02T09:01:37Z</time>
      </trkpt>
      <trkpt lat="45.72644" lon="4.35328">
        <ele>531</ele>
        <time>2017-03-02T09:01:38Z</time>
      </trkpt>
      <trkpt lat="45.7265" lon="4.35319">
        <ele>531</ele>
        <time>2017-03-02T09:01:44Z</time>
      </trkpt>
      <trkpt lat="45.72651" lon="4.35317">
        <ele>531</ele>
        <time>2017-03-02T09:01:45Z</time>
      </trkpt>
      <trkpt lat="45.72659" lon="4.35311">
        <ele>531</ele>
        <time>2017-03-02T09:01:50Z</time>
      </trkpt>
      <trkpt lat="45.7266" lon="4.3531">
        <ele>531</ele>
        <time>2017-03-02T09:01:51Z</time>
      </trkpt>
      <trkpt lat="45.72667" lon="4.35304">
        <ele>531</ele>
        <time>2017-03-02T09:01:55Z</time>
      </trkpt>
      <trkpt lat="45.72668" lon="4.35302">
        <ele>529</ele>
        <time>2017-03-02T09:01:56Z</time>
      </trkpt>
      <trkpt lat="45.72675" lon="4.35296">
        <ele>529</ele>
        <time>2017-03-02T09:02:01Z</time>
      </trkpt>
      <trkpt lat="45.72676" lon="4.35294">
        <ele>529</ele>
        <time>2017-03-02T09:02:02Z</time>
      </trkpt>
      <trkpt lat="45.72682" lon="4.35287">
        <ele>529</ele>
        <time>2017-03-02T09:02:07Z</time>
      </trkpt>
      <trkpt lat="45.72683" lon="4.35285">
        <ele>529</ele>
        <time>2017-03-02T09:02:08Z</time>
      </trkpt>
      <trkpt lat="45.72689" lon="4.35279">
        <ele>528</ele>
        <time>2017-03-02T09:02:13Z</time>
      </trkpt>
      <trkpt lat="45.7269" lon="4.35277">
        <ele>528</ele>
        <time>2017-03-02T09:02:14Z</time>
      </trkpt>
      <trkpt lat="45.72697" lon="4.35271">
        <ele>528</ele>
        <time>2017-03-02T09:02:20Z</time>
      </trkpt>
      <trkpt lat="45.72698" lon="4.3527">
        <ele>528</ele>
        <time>2017-03-02T09:02:21Z</time>
      </trkpt>
      <trkpt lat="45.72705" lon="4.35262">
        <ele>528</ele>
        <time>2017-03-02T09:02:26Z</time>
      </trkpt>
      <trkpt lat="45.72706" lon="4.35261">
        <ele>528</ele>
        <time>2017-03-02T09:02:27Z</time>
      </trkpt>
      <trkpt lat="45.72714" lon="4.35255">
        <ele>528</ele>
        <time>2017-03-02T09:02:32Z</time>
      </trkpt>
      <trkpt lat="45.72715" lon="4.35253">
        <ele>528</ele>
        <time>2017-03-02T09:02:33Z</time>
      </trkpt>
      <trkpt lat="45.72722" lon="4.35248">
        <ele>528</ele>
        <time>2017-03-02T09:02:38Z</time>
      </trkpt>
      <trkpt lat="45.72724" lon="4.35247">
        <ele>528</ele>
        <time>2017-03-02T09:02:39Z</time>
      </trkpt>
      <trkpt lat="45.72731" lon="4.35242">
        <ele>528</ele>
        <time>2017-03-02T09:02:44Z</time>
      </trkpt>
      <trkpt lat="45.72732" lon="4.35241">
        <ele>528</ele>
        <time>2017-03-02T09:02:45Z</time>
      </trkpt>
      <trkpt lat="45.72739" lon="4.35235">
        <ele>528</ele>
        <time>2017-03-02T09:02:50Z</time>
      </trkpt>
      <trkpt lat="45.7274" lon="4.35234">
        <ele>528</ele>
        <time>2017-03-02T09:02:51Z</time>
      </trkpt>
      <trkpt lat="45.72747" lon="4.35227">
        <ele>528</ele>
        <time>2017-03-02T09:02:57Z</time>
      </trkpt>
      <trkpt lat="45.72749" lon="4.35226">
        <ele>528</ele>
        <time>2017-03-02T09:02:58Z</time>
      </trkpt>
      <trkpt lat="45.72755" lon="4.3522">
        <ele>525</ele>
        <time>2017-03-02T09:03:03Z</time>
      </trkpt>
      <trkpt lat="45.72756" lon="4.35219">
        <ele>525</ele>
        <time>2017-03-02T09:03:04Z</time>
      </trkpt>
      <trkpt lat="45.72764" lon="4.35212">
        <ele>525</ele>
        <time>2017-03-02T09:03:10Z</time>
      </trkpt>
      <trkpt lat="45.72765" lon="4.35212">
        <ele>525</ele>
        <time>2017-03-02T09:03:11Z</time>
      </trkpt>
      <trkpt lat="45.72772" lon="4.35206">
        <ele>524</ele>
        <time>2017-03-02T09:03:17Z</time>
      </trkpt>
      <trkpt lat="45.72773" lon="4.35205">
        <ele>524</ele>
        <time>2017-03-02T09:03:18Z</time>
      </trkpt>
      <trkpt lat="45.7278" lon="4.35199">
        <ele>524</ele>
        <time>2017-03-02T09:03:24Z</time>
      </trkpt>
      <trkpt lat="45.72782" lon="4.35198">
        <ele>524</ele>
        <time>2017-03-02T09:03:25Z</time>
      </trkpt>
      <trkpt lat="45.72789" lon="4.35193">
        <ele>524</ele>
        <time>2017-03-02T09:03:30Z</time>
      </trkpt>
      <trkpt lat="45.7279" lon="4.35192">
        <ele>524</ele>
        <time>2017-03-02T09:03:31Z</time>
      </trkpt>
      <trkpt lat="45.72799" lon="4.35188">
        <ele>523</ele>
        <time>2017-03-02T09:03:37Z</time>
      </trkpt>
      <trkpt lat="45.728" lon="4.35187">
        <ele>523</ele>
        <time>2017-03-02T09:03:38Z</time>
      </trkpt>
      <trkpt lat="45.72807" lon="4.35181">
        <ele>523</ele>
        <time>2017-03-02T09:03:44Z</time>
      </trkpt>
      <trkpt lat="45.72808" lon="4.3518">
        <ele>523</ele>
        <time>2017-03-02T09:03:45Z</time>
      </trkpt>
      <trkpt lat="45.72817" lon="4.35175">
        <ele>523</ele>
        <time>2017-03-02T09:03:51Z</time>
      </trkpt>
      <trkpt lat="45.72818" lon="4.35174">
        <ele>523</ele>
        <time>2017-03-02T09:03:52Z</time>
      </trkpt>
      <trkpt lat="45.72825" lon="4.35169">
        <ele>522</ele>
        <time>2017-03-02T09:03:57Z</time>
      </trkpt>
      <trkpt lat="45.72827" lon="4.35168">
        <ele>522</ele>
        <time>2017-03-02T09:03:58Z</time>
      </trkpt>
      <trkpt lat="45.72834" lon="4.35162">
        <ele>521</ele>
        <time>2017-03-02T09:04:03Z</time>
      </trkpt>
      <trkpt lat="45.72835" lon="4.35161">
        <ele>521</ele>
        <time>2017-03-02T09:04:04Z</time>
      </trkpt>
      <trkpt lat="45.72842" lon="4.35156">
        <ele>521</ele>
        <time>2017-03-02T09:04:09Z</time>
      </trkpt>
      <trkpt lat="45.72843" lon="4.35155">
        <ele>520</ele>
        <time>2017-03-02T09:04:10Z</time>
      </trkpt>
      <trkpt lat="45.72851" lon="4.35153">
        <ele>520</ele>
        <time>2017-03-02T09:04:15Z</time>
      </trkpt>
      <trkpt lat="45.72853" lon="4.35153">
        <ele>520</ele>
        <time>2017-03-02T09:04:16Z</time>
      </trkpt>
      <trkpt lat="45.72861" lon="4.35148">
        <ele>519</ele>
        <time>2017-03-02T09:04:22Z</time>
      </trkpt>
      <trkpt lat="45.72862" lon="4.35148">
        <ele>519</ele>
        <time>2017-03-02T09:04:23Z</time>
      </trkpt>
      <trkpt lat="45.7287" lon="4.35145">
        <ele>519</ele>
        <time>2017-03-02T09:04:29Z</time>
      </trkpt>
      <trkpt lat="45.72871" lon="4.35144">
        <ele>519</ele>
        <time>2017-03-02T09:04:30Z</time>
      </trkpt>
      <trkpt lat="45.72878" lon="4.35141">
        <ele>519</ele>
        <time>2017-03-02T09:04:35Z</time>
      </trkpt>
      <trkpt lat="45.7288" lon="4.3514">
        <ele>519</ele>
        <time>2017-03-02T09:04:36Z</time>
      </trkpt>
      <trkpt lat="45.72887" lon="4.35137">
        <ele>518</ele>
        <time>2017-03-02T09:04:41Z</time>
      </trkpt>
      <trkpt lat="45.72889" lon="4.35136">
        <ele>518</ele>
        <time>2017-03-02T09:04:42Z</time>
      </trkpt>
      <trkpt lat="45.72896" lon="4.35135">
        <ele>518</ele>
        <time>2017-03-02T09:04:47Z</time>
      </trkpt>
      <trkpt lat="45.72898" lon="4.35135">
        <ele>518</ele>
        <time>2017-03-02T09:04:48Z</time>
      </trkpt>
      <trkpt lat="45.72906" lon="4.35135">
        <ele>518</ele>
        <time>2017-03-02T09:04:53Z</time>
      </trkpt>
      <trkpt lat="45.72907" lon="4.35135">
        <ele>518</ele>
        <time>2017-03-02T09:04:54Z</time>
      </trkpt>
      <trkpt lat="45.72915" lon="4.35135">
        <ele>517</ele>
        <time>2017-03-02T09:04:59Z</time>
      </trkpt>
      <trkpt lat="45.72917" lon="4.35135">
        <ele>517</ele>
        <time>2017-03-02T09:05:00Z</time>
      </trkpt>
      <trkpt lat="45.72924" lon="4.35136">
        <ele>514</ele>
        <time>2017-03-02T09:05:05Z</time>
      </trkpt>
      <trkpt lat="45.72926" lon="4.35136">
        <ele>514</ele>
        <time>2017-03-02T09:05:06Z</time>
      </trkpt>
      <trkpt lat="45.72934" lon="4.35136">
        <ele>514</ele>
        <time>2017-03-02T09:05:11Z</time>
      </trkpt>
      <trkpt lat="45.72935" lon="4.35136">
        <ele>514</ele>
        <time>2017-03-02T09:05:12Z</time>
      </trkpt>
      <trkpt lat="45.72943" lon="4.35135">
        <ele>514</ele>
        <time>2017-03-02T09:05:17Z</time>
      </trkpt>
      <trkpt lat="45.72944" lon="4.35136">
        <ele>514</ele>
        <time>2017-03-02T09:05:18Z</time>
      </trkpt>
      <trkpt lat="45.72952" lon="4.35136">
        <ele>514</ele>
        <time>2017-03-02T09:05:24Z</time>
      </trkpt>
      <trkpt lat="45.72953" lon="4.35137">
        <ele>514</ele>
        <time>2017-03-02T09:05:25Z</time>
      </trkpt>
      <trkpt lat="45.72962" lon="4.35138">
        <ele>514</ele>
        <time>2017-03-02T09:05:33Z</time>
      </trkpt>
      <trkpt lat="45.72964" lon="4.35139">
        <ele>514</ele>
        <time>2017-03-02T09:05:34Z</time>
      </trkpt>
      <trkpt lat="45.72972" lon="4.35139">
        <ele>513</ele>
        <time>2017-03-02T09:05:40Z</time>
      </trkpt>
      <trkpt lat="45.72973" lon="4.35139">
        <ele>513</ele>
        <time>2017-03-02T09:05:41Z</time>
      </trkpt>
      <trkpt lat="45.72981" lon="4.35143">
        <ele>513</ele>
        <time>2017-03-02T09:05:47Z</time>
      </trkpt>
      <trkpt lat="45.72982" lon="4.35144">
        <ele>513</ele>
        <time>2017-03-02T09:05:48Z</time>
      </trkpt>
      <trkpt lat="45.72989" lon="4.35146">
        <ele>512</ele>
        <time>2017-03-02T09:05:55Z</time>
      </trkpt>
      <trkpt lat="45.72991" lon="4.35147">
        <ele>512</ele>
        <time>2017-03-02T09:05:56Z</time>
      </trkpt>
      <trkpt lat="45.72999" lon="4.35149">
        <ele>512</ele>
        <time>2017-03-02T09:06:02Z</time>
      </trkpt>
      <trkpt lat="45.73" lon="4.3515">
        <ele>509</ele>
        <time>2017-03-02T09:06:03Z</time>
      </trkpt>
      <trkpt lat="45.73008" lon="4.35153">
        <ele>509</ele>
        <time>2017-03-02T09:06:08Z</time>
      </trkpt>
      <trkpt lat="45.7301" lon="4.35153">
        <ele>509</ele>
        <time>2017-03-02T09:06:09Z</time>
      </trkpt>
      <trkpt lat="45.73017" lon="4.35157">
        <ele>508</ele>
        <time>2017-03-02T09:06:14Z</time>
      </trkpt>
      <trkpt lat="45.73019" lon="4.35158">
        <ele>508</ele>
        <time>2017-03-02T09:06:15Z</time>
      </trkpt>
      <trkpt lat="45.73027" lon="4.35158">
        <ele>508</ele>
        <time>2017-03-02T09:06:20Z</time>
      </trkpt>
      <trkpt lat="45.73028" lon="4.35158">
        <ele>508</ele>
        <time>2017-03-02T09:06:21Z</time>
      </trkpt>
      <trkpt lat="45.73037" lon="4.35161">
        <ele>508</ele>
        <time>2017-03-02T09:06:27Z</time>
      </trkpt>
      <trkpt lat="45.73038" lon="4.3516">
        <ele>508</ele>
        <time>2017-03-02T09:06:28Z</time>
      </trkpt>
      <trkpt lat="45.73046" lon="4.35157">
        <ele>507</ele>
        <time>2017-03-02T09:06:34Z</time>
      </trkpt>
      <trkpt lat="45.73047" lon="4.35157">
        <ele>507</ele>
        <time>2017-03-02T09:06:35Z</time>
      </trkpt>
      <trkpt lat="45.73055" lon="4.35154">
        <ele>507</ele>
        <time>2017-03-02T09:06:41Z</time>
      </trkpt>
      <trkpt lat="45.73056" lon="4.35154">
        <ele>507</ele>
        <time>2017-03-02T09:06:42Z</time>
      </trkpt>
      <trkpt lat="45.73064" lon="4.35153">
        <ele>506</ele>
        <time>2017-03-02T09:06:48Z</time>
      </trkpt>
      <trkpt lat="45.73065" lon="4.35153">
        <ele>506</ele>
        <time>2017-03-02T09:06:49Z</time>
      </trkpt>
      <trkpt lat="45.73073" lon="4.35153">
        <ele>505</ele>
        <time>2017-03-02T09:06:56Z</time>
      </trkpt>
      <trkpt lat="45.73075" lon="4.35153">
        <ele>505</ele>
        <time>2017-03-02T09:06:57Z</time>
      </trkpt>
      <trkpt lat="45.73082" lon="4.35151">
        <ele>505</ele>
        <time>2017-03-02T09:07:03Z</time>
      </trkpt>
      <trkpt lat="45.73084" lon="4.3515">
        <ele>501</ele>
        <time>2017-03-02T09:07:04Z</time>
      </trkpt>
      <trkpt lat="45.73092" lon="4.35149">
        <ele>501</ele>
        <time>2017-03-02T09:07:10Z</time>
      </trkpt>
      <trkpt lat="45.73093" lon="4.35149">
        <ele>501</ele>
        <time>2017-03-02T09:07:11Z</time>
      </trkpt>
      <trkpt lat="45.73101" lon="4.35149">
        <ele>500</ele>
        <time>2017-03-02T09:07:18Z</time>
      </trkpt>
      <trkpt lat="45.73102" lon="4.35149">
        <ele>500</ele>
        <time>2017-03-02T09:07:19Z</time>
      </trkpt>
      <trkpt lat="45.73111" lon="4.35149">
        <ele>499</ele>
        <time>2017-03-02T09:07:27Z</time>
      </trkpt>
      <trkpt lat="45.73112" lon="4.35149">
        <ele>499</ele>
        <time>2017-03-02T09:07:28Z</time>
      </trkpt>
      <trkpt lat="45.7312" lon="4.3515">
        <ele>499</ele>
        <time>2017-03-02T09:07:36Z</time>
      </trkpt>
      <trkpt lat="45.73122" lon="4.35151">
        <ele>498</ele>
        <time>2017-03-02T09:07:37Z</time>
      </trkpt>
      <trkpt lat="45.7313" lon="4.3515">
        <ele>498</ele>
        <time>2017-03-02T09:07:44Z</time>
      </trkpt>
      <trkpt lat="45.73131" lon="4.3515">
        <ele>498</ele>
        <time>2017-03-02T09:07:45Z</time>
      </trkpt>
      <trkpt lat="45.73138" lon="4.35146">
        <ele>497</ele>
        <time>2017-03-02T09:07:57Z</time>
      </trkpt>
      <trkpt lat="45.7314" lon="4.35145">
        <ele>497</ele>
        <time>2017-03-02T09:07:58Z</time>
      </trkpt>
      <trkpt lat="45.73144" lon="4.35135">
        <ele>497</ele>
        <time>2017-03-02T09:08:10Z</time>
      </trkpt>
      <trkpt lat="45.73144" lon="4.35133">
        <ele>497</ele>
        <time>2017-03-02T09:08:11Z</time>
      </trkpt>
      <trkpt lat="45.73143" lon="4.35121">
        <ele>497</ele>
        <time>2017-03-02T09:08:21Z</time>
      </trkpt>
      <trkpt lat="45.73143" lon="4.3512">
        <ele>497</ele>
        <time>2017-03-02T09:08:22Z</time>
      </trkpt>
      <trkpt lat="45.73142" lon="4.35107">
        <ele>496</ele>
        <time>2017-03-02T09:08:34Z</time>
      </trkpt>
      <trkpt lat="45.73143" lon="4.35106">
        <ele>496</ele>
        <time>2017-03-02T09:08:35Z</time>
      </trkpt>
      <trkpt lat="45.73149" lon="4.35097">
        <ele>495</ele>
        <time>2017-03-02T09:08:45Z</time>
      </trkpt>
      <trkpt lat="45.7315" lon="4.35096">
        <ele>495</ele>
        <time>2017-03-02T09:08:46Z</time>
      </trkpt>
      <trkpt lat="45.73156" lon="4.35088">
        <ele>493</ele>
        <time>2017-03-02T09:08:54Z</time>
      </trkpt>
      <trkpt lat="45.73157" lon="4.35087">
        <ele>493</ele>
        <time>2017-03-02T09:08:55Z</time>
      </trkpt>
      <trkpt lat="45.73165" lon="4.35083">
        <ele>490</ele>
        <time>2017-03-02T09:09:05Z</time>
      </trkpt>
      <trkpt lat="45.73166" lon="4.35083">
        <ele>490</ele>
        <time>2017-03-02T09:09:06Z</time>
      </trkpt>
      <trkpt lat="45.73174" lon="4.35079">
        <ele>486</ele>
        <time>2017-03-02T09:09:16Z</time>
      </trkpt>
      <trkpt lat="45.73175" lon="4.35078">
        <ele>485</ele>
        <time>2017-03-02T09:09:17Z</time>
      </trkpt>
      <trkpt lat="45.73183" lon="4.35076">
        <ele>483</ele>
        <time>2017-03-02T09:09:24Z</time>
      </trkpt>
      <trkpt lat="45.73184" lon="4.35076">
        <ele>482</ele>
        <time>2017-03-02T09:09:25Z</time>
      </trkpt>
      <trkpt lat="45.73192" lon="4.35073">
        <ele>480</ele>
        <time>2017-03-02T09:09:31Z</time>
      </trkpt>
      <trkpt lat="45.73193" lon="4.35073">
        <ele>480</ele>
        <time>2017-03-02T09:09:32Z</time>
      </trkpt>
      <trkpt lat="45.73202" lon="4.3507">
        <ele>478</ele>
        <time>2017-03-02T09:09:39Z</time>
      </trkpt>
      <trkpt lat="45.73203" lon="4.35071">
        <ele>478</ele>
        <time>2017-03-02T09:09:40Z</time>
      </trkpt>
      <trkpt lat="45.73211" lon="4.35077">
        <ele>477</ele>
        <time>2017-03-02T09:09:45Z</time>
      </trkpt>
      <trkpt lat="45.73212" lon="4.35078">
        <ele>477</ele>
        <time>2017-03-02T09:09:46Z</time>
      </trkpt>
      <trkpt lat="45.7322" lon="4.35083">
        <ele>475</ele>
        <time>2017-03-02T09:09:51Z</time>
      </trkpt>
      <trkpt lat="45.73222" lon="4.35084">
        <ele>479</ele>
        <time>2017-03-02T09:09:52Z</time>
      </trkpt>
      <trkpt lat="45.7323" lon="4.35085">
        <ele>477</ele>
        <time>2017-03-02T09:09:57Z</time>
      </trkpt>
      <trkpt lat="45.73231" lon="4.35085">
        <ele>477</ele>
        <time>2017-03-02T09:09:58Z</time>
      </trkpt>
      <trkpt lat="45.73239" lon="4.35087">
        <ele>475</ele>
        <time>2017-03-02T09:10:03Z</time>
      </trkpt>
      <trkpt lat="45.7324" lon="4.35087">
        <ele>474</ele>
        <time>2017-03-02T09:10:04Z</time>
      </trkpt>
      <trkpt lat="45.73247" lon="4.35092">
        <ele>474</ele>
        <time>2017-03-02T09:10:09Z</time>
      </trkpt>
      <trkpt lat="45.73248" lon="4.35093">
        <ele>474</ele>
        <time>2017-03-02T09:10:10Z</time>
      </trkpt>
      <trkpt lat="45.73257" lon="4.3509">
        <ele>470</ele>
        <time>2017-03-02T09:10:16Z</time>
      </trkpt>
      <trkpt lat="45.73258" lon="4.35089">
        <ele>470</ele>
        <time>2017-03-02T09:10:17Z</time>
      </trkpt>
      <trkpt lat="45.73266" lon="4.35085">
        <ele>470</ele>
        <time>2017-03-02T09:10:23Z</time>
      </trkpt>
      <trkpt lat="45.73268" lon="4.35084">
        <ele>470</ele>
        <time>2017-03-02T09:10:24Z</time>
      </trkpt>
      <trkpt lat="45.73276" lon="4.35081">
        <ele>467</ele>
        <time>2017-03-02T09:10:30Z</time>
      </trkpt>
      <trkpt lat="45.73277" lon="4.3508">
        <ele>467</ele>
        <time>2017-03-02T09:10:31Z</time>
      </trkpt>
      <trkpt lat="45.73284" lon="4.35076">
        <ele>467</ele>
        <time>2017-03-02T09:10:36Z</time>
      </trkpt>
      <trkpt lat="45.73286" lon="4.35076">
        <ele>466</ele>
        <time>2017-03-02T09:10:37Z</time>
      </trkpt>
      <trkpt lat="45.73294" lon="4.35072">
        <ele>466</ele>
        <time>2017-03-02T09:10:43Z</time>
      </trkpt>
      <trkpt lat="45.73295" lon="4.35072">
        <ele>466</ele>
        <time>2017-03-02T09:10:44Z</time>
      </trkpt>
      <trkpt lat="45.73303" lon="4.35069">
        <ele>466</ele>
        <time>2017-03-02T09:10:50Z</time>
      </trkpt>
      <trkpt lat="45.73305" lon="4.35069">
        <ele>466</ele>
        <time>2017-03-02T09:10:51Z</time>
      </trkpt>
      <trkpt lat="45.73313" lon="4.35067">
        <ele>465</ele>
        <time>2017-03-02T09:10:56Z</time>
      </trkpt>
      <trkpt lat="45.73314" lon="4.35066">
        <ele>465</ele>
        <time>2017-03-02T09:10:57Z</time>
      </trkpt>
      <trkpt lat="45.73322" lon="4.35064">
        <ele>465</ele>
        <time>2017-03-02T09:11:02Z</time>
      </trkpt>
      <trkpt lat="45.73323" lon="4.35063">
        <ele>465</ele>
        <time>2017-03-02T09:11:03Z</time>
      </trkpt>
      <trkpt lat="45.73331" lon="4.35057">
        <ele>465</ele>
        <time>2017-03-02T09:11:09Z</time>
      </trkpt>
      <trkpt lat="45.73332" lon="4.35055">
        <ele>465</ele>
        <time>2017-03-02T09:11:10Z</time>
      </trkpt>
      <trkpt lat="45.73339" lon="4.35049">
        <ele>466</ele>
        <time>2017-03-02T09:11:17Z</time>
      </trkpt>
      <trkpt lat="45.73341" lon="4.35048">
        <ele>466</ele>
        <time>2017-03-02T09:11:18Z</time>
      </trkpt>
      <trkpt lat="45.73349" lon="4.35042">
        <ele>466</ele>
        <time>2017-03-02T09:11:25Z</time>
      </trkpt>
      <trkpt lat="45.7335" lon="4.35042">
        <ele>466</ele>
        <time>2017-03-02T09:11:26Z</time>
      </trkpt>
      <trkpt lat="45.73358" lon="4.35035">
        <ele>466</ele>
        <time>2017-03-02T09:11:32Z</time>
      </trkpt>
      <trkpt lat="45.73359" lon="4.35034">
        <ele>466</ele>
        <time>2017-03-02T09:11:33Z</time>
      </trkpt>
      <trkpt lat="45.73368" lon="4.35032">
        <ele>467</ele>
        <time>2017-03-02T09:11:40Z</time>
      </trkpt>
      <trkpt lat="45.73369" lon="4.35031">
        <ele>467</ele>
        <time>2017-03-02T09:11:41Z</time>
      </trkpt>
      <trkpt lat="45.73378" lon="4.35035">
        <ele>467</ele>
        <time>2017-03-02T09:11:48Z</time>
      </trkpt>
      <trkpt lat="45.73378" lon="4.35036">
        <ele>467</ele>
        <time>2017-03-02T09:11:49Z</time>
      </trkpt>
      <trkpt lat="45.73385" lon="4.35044">
        <ele>467</ele>
        <time>2017-03-02T09:11:55Z</time>
      </trkpt>
      <trkpt lat="45.73386" lon="4.35046">
        <ele>467</ele>
        <time>2017-03-02T09:11:56Z</time>
      </trkpt>
      <trkpt lat="45.73392" lon="4.35053">
        <ele>467</ele>
        <time>2017-03-02T09:12:02Z</time>
      </trkpt>
      <trkpt lat="45.73393" lon="4.35054">
        <ele>467</ele>
        <time>2017-03-02T09:12:03Z</time>
      </trkpt>
      <trkpt lat="45.734" lon="4.35059">
        <ele>467</ele>
        <time>2017-03-02T09:12:14Z</time>
      </trkpt>
      <trkpt lat="45.73401" lon="4.3506">
        <ele>467</ele>
        <time>2017-03-02T09:12:15Z</time>
      </trkpt>
      <trkpt lat="45.73406" lon="4.3507">
        <ele>467</ele>
        <time>2017-03-02T09:12:23Z</time>
      </trkpt>
      <trkpt lat="45.73406" lon="4.35071">
        <ele>467</ele>
        <time>2017-03-02T09:12:24Z</time>
      </trkpt>
      <trkpt lat="45.73411" lon="4.35081">
        <ele>466</ele>
        <time>2017-03-02T09:12:33Z</time>
      </trkpt>
      <trkpt lat="45.73411" lon="4.35083">
        <ele>466</ele>
        <time>2017-03-02T09:12:34Z</time>
      </trkpt>
      <trkpt lat="45.73413" lon="4.35094">
        <ele>466</ele>
        <time>2017-03-02T09:12:42Z</time>
      </trkpt>
      <trkpt lat="45.73413" lon="4.35096">
        <ele>466</ele>
        <time>2017-03-02T09:12:43Z</time>
      </trkpt>
      <trkpt lat="45.73415" lon="4.35108">
        <ele>466</ele>
        <time>2017-03-02T09:12:51Z</time>
      </trkpt>
      <trkpt lat="45.73416" lon="4.3511">
        <ele>466</ele>
        <time>2017-03-02T09:12:52Z</time>
      </trkpt>
      <trkpt lat="45.7342" lon="4.3512">
        <ele>468</ele>
        <time>2017-03-02T09:12:58Z</time>
      </trkpt>
      <trkpt lat="45.73421" lon="4.35121">
        <ele>468</ele>
        <time>2017-03-02T09:12:59Z</time>
      </trkpt>
      <trkpt lat="45.73424" lon="4.35131">
        <ele>468</ele>
        <time>2017-03-02T09:13:04Z</time>
      </trkpt>
      <trkpt lat="45.73424" lon="4.35133">
        <ele>468</ele>
        <time>2017-03-02T09:13:05Z</time>
      </trkpt>
      <trkpt lat="45.73426" lon="4.35145">
        <ele>468</ele>
        <time>2017-03-02T09:13:12Z</time>
      </trkpt>
      <trkpt lat="45.73426" lon="4.35146">
        <ele>468</ele>
        <time>2017-03-02T09:13:13Z</time>
      </trkpt>
      <trkpt lat="45.73428" lon="4.35157">
        <ele>468</ele>
        <time>2017-03-02T09:13:20Z</time>
      </trkpt>
      <trkpt lat="45.73429" lon="4.3516">
        <ele>468</ele>
        <time>2017-03-02T09:13:21Z</time>
      </trkpt>
      <trkpt lat="45.73433" lon="4.35169">
        <ele>468</ele>
        <time>2017-03-02T09:13:25Z</time>
      </trkpt>
      <trkpt lat="45.73434" lon="4.35172">
        <ele>468</ele>
        <time>2017-03-02T09:13:26Z</time>
      </trkpt>
      <trkpt lat="45.73438" lon="4.35182">
        <ele>469</ele>
        <time>2017-03-02T09:13:31Z</time>
      </trkpt>
      <trkpt lat="45.73438" lon="4.35184">
        <ele>469</ele>
        <time>2017-03-02T09:13:32Z</time>
      </trkpt>
      <trkpt lat="45.73442" lon="4.35196">
        <ele>469</ele>
        <time>2017-03-02T09:13:39Z</time>
      </trkpt>
      <trkpt lat="45.73443" lon="4.35197">
        <ele>469</ele>
        <time>2017-03-02T09:13:40Z</time>
      </trkpt>
      <trkpt lat="45.73448" lon="4.35207">
        <ele>470</ele>
        <time>2017-03-02T09:13:48Z</time>
      </trkpt>
      <trkpt lat="45.73449" lon="4.35208">
        <ele>470</ele>
        <time>2017-03-02T09:13:49Z</time>
      </trkpt>
      <trkpt lat="45.73456" lon="4.35216">
        <ele>470</ele>
        <time>2017-03-02T09:13:58Z</time>
      </trkpt>
      <trkpt lat="45.73456" lon="4.35217">
        <ele>470</ele>
        <time>2017-03-02T09:13:59Z</time>
      </trkpt>
      <trkpt lat="45.73461" lon="4.35228">
        <ele>470</ele>
        <time>2017-03-02T09:14:09Z</time>
      </trkpt>
      <trkpt lat="45.73461" lon="4.35229">
        <ele>471</ele>
        <time>2017-03-02T09:14:10Z</time>
      </trkpt>
      <trkpt lat="45.73465" lon="4.3524">
        <ele>471</ele>
        <time>2017-03-02T09:14:16Z</time>
      </trkpt>
      <trkpt lat="45.73465" lon="4.35242">
        <ele>471</ele>
        <time>2017-03-02T09:14:17Z</time>
      </trkpt>
      <trkpt lat="45.7347" lon="4.35251">
        <ele>471</ele>
        <time>2017-03-02T09:14:23Z</time>
      </trkpt>
      <trkpt lat="45.73471" lon="4.35252">
        <ele>471</ele>
        <time>2017-03-02T09:14:24Z</time>
      </trkpt>
      <trkpt lat="45.73475" lon="4.35263">
        <ele>471</ele>
        <time>2017-03-02T09:14:30Z</time>
      </trkpt>
      <trkpt lat="45.73475" lon="4.35265">
        <ele>471</ele>
        <time>2017-03-02T09:14:31Z</time>
      </trkpt>
      <trkpt lat="45.73479" lon="4.35275">
        <ele>471</ele>
        <time>2017-03-02T09:14:37Z</time>
      </trkpt>
      <trkpt lat="45.73479" lon="4.35277">
        <ele>471</ele>
        <time>2017-03-02T09:14:38Z</time>
      </trkpt>
      <trkpt lat="45.73483" lon="4.35288">
        <ele>471</ele>
        <time>2017-03-02T09:14:44Z</time>
      </trkpt>
      <trkpt lat="45.73484" lon="4.35289">
        <ele>471</ele>
        <time>2017-03-02T09:14:45Z</time>
      </trkpt>
      <trkpt lat="45.73489" lon="4.353">
        <ele>470</ele>
        <time>2017-03-02T09:14:51Z</time>
      </trkpt>
      <trkpt lat="45.73489" lon="4.35301">
        <ele>470</ele>
        <time>2017-03-02T09:14:52Z</time>
      </trkpt>
      <trkpt lat="45.73494" lon="4.35312">
        <ele>470</ele>
        <time>2017-03-02T09:15:00Z</time>
      </trkpt>
      <trkpt lat="45.73494" lon="4.35313">
        <ele>470</ele>
        <time>2017-03-02T09:15:01Z</time>
      </trkpt>
      <trkpt lat="45.735" lon="4.35323">
        <ele>471</ele>
        <time>2017-03-02T09:15:09Z</time>
      </trkpt>
      <trkpt lat="45.73501" lon="4.35324">
        <ele>473</ele>
        <time>2017-03-02T09:15:10Z</time>
      </trkpt>
      <trkpt lat="45.73505" lon="4.35333">
        <ele>472</ele>
        <time>2017-03-02T09:15:18Z</time>
      </trkpt>
      <trkpt lat="45.73506" lon="4.35334">
        <ele>472</ele>
        <time>2017-03-02T09:15:19Z</time>
      </trkpt>
      <trkpt lat="45.73509" lon="4.35346">
        <ele>473</ele>
        <time>2017-03-02T09:15:25Z</time>
      </trkpt>
      <trkpt lat="45.7351" lon="4.35347">
        <ele>473</ele>
        <time>2017-03-02T09:15:26Z</time>
      </trkpt>
      <trkpt lat="45.73513" lon="4.35358">
        <ele>473</ele>
        <time>2017-03-02T09:15:32Z</time>
      </trkpt>
      <trkpt lat="45.73514" lon="4.3536">
        <ele>473</ele>
        <time>2017-03-02T09:15:33Z</time>
      </trkpt>
      <trkpt lat="45.73518" lon="4.35371">
        <ele>473</ele>
        <time>2017-03-02T09:15:39Z</time>
      </trkpt>
      <trkpt lat="45.73519" lon="4.35372">
        <ele>473</ele>
        <time>2017-03-02T09:15:40Z</time>
      </trkpt>
      <trkpt lat="45.73521" lon="4.35383">
        <ele>473</ele>
        <time>2017-03-02T09:15:47Z</time>
      </trkpt>
      <trkpt lat="45.73521" lon="4.35385">
        <ele>473</ele>
        <time>2017-03-02T09:15:48Z</time>
      </trkpt>
      <trkpt lat="45.73525" lon="4.35394">
        <ele>473</ele>
        <time>2017-03-02T09:16:01Z</time>
      </trkpt>
      <trkpt lat="45.73526" lon="4.35396">
        <ele>473</ele>
        <time>2017-03-02T09:16:02Z</time>
      </trkpt>
      <trkpt lat="45.73528" lon="4.35406">
        <ele>473</ele>
        <time>2017-03-02T09:16:06Z</time>
      </trkpt>
      <trkpt lat="45.73529" lon="4.35409">
        <ele>473</ele>
        <time>2017-03-02T09:16:07Z</time>
      </trkpt>
      <trkpt lat="45.7353" lon="4.3542">
        <ele>471</ele>
        <time>2017-03-02T09:16:12Z</time>
      </trkpt>
      <trkpt lat="45.73531" lon="4.35422">
        <ele>471</ele>
        <time>2017-03-02T09:16:13Z</time>
      </trkpt>
      <trkpt lat="45.73532" lon="4.35435">
        <ele>471</ele>
        <time>2017-03-02T09:16:20Z</time>
      </trkpt>
      <trkpt lat="45.73532" lon="4.35437">
        <ele>471</ele>
        <time>2017-03-02T09:16:21Z</time>
      </trkpt>
      <trkpt lat="45.73532" lon="4.35448">
        <ele>471</ele>
        <time>2017-03-02T09:16:27Z</time>
      </trkpt>
      <trkpt lat="45.73533" lon="4.3545">
        <ele>471</ele>
        <time>2017-03-02T09:16:28Z</time>
      </trkpt>
      <trkpt lat="45.73535" lon="4.35462">
        <ele>471</ele>
        <time>2017-03-02T09:16:33Z</time>
      </trkpt>
      <trkpt lat="45.73536" lon="4.35464">
        <ele>471</ele>
        <time>2017-03-02T09:16:34Z</time>
      </trkpt>
      <trkpt lat="45.73538" lon="4.35476">
        <ele>471</ele>
        <time>2017-03-02T09:16:40Z</time>
      </trkpt>
      <trkpt lat="45.73538" lon="4.35478">
        <ele>471</ele>
        <time>2017-03-02T09:16:41Z</time>
      </trkpt>
      <trkpt lat="45.7354" lon="4.3549">
        <ele>471</ele>
        <time>2017-03-02T09:16:47Z</time>
      </trkpt>
      <trkpt lat="45.7354" lon="4.35491">
        <ele>471</ele>
        <time>2017-03-02T09:16:48Z</time>
      </trkpt>
      <trkpt lat="45.73544" lon="4.35503">
        <ele>471</ele>
        <time>2017-03-02T09:16:56Z</time>
      </trkpt>
      <trkpt lat="45.73544" lon="4.35504">
        <ele>471</ele>
        <time>2017-03-02T09:16:57Z</time>
      </trkpt>
      <trkpt lat="45.73549" lon="4.35514">
        <ele>471</ele>
        <time>2017-03-02T09:17:05Z</time>
      </trkpt>
      <trkpt lat="45.7355" lon="4.35516">
        <ele>471</ele>
        <time>2017-03-02T09:17:06Z</time>
      </trkpt>
      <trkpt lat="45.73557" lon="4.35523">
        <ele>471</ele>
        <time>2017-03-02T09:17:13Z</time>
      </trkpt>
      <trkpt lat="45.73558" lon="4.35523">
        <ele>471</ele>
        <time>2017-03-02T09:17:14Z</time>
      </trkpt>
      <trkpt lat="45.73565" lon="4.35528">
        <ele>471</ele>
        <time>2017-03-02T09:17:19Z</time>
      </trkpt>
      <trkpt lat="45.73567" lon="4.35529">
        <ele>471</ele>
        <time>2017-03-02T09:17:20Z</time>
      </trkpt>
      <trkpt lat="45.73575" lon="4.35533">
        <ele>471</ele>
        <time>2017-03-02T09:17:26Z</time>
      </trkpt>
      <trkpt lat="45.73576" lon="4.35533">
        <ele>471</ele>
        <time>2017-03-02T09:17:27Z</time>
      </trkpt>
      <trkpt lat="45.73583" lon="4.35535">
        <ele>471</ele>
        <time>2017-03-02T09:17:33Z</time>
      </trkpt>
      <trkpt lat="45.73585" lon="4.35535">
        <ele>475</ele>
        <time>2017-03-02T09:17:34Z</time>
      </trkpt>
      <trkpt lat="45.73593" lon="4.35535">
        <ele>475</ele>
        <time>2017-03-02T09:17:40Z</time>
      </trkpt>
      <trkpt lat="45.73594" lon="4.35534">
        <ele>475</ele>
        <time>2017-03-02T09:17:41Z</time>
      </trkpt>
      <trkpt lat="45.73602" lon="4.35535">
        <ele>475</ele>
        <time>2017-03-02T09:17:48Z</time>
      </trkpt>
      <trkpt lat="45.73604" lon="4.35535">
        <ele>475</ele>
        <time>2017-03-02T09:17:49Z</time>
      </trkpt>
      <trkpt lat="45.73612" lon="4.35533">
        <ele>475</ele>
        <time>2017-03-02T09:17:56Z</time>
      </trkpt>
      <trkpt lat="45.73613" lon="4.35533">
        <ele>475</ele>
        <time>2017-03-02T09:17:57Z</time>
      </trkpt>
      <trkpt lat="45.73622" lon="4.35533">
        <ele>476</ele>
        <time>2017-03-02T09:18:04Z</time>
      </trkpt>
      <trkpt lat="45.73623" lon="4.35533">
        <ele>476</ele>
        <time>2017-03-02T09:18:05Z</time>
      </trkpt>
      <trkpt lat="45.73631" lon="4.35533">
        <ele>476</ele>
        <time>2017-03-02T09:18:12Z</time>
      </trkpt>
      <trkpt lat="45.73632" lon="4.35533">
        <ele>476</ele>
        <time>2017-03-02T09:18:13Z</time>
      </trkpt>
      <trkpt lat="45.73641" lon="4.35533">
        <ele>477</ele>
        <time>2017-03-02T09:18:21Z</time>
      </trkpt>
      <trkpt lat="45.73642" lon="4.35534">
        <ele>477</ele>
        <time>2017-03-02T09:18:22Z</time>
      </trkpt>
      <trkpt lat="45.7365" lon="4.35534">
        <ele>477</ele>
        <time>2017-03-02T09:18:29Z</time>
      </trkpt>
      <trkpt lat="45.73651" lon="4.35535">
        <ele>477</ele>
        <time>2017-03-02T09:18:30Z</time>
      </trkpt>
      <trkpt lat="45.73659" lon="4.35539">
        <ele>477</ele>
        <time>2017-03-02T09:18:36Z</time>
      </trkpt>
      <trkpt lat="45.7366" lon="4.3554">
        <ele>477</ele>
        <time>2017-03-02T09:18:37Z</time>
      </trkpt>
      <trkpt lat="45.73668" lon="4.35545">
        <ele>482</ele>
        <time>2017-03-02T09:18:44Z</time>
      </trkpt>
      <trkpt lat="45.73669" lon="4.35545">
        <ele>482</ele>
        <time>2017-03-02T09:18:45Z</time>
      </trkpt>
      <trkpt lat="45.73678" lon="4.35547">
        <ele>482</ele>
        <time>2017-03-02T09:18:52Z</time>
      </trkpt>
      <trkpt lat="45.73679" lon="4.35547">
        <ele>482</ele>
        <time>2017-03-02T09:18:53Z</time>
      </trkpt>
      <trkpt lat="45.73687" lon="4.35547">
        <ele>482</ele>
        <time>2017-03-02T09:19:01Z</time>
      </trkpt>
      <trkpt lat="45.73689" lon="4.35547">
        <ele>482</ele>
        <time>2017-03-02T09:19:02Z</time>
      </trkpt>
      <trkpt lat="45.73697" lon="4.3555">
        <ele>483</ele>
        <time>2017-03-02T09:19:09Z</time>
      </trkpt>
      <trkpt lat="45.73698" lon="4.3555">
        <ele>483</ele>
        <time>2017-03-02T09:19:10Z</time>
      </trkpt>
      <trkpt lat="45.73706" lon="4.3555">
        <ele>483</ele>
        <time>2017-03-02T09:19:17Z</time>
      </trkpt>
      <trkpt lat="45.73707" lon="4.3555">
        <ele>483</ele>
        <time>2017-03-02T09:19:18Z</time>
      </trkpt>
      <trkpt lat="45.73715" lon="4.3555">
        <ele>484</ele>
        <time>2017-03-02T09:19:26Z</time>
      </trkpt>
      <trkpt lat="45.73716" lon="4.3555">
        <ele>484</ele>
        <time>2017-03-02T09:19:27Z</time>
      </trkpt>
      <trkpt lat="45.73724" lon="4.35543">
        <ele>484</ele>
        <time>2017-03-02T09:19:36Z</time>
      </trkpt>
      <trkpt lat="45.73725" lon="4.35542">
        <ele>484</ele>
        <time>2017-03-02T09:19:37Z</time>
      </trkpt>
      <trkpt lat="45.73732" lon="4.35536">
        <ele>485</ele>
        <time>2017-03-02T09:19:46Z</time>
      </trkpt>
      <trkpt lat="45.73732" lon="4.35535">
        <ele>485</ele>
        <time>2017-03-02T09:19:47Z</time>
      </trkpt>
      <trkpt lat="45.73739" lon="4.35526">
        <ele>486</ele>
        <time>2017-03-02T09:19:56Z</time>
      </trkpt>
      <trkpt lat="45.7374" lon="4.35525">
        <ele>486</ele>
        <time>2017-03-02T09:19:57Z</time>
      </trkpt>
      <trkpt lat="45.73747" lon="4.35517">
        <ele>487</ele>
        <time>2017-03-02T09:20:05Z</time>
      </trkpt>
      <trkpt lat="45.73748" lon="4.35517">
        <ele>487</ele>
        <time>2017-03-02T09:20:06Z</time>
      </trkpt>
      <trkpt lat="45.73754" lon="4.35509">
        <ele>491</ele>
        <time>2017-03-02T09:20:15Z</time>
      </trkpt>
      <trkpt lat="45.73755" lon="4.35508">
        <ele>491</ele>
        <time>2017-03-02T09:20:16Z</time>
      </trkpt>
      <trkpt lat="45.73762" lon="4.35501">
        <ele>492</ele>
        <time>2017-03-02T09:20:24Z</time>
      </trkpt>
      <trkpt lat="45.73763" lon="4.355">
        <ele>492</ele>
        <time>2017-03-02T09:20:25Z</time>
      </trkpt>
      <trkpt lat="45.7377" lon="4.35494">
        <ele>495</ele>
        <time>2017-03-02T09:20:32Z</time>
      </trkpt>
      <trkpt lat="45.73771" lon="4.35493">
        <ele>495</ele>
        <time>2017-03-02T09:20:33Z</time>
      </trkpt>
      <trkpt lat="45.73778" lon="4.35487">
        <ele>496</ele>
        <time>2017-03-02T09:20:40Z</time>
      </trkpt>
      <trkpt lat="45.7378" lon="4.35486">
        <ele>497</ele>
        <time>2017-03-02T09:20:41Z</time>
      </trkpt>
      <trkpt lat="45.73786" lon="4.35479">
        <ele>497</ele>
        <time>2017-03-02T09:20:48Z</time>
      </trkpt>
      <trkpt lat="45.73787" lon="4.35478">
        <ele>498</ele>
        <time>2017-03-02T09:20:49Z</time>
      </trkpt>
      <trkpt lat="45.73794" lon="4.35471">
        <ele>498</ele>
        <time>2017-03-02T09:20:57Z</time>
      </trkpt>
      <trkpt lat="45.73795" lon="4.3547">
        <ele>498</ele>
        <time>2017-03-02T09:20:58Z</time>
      </trkpt>
      <trkpt lat="45.73802" lon="4.35463">
        <ele>499</ele>
        <time>2017-03-02T09:21:05Z</time>
      </trkpt>
      <trkpt lat="45.73803" lon="4.35462">
        <ele>499</ele>
        <time>2017-03-02T09:21:06Z</time>
      </trkpt>
      <trkpt lat="45.7381" lon="4.35455">
        <ele>500</ele>
        <time>2017-03-02T09:21:14Z</time>
      </trkpt>
      <trkpt lat="45.73811" lon="4.35454">
        <ele>500</ele>
        <time>2017-03-02T09:21:15Z</time>
      </trkpt>
      <trkpt lat="45.73818" lon="4.35449">
        <ele>500</ele>
        <time>2017-03-02T09:21:23Z</time>
      </trkpt>
      <trkpt lat="45.73819" lon="4.35448">
        <ele>500</ele>
        <time>2017-03-02T09:21:24Z</time>
      </trkpt>
      <trkpt lat="45.73826" lon="4.35443">
        <ele>501</ele>
        <time>2017-03-02T09:21:31Z</time>
      </trkpt>
      <trkpt lat="45.73827" lon="4.35442">
        <ele>501</ele>
        <time>2017-03-02T09:21:32Z</time>
      </trkpt>
      <trkpt lat="45.73835" lon="4.35438">
        <ele>505</ele>
        <time>2017-03-02T09:21:39Z</time>
      </trkpt>
      <trkpt lat="45.73836" lon="4.35437">
        <ele>505</ele>
        <time>2017-03-02T09:21:40Z</time>
      </trkpt>
      <trkpt lat="45.73843" lon="4.35434">
        <ele>506</ele>
        <time>2017-03-02T09:21:47Z</time>
      </trkpt>
      <trkpt lat="45.73845" lon="4.35434">
        <ele>506</ele>
        <time>2017-03-02T09:21:48Z</time>
      </trkpt>
      <trkpt lat="45.73852" lon="4.35429">
        <ele>506</ele>
        <time>2017-03-02T09:21:56Z</time>
      </trkpt>
      <trkpt lat="45.73853" lon="4.35429">
        <ele>506</ele>
        <time>2017-03-02T09:21:57Z</time>
      </trkpt>
      <trkpt lat="45.73861" lon="4.35423">
        <ele>506</ele>
        <time>2017-03-02T09:22:06Z</time>
      </trkpt>
      <trkpt lat="45.73861" lon="4.35423">
        <ele>506</ele>
        <time>2017-03-02T09:22:07Z</time>
      </trkpt>
      <trkpt lat="45.73869" lon="4.35418">
        <ele>506</ele>
        <time>2017-03-02T09:22:16Z</time>
      </trkpt>
      <trkpt lat="45.7387" lon="4.35417">
        <ele>506</ele>
        <time>2017-03-02T09:22:17Z</time>
      </trkpt>
      <trkpt lat="45.73878" lon="4.35415">
        <ele>507</ele>
        <time>2017-03-02T09:22:23Z</time>
      </trkpt>
      <trkpt lat="45.73879" lon="4.35415">
        <ele>507</ele>
        <time>2017-03-02T09:22:24Z</time>
      </trkpt>
      <trkpt lat="45.73888" lon="4.35416">
        <ele>507</ele>
        <time>2017-03-02T09:22:30Z</time>
      </trkpt>
      <trkpt lat="45.73889" lon="4.35416">
        <ele>507</ele>
        <time>2017-03-02T09:22:31Z</time>
      </trkpt>
      <trkpt lat="45.73897" lon="4.35416">
        <ele>508</ele>
        <time>2017-03-02T09:22:37Z</time>
      </trkpt>
      <trkpt lat="45.73898" lon="4.35416">
        <ele>508</ele>
        <time>2017-03-02T09:22:38Z</time>
      </trkpt>
      <trkpt lat="45.73906" lon="4.35419">
        <ele>508</ele>
        <time>2017-03-02T09:22:44Z</time>
      </trkpt>
      <trkpt lat="45.73907" lon="4.3542">
        <ele>508</ele>
        <time>2017-03-02T09:22:45Z</time>
      </trkpt>
      <trkpt lat="45.73915" lon="4.35424">
        <ele>508</ele>
        <time>2017-03-02T09:22:52Z</time>
      </trkpt>
      <trkpt lat="45.73917" lon="4.35425">
        <ele>508</ele>
        <time>2017-03-02T09:22:53Z</time>
      </trkpt>
      <trkpt lat="45.73924" lon="4.35431">
        <ele>510</ele>
        <time>2017-03-02T09:22:59Z</time>
      </trkpt>
      <trkpt lat="45.73926" lon="4.35432">
        <ele>510</ele>
        <time>2017-03-02T09:23:00Z</time>
      </trkpt>
      <trkpt lat="45.73933" lon="4.35438">
        <ele>510</ele>
        <time>2017-03-02T09:23:06Z</time>
      </trkpt>
      <trkpt lat="45.73934" lon="4.35439">
        <ele>511</ele>
        <time>2017-03-02T09:23:07Z</time>
      </trkpt>
      <trkpt lat="45.73942" lon="4.35443">
        <ele>511</ele>
        <time>2017-03-02T09:23:14Z</time>
      </trkpt>
      <trkpt lat="45.73943" lon="4.35444">
        <ele>511</ele>
        <time>2017-03-02T09:23:15Z</time>
      </trkpt>
      <trkpt lat="45.73951" lon="4.35448">
        <ele>511</ele>
        <time>2017-03-02T09:23:22Z</time>
      </trkpt>
      <trkpt lat="45.73952" lon="4.35449">
        <ele>511</ele>
        <time>2017-03-02T09:23:23Z</time>
      </trkpt>
      <trkpt lat="45.7396" lon="4.35453">
        <ele>512</ele>
        <time>2017-03-02T09:23:30Z</time>
      </trkpt>
      <trkpt lat="45.73961" lon="4.35454">
        <ele>512</ele>
        <time>2017-03-02T09:23:31Z</time>
      </trkpt>
      <trkpt lat="45.73968" lon="4.3546">
        <ele>512</ele>
        <time>2017-03-02T09:23:38Z</time>
      </trkpt>
      <trkpt lat="45.73969" lon="4.35461">
        <ele>512</ele>
        <time>2017-03-02T09:23:39Z</time>
      </trkpt>
      <trkpt lat="45.73976" lon="4.35467">
        <ele>512</ele>
        <time>2017-03-02T09:23:46Z</time>
      </trkpt>
      <trkpt lat="45.73977" lon="4.35468">
        <ele>512</ele>
        <time>2017-03-02T09:23:47Z</time>
      </trkpt>
      <trkpt lat="45.73984" lon="4.35475">
        <ele>513</ele>
        <time>2017-03-02T09:23:54Z</time>
      </trkpt>
      <trkpt lat="45.73985" lon="4.35476">
        <ele>513</ele>
        <time>2017-03-02T09:23:55Z</time>
      </trkpt>
      <trkpt lat="45.73991" lon="4.35484">
        <ele>514</ele>
        <time>2017-03-02T09:24:02Z</time>
      </trkpt>
      <trkpt lat="45.73992" lon="4.35485">
        <ele>514</ele>
        <time>2017-03-02T09:24:03Z</time>
      </trkpt>
      <trkpt lat="45.73997" lon="4.35495">
        <ele>515</ele>
        <time>2017-03-02T09:24:10Z</time>
      </trkpt>
      <trkpt lat="45.73997" lon="4.35496">
        <ele>515</ele>
        <time>2017-03-02T09:24:11Z</time>
      </trkpt>
      <trkpt lat="45.74001" lon="4.35506">
        <ele>516</ele>
        <time>2017-03-02T09:24:18Z</time>
      </trkpt>
      <trkpt lat="45.74002" lon="4.35507">
        <ele>517</ele>
        <time>2017-03-02T09:24:19Z</time>
      </trkpt>
      <trkpt lat="45.74006" lon="4.35518">
        <ele>517</ele>
        <time>2017-03-02T09:24:26Z</time>
      </trkpt>
      <trkpt lat="45.74006" lon="4.35519">
        <ele>517</ele>
        <time>2017-03-02T09:24:27Z</time>
      </trkpt>
      <trkpt lat="45.74009" lon="4.3553">
        <ele>517</ele>
        <time>2017-03-02T09:24:34Z</time>
      </trkpt>
      <trkpt lat="45.74009" lon="4.35532">
        <ele>517</ele>
        <time>2017-03-02T09:24:35Z</time>
      </trkpt>
      <trkpt lat="45.74012" lon="4.35543">
        <ele>517</ele>
        <time>2017-03-02T09:24:42Z</time>
      </trkpt>
      <trkpt lat="45.74013" lon="4.35545">
        <ele>517</ele>
        <time>2017-03-02T09:24:43Z</time>
      </trkpt>
      <trkpt lat="45.74016" lon="4.35555">
        <ele>517</ele>
        <time>2017-03-02T09:24:49Z</time>
      </trkpt>
      <trkpt lat="45.74017" lon="4.35557">
        <ele>517</ele>
        <time>2017-03-02T09:24:50Z</time>
      </trkpt>
      <trkpt lat="45.74021" lon="4.35567">
        <ele>517</ele>
        <time>2017-03-02T09:24:56Z</time>
      </trkpt>
      <trkpt lat="45.74022" lon="4.35569">
        <ele>517</ele>
        <time>2017-03-02T09:24:57Z</time>
      </trkpt>
      <trkpt lat="45.74027" lon="4.35578">
        <ele>517</ele>
        <time>2017-03-02T09:25:03Z</time>
      </trkpt>
      <trkpt lat="45.74028" lon="4.3558">
        <ele>517</ele>
        <time>2017-03-02T09:25:04Z</time>
      </trkpt>
      <trkpt lat="45.74033" lon="4.3559">
        <ele>517</ele>
        <time>2017-03-02T09:25:11Z</time>
      </trkpt>
      <trkpt lat="45.74034" lon="4.35591">
        <ele>517</ele>
        <time>2017-03-02T09:25:12Z</time>
      </trkpt>
      <trkpt lat="45.74039" lon="4.356">
        <ele>517</ele>
        <time>2017-03-02T09:25:18Z</time>
      </trkpt>
      <trkpt lat="45.7404" lon="4.35602">
        <ele>517</ele>
        <time>2017-03-02T09:25:19Z</time>
      </trkpt>
      <trkpt lat="45.74047" lon="4.35611">
        <ele>517</ele>
        <time>2017-03-02T09:25:25Z</time>
      </trkpt>
      <trkpt lat="45.74048" lon="4.35612">
        <ele>517</ele>
        <time>2017-03-02T09:25:26Z</time>
      </trkpt>
      <trkpt lat="45.74052" lon="4.35621">
        <ele>518</ele>
        <time>2017-03-02T09:25:31Z</time>
      </trkpt>
      <trkpt lat="45.74053" lon="4.35622">
        <ele>518</ele>
        <time>2017-03-02T09:25:32Z</time>
      </trkpt>
      <trkpt lat="45.74059" lon="4.35631">
        <ele>518</ele>
        <time>2017-03-02T09:25:37Z</time>
      </trkpt>
      <trkpt lat="45.74059" lon="4.35632">
        <ele>518</ele>
        <time>2017-03-02T09:25:38Z</time>
      </trkpt>
      <trkpt lat="45.74065" lon="4.35642">
        <ele>518</ele>
        <time>2017-03-02T09:25:44Z</time>
      </trkpt>
      <trkpt lat="45.74066" lon="4.35643">
        <ele>518</ele>
        <time>2017-03-02T09:25:45Z</time>
      </trkpt>
      <trkpt lat="45.74072" lon="4.35652">
        <ele>519</ele>
        <time>2017-03-02T09:25:51Z</time>
      </trkpt>
      <trkpt lat="45.74073" lon="4.35654">
        <ele>519</ele>
        <time>2017-03-02T09:25:52Z</time>
      </trkpt>
      <trkpt lat="45.74079" lon="4.35661">
        <ele>520</ele>
        <time>2017-03-02T09:25:58Z</time>
      </trkpt>
      <trkpt lat="45.7408" lon="4.35663">
        <ele>520</ele>
        <time>2017-03-02T09:25:59Z</time>
      </trkpt>
      <trkpt lat="45.74087" lon="4.35668">
        <ele>521</ele>
        <time>2017-03-02T09:26:05Z</time>
      </trkpt>
      <trkpt lat="45.74088" lon="4.35669">
        <ele>521</ele>
        <time>2017-03-02T09:26:06Z</time>
      </trkpt>
      <trkpt lat="45.74097" lon="4.3567">
        <ele>521</ele>
        <time>2017-03-02T09:26:13Z</time>
      </trkpt>
      <trkpt lat="45.74098" lon="4.3567">
        <ele>521</ele>
        <time>2017-03-02T09:26:14Z</time>
      </trkpt>
      <trkpt lat="45.74107" lon="4.3567">
        <ele>521</ele>
        <time>2017-03-02T09:26:21Z</time>
      </trkpt>
      <trkpt lat="45.74108" lon="4.3567">
        <ele>521</ele>
        <time>2017-03-02T09:26:22Z</time>
      </trkpt>
      <trkpt lat="45.74116" lon="4.35671">
        <ele>521</ele>
        <time>2017-03-02T09:26:29Z</time>
      </trkpt>
      <trkpt lat="45.74118" lon="4.35671">
        <ele>521</ele>
        <time>2017-03-02T09:26:30Z</time>
      </trkpt>
      <trkpt lat="45.74126" lon="4.35673">
        <ele>522</ele>
        <time>2017-03-02T09:26:37Z</time>
      </trkpt>
      <trkpt lat="45.74128" lon="4.35673">
        <ele>522</ele>
        <time>2017-03-02T09:26:38Z</time>
      </trkpt>
      <trkpt lat="45.74136" lon="4.35677">
        <ele>522</ele>
        <time>2017-03-02T09:26:44Z</time>
      </trkpt>
      <trkpt lat="45.74137" lon="4.35677">
        <ele>522</ele>
        <time>2017-03-02T09:26:45Z</time>
      </trkpt>
      <trkpt lat="45.74145" lon="4.35682">
        <ele>522</ele>
        <time>2017-03-02T09:26:51Z</time>
      </trkpt>
      <trkpt lat="45.74146" lon="4.35683">
        <ele>522</ele>
        <time>2017-03-02T09:26:52Z</time>
      </trkpt>
      <trkpt lat="45.74153" lon="4.35688">
        <ele>522</ele>
        <time>2017-03-02T09:26:58Z</time>
      </trkpt>
      <trkpt lat="45.74154" lon="4.35689">
        <ele>522</ele>
        <time>2017-03-02T09:26:59Z</time>
      </trkpt>
      <trkpt lat="45.74161" lon="4.35696">
        <ele>522</ele>
        <time>2017-03-02T09:27:05Z</time>
      </trkpt>
      <trkpt lat="45.74162" lon="4.35697">
        <ele>522</ele>
        <time>2017-03-02T09:27:06Z</time>
      </trkpt>
      <trkpt lat="45.74169" lon="4.35704">
        <ele>524</ele>
        <time>2017-03-02T09:27:12Z</time>
      </trkpt>
      <trkpt lat="45.7417" lon="4.35705">
        <ele>524</ele>
        <time>2017-03-02T09:27:13Z</time>
      </trkpt>
      <trkpt lat="45.74177" lon="4.35712">
        <ele>524</ele>
        <time>2017-03-02T09:27:19Z</time>
      </trkpt>
      <trkpt lat="45.74178" lon="4.35713">
        <ele>524</ele>
        <time>2017-03-02T09:27:20Z</time>
      </trkpt>
      <trkpt lat="45.74185" lon="4.35719">
        <ele>524</ele>
        <time>2017-03-02T09:27:27Z</time>
      </trkpt>
      <trkpt lat="45.74186" lon="4.3572">
        <ele>524</ele>
        <time>2017-03-02T09:27:28Z</time>
      </trkpt>
      <trkpt lat="45.74193" lon="4.35726">
        <ele>524</ele>
        <time>2017-03-02T09:27:36Z</time>
      </trkpt>
      <trkpt lat="45.74194" lon="4.35727">
        <ele>524</ele>
        <time>2017-03-02T09:27:37Z</time>
      </trkpt>
      <trkpt lat="45.742" lon="4.35736">
        <ele>525</ele>
        <time>2017-03-02T09:27:44Z</time>
      </trkpt>
      <trkpt lat="45.74201" lon="4.35737">
        <ele>525</ele>
        <time>2017-03-02T09:27:45Z</time>
      </trkpt>
      <trkpt lat="45.74206" lon="4.35744">
        <ele>525</ele>
        <time>2017-03-02T09:27:50Z</time>
      </trkpt>
      <trkpt lat="45.74207" lon="4.35746">
        <ele>525</ele>
        <time>2017-03-02T09:27:51Z</time>
      </trkpt>
      <trkpt lat="45.74213" lon="4.35753">
        <ele>525</ele>
        <time>2017-03-02T09:27:56Z</time>
      </trkpt>
      <trkpt lat="45.74214" lon="4.35755">
        <ele>525</ele>
        <time>2017-03-02T09:27:57Z</time>
      </trkpt>
      <trkpt lat="45.74221" lon="4.35761">
        <ele>525</ele>
        <time>2017-03-02T09:28:03Z</time>
      </trkpt>
      <trkpt lat="45.74222" lon="4.35762">
        <ele>525</ele>
        <time>2017-03-02T09:28:04Z</time>
      </trkpt>
      <trkpt lat="45.7423" lon="4.35757">
        <ele>525</ele>
        <time>2017-03-02T09:28:12Z</time>
      </trkpt>
      <trkpt lat="45.74231" lon="4.35756">
        <ele>525</ele>
        <time>2017-03-02T09:28:13Z</time>
      </trkpt>
      <trkpt lat="45.74238" lon="4.35748">
        <ele>525</ele>
        <time>2017-03-02T09:28:22Z</time>
      </trkpt>
      <trkpt lat="45.74239" lon="4.35748">
        <ele>525</ele>
        <time>2017-03-02T09:28:23Z</time>
      </trkpt>
      <trkpt lat="45.74248" lon="4.35745">
        <ele>526</ele>
        <time>2017-03-02T09:28:32Z</time>
      </trkpt>
      <trkpt lat="45.74249" lon="4.35744">
        <ele>526</ele>
        <time>2017-03-02T09:28:33Z</time>
      </trkpt>
      <trkpt lat="45.74257" lon="4.35739">
        <ele>524</ele>
        <time>2017-03-02T09:28:40Z</time>
      </trkpt>
      <trkpt lat="45.74258" lon="4.35739">
        <ele>524</ele>
        <time>2017-03-02T09:28:41Z</time>
      </trkpt>
      <trkpt lat="45.74266" lon="4.35733">
        <ele>523</ele>
        <time>2017-03-02T09:28:48Z</time>
      </trkpt>
      <trkpt lat="45.74267" lon="4.35732">
        <ele>523</ele>
        <time>2017-03-02T09:28:49Z</time>
      </trkpt>
      <trkpt lat="45.74274" lon="4.35725">
        <ele>522</ele>
        <time>2017-03-02T09:28:56Z</time>
      </trkpt>
      <trkpt lat="45.74275" lon="4.35724">
        <ele>522</ele>
        <time>2017-03-02T09:28:57Z</time>
      </trkpt>
      <trkpt lat="45.74282" lon="4.35718">
        <ele>522</ele>
        <time>2017-03-02T09:29:04Z</time>
      </trkpt>
      <trkpt lat="45.74283" lon="4.35717">
        <ele>522</ele>
        <time>2017-03-02T09:29:05Z</time>
      </trkpt>
      <trkpt lat="45.74291" lon="4.35711">
        <ele>521</ele>
        <time>2017-03-02T09:29:12Z</time>
      </trkpt>
      <trkpt lat="45.74292" lon="4.3571">
        <ele>521</ele>
        <time>2017-03-02T09:29:13Z</time>
      </trkpt>
      <trkpt lat="45.74299" lon="4.35706">
        <ele>521</ele>
        <time>2017-03-02T09:29:18Z</time>
      </trkpt>
      <trkpt lat="45.743" lon="4.35705">
        <ele>520</ele>
        <time>2017-03-02T09:29:19Z</time>
      </trkpt>
      <trkpt lat="45.74308" lon="4.35701">
        <ele>520</ele>
        <time>2017-03-02T09:29:24Z</time>
      </trkpt>
      <trkpt lat="45.7431" lon="4.357">
        <ele>520</ele>
        <time>2017-03-02T09:29:25Z</time>
      </trkpt>
      <trkpt lat="45.74317" lon="4.35698">
        <ele>519</ele>
        <time>2017-03-02T09:29:30Z</time>
      </trkpt>
      <trkpt lat="45.74319" lon="4.35697">
        <ele>519</ele>
        <time>2017-03-02T09:29:31Z</time>
      </trkpt>
      <trkpt lat="45.74327" lon="4.35695">
        <ele>519</ele>
        <time>2017-03-02T09:29:39Z</time>
      </trkpt>
      <trkpt lat="45.74328" lon="4.35694">
        <ele>518</ele>
        <time>2017-03-02T09:29:40Z</time>
      </trkpt>
      <trkpt lat="45.74336" lon="4.35691">
        <ele>515</ele>
        <time>2017-03-02T09:29:46Z</time>
      </trkpt>
      <trkpt lat="45.74338" lon="4.35691">
        <ele>515</ele>
        <time>2017-03-02T09:29:47Z</time>
      </trkpt>
      <trkpt lat="45.74346" lon="4.3569">
        <ele>515</ele>
        <time>2017-03-02T09:29:53Z</time>
      </trkpt>
      <trkpt lat="45.74347" lon="4.3569">
        <ele>515</ele>
        <time>2017-03-02T09:29:54Z</time>
      </trkpt>
      <trkpt lat="45.74355" lon="4.35689">
        <ele>515</ele>
        <time>2017-03-02T09:30:00Z</time>
      </trkpt>
      <trkpt lat="45.74357" lon="4.35688">
        <ele>515</ele>
        <time>2017-03-02T09:30:01Z</time>
      </trkpt>
      <trkpt lat="45.74364" lon="4.35684">
        <ele>514</ele>
        <time>2017-03-02T09:30:07Z</time>
      </trkpt>
      <trkpt lat="45.74366" lon="4.35683">
        <ele>514</ele>
        <time>2017-03-02T09:30:08Z</time>
      </trkpt>
      <trkpt lat="45.74373" lon="4.35677">
        <ele>514</ele>
        <time>2017-03-02T09:30:14Z</time>
      </trkpt>
      <trkpt lat="45.74374" lon="4.35677">
        <ele>514</ele>
        <time>2017-03-02T09:30:15Z</time>
      </trkpt>
      <trkpt lat="45.74382" lon="4.35672">
        <ele>514</ele>
        <time>2017-03-02T09:30:21Z</time>
      </trkpt>
      <trkpt lat="45.74382" lon="4.35671">
        <ele>514</ele>
        <time>2017-03-02T09:30:22Z</time>
      </trkpt>
      <trkpt lat="45.74388" lon="4.35662">
        <ele>511</ele>
        <time>2017-03-02T09:30:31Z</time>
      </trkpt>
      <trkpt lat="45.74389" lon="4.35661">
        <ele>511</ele>
        <time>2017-03-02T09:30:32Z</time>
      </trkpt>
      <trkpt lat="45.74395" lon="4.35653">
        <ele>511</ele>
        <time>2017-03-02T09:30:41Z</time>
      </trkpt>
      <trkpt lat="45.74397" lon="4.35652">
        <ele>511</ele>
        <time>2017-03-02T09:30:42Z</time>
      </trkpt>
      <trkpt lat="45.74405" lon="4.35647">
        <ele>511</ele>
        <time>2017-03-02T09:30:47Z</time>
      </trkpt>
      <trkpt lat="45.74406" lon="4.35646">
        <ele>511</ele>
        <time>2017-03-02T09:30:48Z</time>
      </trkpt>
      <trkpt lat="45.74414" lon="4.35641">
        <ele>511</ele>
        <time>2017-03-02T09:30:55Z</time>
      </trkpt>
      <trkpt lat="45.74415" lon="4.35641">
        <ele>511</ele>
        <time>2017-03-02T09:30:56Z</time>
      </trkpt>
      <trkpt lat="45.74422" lon="4.35636">
        <ele>514</ele>
        <time>2017-03-02T09:31:04Z</time>
      </trkpt>
      <trkpt lat="45.74423" lon="4.35635">
        <ele>514</ele>
        <time>2017-03-02T09:31:05Z</time>
      </trkpt>
      <trkpt lat="45.74431" lon="4.3563">
        <ele>514</ele>
        <time>2017-03-02T09:31:14Z</time>
      </trkpt>
      <trkpt lat="45.74432" lon="4.35629">
        <ele>514</ele>
        <time>2017-03-02T09:31:15Z</time>
      </trkpt>
      <trkpt lat="45.74439" lon="4.35624">
        <ele>515</ele>
        <time>2017-03-02T09:31:22Z</time>
      </trkpt>
      <trkpt lat="45.74441" lon="4.35624">
        <ele>515</ele>
        <time>2017-03-02T09:31:23Z</time>
      </trkpt>
      <trkpt lat="45.74448" lon="4.35619">
        <ele>515</ele>
        <time>2017-03-02T09:31:30Z</time>
      </trkpt>
      <trkpt lat="45.74449" lon="4.35619">
        <ele>515</ele>
        <time>2017-03-02T09:31:31Z</time>
      </trkpt>
      <trkpt lat="45.74457" lon="4.35615">
        <ele>516</ele>
        <time>2017-03-02T09:31:38Z</time>
      </trkpt>
      <trkpt lat="45.74458" lon="4.35615">
        <ele>516</ele>
        <time>2017-03-02T09:31:39Z</time>
      </trkpt>
      <trkpt lat="45.74467" lon="4.35609">
        <ele>516</ele>
        <time>2017-03-02T09:31:46Z</time>
      </trkpt>
      <trkpt lat="45.74467" lon="4.35609">
        <ele>516</ele>
        <time>2017-03-02T09:31:47Z</time>
      </trkpt>
      <trkpt lat="45.74474" lon="4.356">
        <ele>517</ele>
        <time>2017-03-02T09:31:54Z</time>
      </trkpt>
      <trkpt lat="45.74474" lon="4.35599">
        <ele>517</ele>
        <time>2017-03-02T09:31:55Z</time>
      </trkpt>
      <trkpt lat="45.74481" lon="4.35591">
        <ele>518</ele>
        <time>2017-03-02T09:32:01Z</time>
      </trkpt>
      <trkpt lat="45.74482" lon="4.35589">
        <ele>518</ele>
        <time>2017-03-02T09:32:02Z</time>
      </trkpt>
      <trkpt lat="45.74488" lon="4.3558">
        <ele>520</ele>
        <time>2017-03-02T09:32:08Z</time>
      </trkpt>
      <trkpt lat="45.74489" lon="4.35579">
        <ele>520</ele>
        <time>2017-03-02T09:32:09Z</time>
      </trkpt>
      <trkpt lat="45.74494" lon="4.35571">
        <ele>520</ele>
        <time>2017-03-02T09:32:15Z</time>
      </trkpt>
      <trkpt lat="45.74495" lon="4.35569">
        <ele>520</ele>
        <time>2017-03-02T09:32:16Z</time>
      </trkpt>
      <trkpt lat="45.74501" lon="4.3556">
        <ele>523</ele>
        <time>2017-03-02T09:32:24Z</time>
      </trkpt>
      <trkpt lat="45.74502" lon="4.35559">
        <ele>523</ele>
        <time>2017-03-02T09:32:25Z</time>
      </trkpt>
      <trkpt lat="45.74507" lon="4.35549">
        <ele>524</ele>
        <time>2017-03-02T09:32:32Z</time>
      </trkpt>
      <trkpt lat="45.74508" lon="4.35548">
        <ele>524</ele>
        <time>2017-03-02T09:32:33Z</time>
      </trkpt>
      <trkpt lat="45.74515" lon="4.3554">
        <ele>524</ele>
        <time>2017-03-02T09:32:40Z</time>
      </trkpt>
      <trkpt lat="45.74516" lon="4.35539">
        <ele>524</ele>
        <time>2017-03-02T09:32:41Z</time>
      </trkpt>
      <trkpt lat="45.74523" lon="4.35531">
        <ele>525</ele>
        <time>2017-03-02T09:32:51Z</time>
      </trkpt>
      <trkpt lat="45.74524" lon="4.3553">
        <ele>525</ele>
        <time>2017-03-02T09:32:52Z</time>
      </trkpt>
      <trkpt lat="45.7453" lon="4.35524">
        <ele>525</ele>
        <time>2017-03-02T09:32:59Z</time>
      </trkpt>
      <trkpt lat="45.74531" lon="4.35523">
        <ele>525</ele>
        <time>2017-03-02T09:33:00Z</time>
      </trkpt>
      <trkpt lat="45.74537" lon="4.35513">
        <ele>525</ele>
        <time>2017-03-02T09:33:09Z</time>
      </trkpt>
      <trkpt lat="45.74538" lon="4.35513">
        <ele>525</ele>
        <time>2017-03-02T09:33:10Z</time>
      </trkpt>
      <trkpt lat="45.74545" lon="4.35506">
        <ele>526</ele>
        <time>2017-03-02T09:33:16Z</time>
      </trkpt>
      <trkpt lat="45.74546" lon="4.35505">
        <ele>526</ele>
        <time>2017-03-02T09:33:17Z</time>
      </trkpt>
      <trkpt lat="45.74553" lon="4.35498">
        <ele>529</ele>
        <time>2017-03-02T09:33:22Z</time>
      </trkpt>
      <trkpt lat="45.74554" lon="4.35497">
        <ele>529</ele>
        <time>2017-03-02T09:33:23Z</time>
      </trkpt>
      <trkpt lat="45.7456" lon="4.35488">
        <ele>529</ele>
        <time>2017-03-02T09:33:30Z</time>
      </trkpt>
      <trkpt lat="45.74561" lon="4.35487">
        <ele>529</ele>
        <time>2017-03-02T09:33:31Z</time>
      </trkpt>
      <trkpt lat="45.74567" lon="4.3548">
        <ele>530</ele>
        <time>2017-03-02T09:33:38Z</time>
      </trkpt>
      <trkpt lat="45.74568" lon="4.35479">
        <ele>530</ele>
        <time>2017-03-02T09:33:39Z</time>
      </trkpt>
      <trkpt lat="45.74576" lon="4.35472">
        <ele>530</ele>
        <time>2017-03-02T09:33:47Z</time>
      </trkpt>
      <trkpt lat="45.74577" lon="4.35471">
        <ele>530</ele>
        <time>2017-03-02T09:33:48Z</time>
      </trkpt>
      <trkpt lat="45.74582" lon="4.35462">
        <ele>530</ele>
        <time>2017-03-02T09:33:57Z</time>
      </trkpt>
      <trkpt lat="45.74583" lon="4.3546">
        <ele>531</ele>
        <time>2017-03-02T09:33:58Z</time>
      </trkpt>
      <trkpt lat="45.74591" lon="4.35454">
        <ele>535</ele>
        <time>2017-03-02T09:34:04Z</time>
      </trkpt>
      <trkpt lat="45.74592" lon="4.35453">
        <ele>535</ele>
        <time>2017-03-02T09:34:05Z</time>
      </trkpt>
      <trkpt lat="45.74597" lon="4.35443">
        <ele>535</ele>
        <time>2017-03-02T09:34:13Z</time>
      </trkpt>
      <trkpt lat="45.74597" lon="4.35441">
        <ele>535</ele>
        <time>2017-03-02T09:34:14Z</time>
      </trkpt>
      <trkpt lat="45.74604" lon="4.35435">
        <ele>536</ele>
        <time>2017-03-02T09:34:24Z</time>
      </trkpt>
      <trkpt lat="45.74605" lon="4.35434">
        <ele>536</ele>
        <time>2017-03-02T09:34:25Z</time>
      </trkpt>
      <trkpt lat="45.74611" lon="4.35427">
        <ele>536</ele>
        <time>2017-03-02T09:34:31Z</time>
      </trkpt>
      <trkpt lat="45.74612" lon="4.35426">
        <ele>536</ele>
        <time>2017-03-02T09:34:32Z</time>
      </trkpt>
      <trkpt lat="45.74618" lon="4.35418">
        <ele>536</ele>
        <time>2017-03-02T09:34:37Z</time>
      </trkpt>
      <trkpt lat="45.74619" lon="4.35416">
        <ele>539</ele>
        <time>2017-03-02T09:34:38Z</time>
      </trkpt>
      <trkpt lat="45.74625" lon="4.35408">
        <ele>539</ele>
        <time>2017-03-02T09:34:44Z</time>
      </trkpt>
      <trkpt lat="45.74625" lon="4.35407">
        <ele>539</ele>
        <time>2017-03-02T09:34:45Z</time>
      </trkpt>
      <trkpt lat="45.7463" lon="4.35396">
        <ele>540</ele>
        <time>2017-03-02T09:34:52Z</time>
      </trkpt>
      <trkpt lat="45.74631" lon="4.35395">
        <ele>540</ele>
        <time>2017-03-02T09:34:53Z</time>
      </trkpt>
      <trkpt lat="45.74635" lon="4.35387">
        <ele>540</ele>
        <time>2017-03-02T09:34:58Z</time>
      </trkpt>
      <trkpt lat="45.74637" lon="4.35385">
        <ele>540</ele>
        <time>2017-03-02T09:34:59Z</time>
      </trkpt>
      <trkpt lat="45.74644" lon="4.3538">
        <ele>540</ele>
        <time>2017-03-02T09:35:07Z</time>
      </trkpt>
      <trkpt lat="45.74645" lon="4.35379">
        <ele>541</ele>
        <time>2017-03-02T09:35:08Z</time>
      </trkpt>
      <trkpt lat="45.74652" lon="4.35375">
        <ele>541</ele>
        <time>2017-03-02T09:35:15Z</time>
      </trkpt>
      <trkpt lat="45.74654" lon="4.35374">
        <ele>541</ele>
        <time>2017-03-02T09:35:16Z</time>
      </trkpt>
      <trkpt lat="45.7466" lon="4.35366">
        <ele>541</ele>
        <time>2017-03-02T09:35:22Z</time>
      </trkpt>
      <trkpt lat="45.7466" lon="4.35365">
        <ele>541</ele>
        <time>2017-03-02T09:35:23Z</time>
      </trkpt>
      <trkpt lat="45.74666" lon="4.35356">
        <ele>542</ele>
        <time>2017-03-02T09:35:30Z</time>
      </trkpt>
      <trkpt lat="45.74666" lon="4.35355">
        <ele>542</ele>
        <time>2017-03-02T09:35:31Z</time>
      </trkpt>
      <trkpt lat="45.74672" lon="4.35345">
        <ele>546</ele>
        <time>2017-03-02T09:35:38Z</time>
      </trkpt>
      <trkpt lat="45.74672" lon="4.35343">
        <ele>546</ele>
        <time>2017-03-02T09:35:39Z</time>
      </trkpt>
      <trkpt lat="45.74677" lon="4.35334">
        <ele>546</ele>
        <time>2017-03-02T09:35:45Z</time>
      </trkpt>
      <trkpt lat="45.74678" lon="4.35333">
        <ele>546</ele>
        <time>2017-03-02T09:35:46Z</time>
      </trkpt>
      <trkpt lat="45.74682" lon="4.35324">
        <ele>547</ele>
        <time>2017-03-02T09:35:52Z</time>
      </trkpt>
      <trkpt lat="45.74683" lon="4.35322">
        <ele>547</ele>
        <time>2017-03-02T09:35:53Z</time>
      </trkpt>
      <trkpt lat="45.74689" lon="4.35314">
        <ele>547</ele>
        <time>2017-03-02T09:35:57Z</time>
      </trkpt>
      <trkpt lat="45.7469" lon="4.35312">
        <ele>548</ele>
        <time>2017-03-02T09:35:58Z</time>
      </trkpt>
      <trkpt lat="45.74696" lon="4.35303">
        <ele>548</ele>
        <time>2017-03-02T09:36:04Z</time>
      </trkpt>
      <trkpt lat="45.74697" lon="4.35302">
        <ele>548</ele>
        <time>2017-03-02T09:36:05Z</time>
      </trkpt>
      <trkpt lat="45.74702" lon="4.35293">
        <ele>548</ele>
        <time>2017-03-02T09:36:11Z</time>
      </trkpt>
      <trkpt lat="45.74703" lon="4.35292">
        <ele>548</ele>
        <time>2017-03-02T09:36:12Z</time>
      </trkpt>
      <trkpt lat="45.74709" lon="4.35282">
        <ele>549</ele>
        <time>2017-03-02T09:36:20Z</time>
      </trkpt>
      <trkpt lat="45.74709" lon="4.3528">
        <ele>549</ele>
        <time>2017-03-02T09:36:21Z</time>
      </trkpt>
      <trkpt lat="45.74714" lon="4.35271">
        <ele>549</ele>
        <time>2017-03-02T09:36:27Z</time>
      </trkpt>
      <trkpt lat="45.74715" lon="4.3527">
        <ele>549</ele>
        <time>2017-03-02T09:36:28Z</time>
      </trkpt>
      <trkpt lat="45.7472" lon="4.35261">
        <ele>549</ele>
        <time>2017-03-02T09:36:34Z</time>
      </trkpt>
      <trkpt lat="45.74721" lon="4.35259">
        <ele>549</ele>
        <time>2017-03-02T09:36:35Z</time>
      </trkpt>
      <trkpt lat="45.74726" lon="4.3525">
        <ele>549</ele>
        <time>2017-03-02T09:36:41Z</time>
      </trkpt>
      <trkpt lat="45.74726" lon="4.35248">
        <ele>549</ele>
        <time>2017-03-02T09:36:42Z</time>
      </trkpt>
      <trkpt lat="45.74731" lon="4.35238">
        <ele>549</ele>
        <time>2017-03-02T09:36:50Z</time>
      </trkpt>
      <trkpt lat="45.74732" lon="4.35237">
        <ele>549</ele>
        <time>2017-03-02T09:36:51Z</time>
      </trkpt>
      <trkpt lat="45.74737" lon="4.35227">
        <ele>549</ele>
        <time>2017-03-02T09:36:58Z</time>
      </trkpt>
      <trkpt lat="45.74738" lon="4.35225">
        <ele>549</ele>
        <time>2017-03-02T09:36:59Z</time>
      </trkpt>
      <trkpt lat="45.74743" lon="4.35215">
        <ele>549</ele>
        <time>2017-03-02T09:37:05Z</time>
      </trkpt>
      <trkpt lat="45.74743" lon="4.35214">
        <ele>549</ele>
        <time>2017-03-02T09:37:06Z</time>
      </trkpt>
      <trkpt lat="45.74748" lon="4.35204">
        <ele>548</ele>
        <time>2017-03-02T09:37:12Z</time>
      </trkpt>
      <trkpt lat="45.74749" lon="4.35203">
        <ele>548</ele>
        <time>2017-03-02T09:37:13Z</time>
      </trkpt>
      <trkpt lat="45.74756" lon="4.35207">
        <ele>553</ele>
        <time>2017-03-02T09:37:22Z</time>
      </trkpt>
      <trkpt lat="45.74757" lon="4.35208">
        <ele>553</ele>
        <time>2017-03-02T09:37:23Z</time>
      </trkpt>
      <trkpt lat="45.74758" lon="4.3522">
        <ele>553</ele>
        <time>2017-03-02T09:37:34Z</time>
      </trkpt>
      <trkpt lat="45.74758" lon="4.35222">
        <ele>553</ele>
        <time>2017-03-02T09:37:35Z</time>
      </trkpt>
      <trkpt lat="45.74761" lon="4.35234">
        <ele>553</ele>
        <time>2017-03-02T09:37:42Z</time>
      </trkpt>
      <trkpt lat="45.74762" lon="4.35236">
        <ele>553</ele>
        <time>2017-03-02T09:37:43Z</time>
      </trkpt>
      <trkpt lat="45.74765" lon="4.35247">
        <ele>553</ele>
        <time>2017-03-02T09:37:50Z</time>
      </trkpt>
      <trkpt lat="45.74765" lon="4.35248">
        <ele>553</ele>
        <time>2017-03-02T09:37:51Z</time>
      </trkpt>
      <trkpt lat="45.74768" lon="4.35259">
        <ele>553</ele>
        <time>2017-03-02T09:37:59Z</time>
      </trkpt>
      <trkpt lat="45.74768" lon="4.35261">
        <ele>553</ele>
        <time>2017-03-02T09:38:00Z</time>
      </trkpt>
      <trkpt lat="45.74772" lon="4.35272">
        <ele>553</ele>
        <time>2017-03-02T09:38:08Z</time>
      </trkpt>
      <trkpt lat="45.74772" lon="4.35273">
        <ele>553</ele>
        <time>2017-03-02T09:38:09Z</time>
      </trkpt>
      <trkpt lat="45.74778" lon="4.35283">
        <ele>553</ele>
        <time>2017-03-02T09:38:15Z</time>
      </trkpt>
      <trkpt lat="45.74778" lon="4.35285">
        <ele>553</ele>
        <time>2017-03-02T09:38:16Z</time>
      </trkpt>
      <trkpt lat="45.74783" lon="4.35295">
        <ele>553</ele>
        <time>2017-03-02T09:38:22Z</time>
      </trkpt>
      <trkpt lat="45.74784" lon="4.35296">
        <ele>553</ele>
        <time>2017-03-02T09:38:23Z</time>
      </trkpt>
      <trkpt lat="45.74788" lon="4.35306">
        <ele>553</ele>
        <time>2017-03-02T09:38:28Z</time>
      </trkpt>
      <trkpt lat="45.7479" lon="4.35307">
        <ele>553</ele>
        <time>2017-03-02T09:38:29Z</time>
      </trkpt>
      <trkpt lat="45.74795" lon="4.35315">
        <ele>553</ele>
        <time>2017-03-02T09:38:34Z</time>
      </trkpt>
      <trkpt lat="45.74796" lon="4.35317">
        <ele>553</ele>
        <time>2017-03-02T09:38:35Z</time>
      </trkpt>
      <trkpt lat="45.74801" lon="4.35326">
        <ele>553</ele>
        <time>2017-03-02T09:38:41Z</time>
      </trkpt>
      <trkpt lat="45.74802" lon="4.35327">
        <ele>553</ele>
        <time>2017-03-02T09:38:42Z</time>
      </trkpt>
      <trkpt lat="45.74807" lon="4.35336">
        <ele>551</ele>
        <time>2017-03-02T09:38:48Z</time>
      </trkpt>
      <trkpt lat="45.74808" lon="4.35337">
        <ele>551</ele>
        <time>2017-03-02T09:38:49Z</time>
      </trkpt>
      <trkpt lat="45.74815" lon="4.35346">
        <ele>551</ele>
        <time>2017-03-02T09:38:55Z</time>
      </trkpt>
      <trkpt lat="45.74816" lon="4.35347">
        <ele>551</ele>
        <time>2017-03-02T09:38:56Z</time>
      </trkpt>
      <trkpt lat="45.7482" lon="4.35357">
        <ele>551</ele>
        <time>2017-03-02T09:39:01Z</time>
      </trkpt>
      <trkpt lat="45.74821" lon="4.35358">
        <ele>551</ele>
        <time>2017-03-02T09:39:02Z</time>
      </trkpt>
      <trkpt lat="45.74824" lon="4.35368">
        <ele>551</ele>
        <time>2017-03-02T09:39:07Z</time>
      </trkpt>
      <trkpt lat="45.74825" lon="4.3537">
        <ele>551</ele>
        <time>2017-03-02T09:39:08Z</time>
      </trkpt>
      <trkpt lat="45.7483" lon="4.3538">
        <ele>551</ele>
        <time>2017-03-02T09:39:14Z</time>
      </trkpt>
      <trkpt lat="45.74831" lon="4.35382">
        <ele>551</ele>
        <time>2017-03-02T09:39:15Z</time>
      </trkpt>
      <trkpt lat="45.74835" lon="4.35391">
        <ele>551</ele>
        <time>2017-03-02T09:39:21Z</time>
      </trkpt>
      <trkpt lat="45.74836" lon="4.35393">
        <ele>551</ele>
        <time>2017-03-02T09:39:22Z</time>
      </trkpt>
      <trkpt lat="45.74841" lon="4.35402">
        <ele>552</ele>
        <time>2017-03-02T09:39:28Z</time>
      </trkpt>
      <trkpt lat="45.74842" lon="4.35404">
        <ele>552</ele>
        <time>2017-03-02T09:39:29Z</time>
      </trkpt>
      <trkpt lat="45.74846" lon="4.35414">
        <ele>552</ele>
        <time>2017-03-02T09:39:35Z</time>
      </trkpt>
      <trkpt lat="45.74846" lon="4.35415">
        <ele>552</ele>
        <time>2017-03-02T09:39:36Z</time>
      </trkpt>
      <trkpt lat="45.7485" lon="4.35426">
        <ele>551</ele>
        <time>2017-03-02T09:39:43Z</time>
      </trkpt>
      <trkpt lat="45.7485" lon="4.35428">
        <ele>551</ele>
        <time>2017-03-02T09:39:44Z</time>
      </trkpt>
      <trkpt lat="45.74854" lon="4.35437">
        <ele>551</ele>
        <time>2017-03-02T09:39:50Z</time>
      </trkpt>
      <trkpt lat="45.74855" lon="4.35438">
        <ele>551</ele>
        <time>2017-03-02T09:39:51Z</time>
      </trkpt>
      <trkpt lat="45.7486" lon="4.35448">
        <ele>551</ele>
        <time>2017-03-02T09:39:57Z</time>
      </trkpt>
      <trkpt lat="45.7486" lon="4.35449">
        <ele>551</ele>
        <time>2017-03-02T09:39:58Z</time>
      </trkpt>
      <trkpt lat="45.74865" lon="4.3546">
        <ele>551</ele>
        <time>2017-03-02T09:40:05Z</time>
      </trkpt>
      <trkpt lat="45.74866" lon="4.35461">
        <ele>551</ele>
        <time>2017-03-02T09:40:06Z</time>
      </trkpt>
      <trkpt lat="45.74871" lon="4.35469">
        <ele>551</ele>
        <time>2017-03-02T09:40:11Z</time>
      </trkpt>
      <trkpt lat="45.74872" lon="4.35471">
        <ele>551</ele>
        <time>2017-03-02T09:40:12Z</time>
      </trkpt>
      <trkpt lat="45.74877" lon="4.35481">
        <ele>551</ele>
        <time>2017-03-02T09:40:18Z</time>
      </trkpt>
      <trkpt lat="45.74877" lon="4.35483">
        <ele>551</ele>
        <time>2017-03-02T09:40:19Z</time>
      </trkpt>
      <trkpt lat="45.74881" lon="4.35494">
        <ele>551</ele>
        <time>2017-03-02T09:40:25Z</time>
      </trkpt>
      <trkpt lat="45.74882" lon="4.35496">
        <ele>551</ele>
        <time>2017-03-02T09:40:26Z</time>
      </trkpt>
      <trkpt lat="45.74886" lon="4.35505">
        <ele>551</ele>
        <time>2017-03-02T09:40:31Z</time>
      </trkpt>
      <trkpt lat="45.74887" lon="4.35507">
        <ele>551</ele>
        <time>2017-03-02T09:40:32Z</time>
      </trkpt>
      <trkpt lat="45.74892" lon="4.35517">
        <ele>551</ele>
        <time>2017-03-02T09:40:38Z</time>
      </trkpt>
      <trkpt lat="45.74892" lon="4.35519">
        <ele>551</ele>
        <time>2017-03-02T09:40:39Z</time>
      </trkpt>
      <trkpt lat="45.74896" lon="4.35529">
        <ele>551</ele>
        <time>2017-03-02T09:40:45Z</time>
      </trkpt>
      <trkpt lat="45.74896" lon="4.35531">
        <ele>551</ele>
        <time>2017-03-02T09:40:46Z</time>
      </trkpt>
      <trkpt lat="45.749" lon="4.35542">
        <ele>551</ele>
        <time>2017-03-02T09:40:51Z</time>
      </trkpt>
      <trkpt lat="45.74901" lon="4.35544">
        <ele>551</ele>
        <time>2017-03-02T09:40:52Z</time>
      </trkpt>
      <trkpt lat="45.74904" lon="4.35554">
        <ele>551</ele>
        <time>2017-03-02T09:40:58Z</time>
      </trkpt>
      <trkpt lat="45.74905" lon="4.35555">
        <ele>551</ele>
        <time>2017-03-02T09:40:59Z</time>
      </trkpt>
      <trkpt lat="45.74912" lon="4.35563">
        <ele>551</ele>
        <time>2017-03-02T09:41:05Z</time>
      </trkpt>
      <trkpt lat="45.74913" lon="4.35565">
        <ele>551</ele>
        <time>2017-03-02T09:41:06Z</time>
      </trkpt>
      <trkpt lat="45.74919" lon="4.35574">
        <ele>553</ele>
        <time>2017-03-02T09:41:12Z</time>
      </trkpt>
      <trkpt lat="45.74919" lon="4.35575">
        <ele>553</ele>
        <time>2017-03-02T09:41:13Z</time>
      </trkpt>
      <trkpt lat="45.74923" lon="4.35586">
        <ele>553</ele>
        <time>2017-03-02T09:41:20Z</time>
      </trkpt>
      <trkpt lat="45.74923" lon="4.35588">
        <ele>553</ele>
        <time>2017-03-02T09:41:21Z</time>
      </trkpt>
      <trkpt lat="45.74926" lon="4.35598">
        <ele>553</ele>
        <time>2017-03-02T09:41:26Z</time>
      </trkpt>
      <trkpt lat="45.74926" lon="4.356">
        <ele>554</ele>
        <time>2017-03-02T09:41:27Z</time>
      </trkpt>
      <trkpt lat="45.74929" lon="4.3561">
        <ele>554</ele>
        <time>2017-03-02T09:41:33Z</time>
      </trkpt>
      <trkpt lat="45.7493" lon="4.35612">
        <ele>554</ele>
        <time>2017-03-02T09:41:34Z</time>
      </trkpt>
      <trkpt lat="45.74935" lon="4.35621">
        <ele>554</ele>
        <time>2017-03-02T09:41:42Z</time>
      </trkpt>
      <trkpt lat="45.74936" lon="4.35622">
        <ele>554</ele>
        <time>2017-03-02T09:41:43Z</time>
      </trkpt>
      <trkpt lat="45.74942" lon="4.35629">
        <ele>554</ele>
        <time>2017-03-02T09:41:48Z</time>
      </trkpt>
      <trkpt lat="45.74943" lon="4.35631">
        <ele>554</ele>
        <time>2017-03-02T09:41:49Z</time>
      </trkpt>
      <trkpt lat="45.74947" lon="4.3564">
        <ele>554</ele>
        <time>2017-03-02T09:41:54Z</time>
      </trkpt>
      <trkpt lat="45.74948" lon="4.35642">
        <ele>554</ele>
        <time>2017-03-02T09:41:55Z</time>
      </trkpt>
      <trkpt lat="45.74951" lon="4.35652">
        <ele>554</ele>
        <time>2017-03-02T09:42:01Z</time>
      </trkpt>
      <trkpt lat="45.74952" lon="4.35654">
        <ele>554</ele>
        <time>2017-03-02T09:42:02Z</time>
      </trkpt>
      <trkpt lat="45.74956" lon="4.35663">
        <ele>555</ele>
        <time>2017-03-02T09:42:07Z</time>
      </trkpt>
      <trkpt lat="45.74957" lon="4.35665">
        <ele>555</ele>
        <time>2017-03-02T09:42:08Z</time>
      </trkpt>
      <trkpt lat="45.74962" lon="4.35676">
        <ele>555</ele>
        <time>2017-03-02T09:42:15Z</time>
      </trkpt>
      <trkpt lat="45.74962" lon="4.35677">
        <ele>555</ele>
        <time>2017-03-02T09:42:16Z</time>
      </trkpt>
      <trkpt lat="45.74967" lon="4.35686">
        <ele>555</ele>
        <time>2017-03-02T09:42:22Z</time>
      </trkpt>
      <trkpt lat="45.74967" lon="4.35688">
        <ele>555</ele>
        <time>2017-03-02T09:42:23Z</time>
      </trkpt>
      <trkpt lat="45.7497" lon="4.357">
        <ele>555</ele>
        <time>2017-03-02T09:42:29Z</time>
      </trkpt>
      <trkpt lat="45.7497" lon="4.35702">
        <ele>555</ele>
        <time>2017-03-02T09:42:30Z</time>
      </trkpt>
      <trkpt lat="45.74973" lon="4.35713">
        <ele>556</ele>
        <time>2017-03-02T09:42:36Z</time>
      </trkpt>
      <trkpt lat="45.74973" lon="4.35715">
        <ele>556</ele>
        <time>2017-03-02T09:42:37Z</time>
      </trkpt>
      <trkpt lat="45.74976" lon="4.35726">
        <ele>556</ele>
        <time>2017-03-02T09:42:43Z</time>
      </trkpt>
      <trkpt lat="45.74977" lon="4.35728">
        <ele>556</ele>
        <time>2017-03-02T09:42:44Z</time>
      </trkpt>
      <trkpt lat="45.74981" lon="4.35738">
        <ele>557</ele>
        <time>2017-03-02T09:42:49Z</time>
      </trkpt>
      <trkpt lat="45.74982" lon="4.35739">
        <ele>557</ele>
        <time>2017-03-02T09:42:50Z</time>
      </trkpt>
      <trkpt lat="45.74986" lon="4.3575">
        <ele>558</ele>
        <time>2017-03-02T09:42:57Z</time>
      </trkpt>
      <trkpt lat="45.74986" lon="4.35752">
        <ele>558</ele>
        <time>2017-03-02T09:42:58Z</time>
      </trkpt>
      <trkpt lat="45.74988" lon="4.35762">
        <ele>558</ele>
        <time>2017-03-02T09:43:03Z</time>
      </trkpt>
      <trkpt lat="45.74989" lon="4.35765">
        <ele>558</ele>
        <time>2017-03-02T09:43:04Z</time>
      </trkpt>
      <trkpt lat="45.74991" lon="4.35776">
        <ele>558</ele>
        <time>2017-03-02T09:43:09Z</time>
      </trkpt>
      <trkpt lat="45.74991" lon="4.35779">
        <ele>558</ele>
        <time>2017-03-02T09:43:10Z</time>
      </trkpt>
      <trkpt lat="45.74991" lon="4.35791">
        <ele>558</ele>
        <time>2017-03-02T09:43:16Z</time>
      </trkpt>
      <trkpt lat="45.74991" lon="4.35792">
        <ele>558</ele>
        <time>2017-03-02T09:43:17Z</time>
      </trkpt>
      <trkpt lat="45.74995" lon="4.35804">
        <ele>558</ele>
        <time>2017-03-02T09:43:24Z</time>
      </trkpt>
      <trkpt lat="45.74995" lon="4.35806">
        <ele>558</ele>
        <time>2017-03-02T09:43:25Z</time>
      </trkpt>
      <trkpt lat="45.75" lon="4.35815">
        <ele>561</ele>
        <time>2017-03-02T09:43:31Z</time>
      </trkpt>
      <trkpt lat="45.75001" lon="4.35817">
        <ele>561</ele>
        <time>2017-03-02T09:43:32Z</time>
      </trkpt>
      <trkpt lat="45.75007" lon="4.35826">
        <ele>561</ele>
        <time>2017-03-02T09:43:38Z</time>
      </trkpt>
      <trkpt lat="45.75008" lon="4.35828">
        <ele>561</ele>
        <time>2017-03-02T09:43:39Z</time>
      </trkpt>
      <trkpt lat="45.75004" lon="4.35839">
        <ele>561</ele>
        <time>2017-03-02T09:43:50Z</time>
      </trkpt>
      <trkpt lat="45.75003" lon="4.35839">
        <ele>561</ele>
        <time>2017-03-02T09:43:51Z</time>
      </trkpt>
      <trkpt lat="45.75011" lon="4.35835">
        <ele>561</ele>
        <time>2017-03-02T09:44:40Z</time>
      </trkpt>
      <trkpt lat="45.75012" lon="4.35834">
        <ele>561</ele>
        <time>2017-03-02T09:44:41Z</time>
      </trkpt>
      <trkpt lat="45.75019" lon="4.35841">
        <ele>561</ele>
        <time>2017-03-02T09:44:47Z</time>
      </trkpt>
      <trkpt lat="45.7502" lon="4.35842">
        <ele>561</ele>
        <time>2017-03-02T09:44:48Z</time>
      </trkpt>
      <trkpt lat="45.75025" lon="4.3585">
        <ele>561</ele>
        <time>2017-03-02T09:44:54Z</time>
      </trkpt>
      <trkpt lat="45.75026" lon="4.35852">
        <ele>561</ele>
        <time>2017-03-02T09:44:55Z</time>
      </trkpt>
      <trkpt lat="45.75032" lon="4.35861">
        <ele>561</ele>
        <time>2017-03-02T09:45:01Z</time>
      </trkpt>
      <trkpt lat="45.75032" lon="4.35863">
        <ele>561</ele>
        <time>2017-03-02T09:45:02Z</time>
      </trkpt>
      <trkpt lat="45.75039" lon="4.35871">
        <ele>561</ele>
        <time>2017-03-02T09:45:08Z</time>
      </trkpt>
      <trkpt lat="45.75041" lon="4.35872">
        <ele>561</ele>
        <time>2017-03-02T09:45:09Z</time>
      </trkpt>
      <trkpt lat="45.75047" lon="4.35878">
        <ele>561</ele>
        <time>2017-03-02T09:45:15Z</time>
      </trkpt>
      <trkpt lat="45.75048" lon="4.3588">
        <ele>561</ele>
        <time>2017-03-02T09:45:16Z</time>
      </trkpt>
      <trkpt lat="45.75054" lon="4.35888">
        <ele>561</ele>
        <time>2017-03-02T09:45:22Z</time>
      </trkpt>
      <trkpt lat="45.75056" lon="4.35889">
        <ele>561</ele>
        <time>2017-03-02T09:45:23Z</time>
      </trkpt>
      <trkpt lat="45.75064" lon="4.35893">
        <ele>561</ele>
        <time>2017-03-02T09:45:28Z</time>
      </trkpt>
      <trkpt lat="45.75065" lon="4.35893">
        <ele>561</ele>
        <time>2017-03-02T09:45:29Z</time>
      </trkpt>
      <trkpt lat="45.75073" lon="4.35898">
        <ele>561</ele>
        <time>2017-03-02T09:45:35Z</time>
      </trkpt>
      <trkpt lat="45.75074" lon="4.35899">
        <ele>561</ele>
        <time>2017-03-02T09:45:36Z</time>
      </trkpt>
      <trkpt lat="45.75081" lon="4.35904">
        <ele>562</ele>
        <time>2017-03-02T09:45:41Z</time>
      </trkpt>
      <trkpt lat="45.75082" lon="4.35904">
        <ele>562</ele>
        <time>2017-03-02T09:45:42Z</time>
      </trkpt>
      <trkpt lat="45.7509" lon="4.35909">
        <ele>562</ele>
        <time>2017-03-02T09:45:48Z</time>
      </trkpt>
      <trkpt lat="45.75091" lon="4.35909">
        <ele>562</ele>
        <time>2017-03-02T09:45:49Z</time>
      </trkpt>
      <trkpt lat="45.75099" lon="4.35911">
        <ele>563</ele>
        <time>2017-03-02T09:45:55Z</time>
      </trkpt>
      <trkpt lat="45.75101" lon="4.35911">
        <ele>563</ele>
        <time>2017-03-02T09:45:56Z</time>
      </trkpt>
      <trkpt lat="45.75109" lon="4.35914">
        <ele>563</ele>
        <time>2017-03-02T09:46:03Z</time>
      </trkpt>
      <trkpt lat="45.7511" lon="4.35914">
        <ele>563</ele>
        <time>2017-03-02T09:46:04Z</time>
      </trkpt>
      <trkpt lat="45.75118" lon="4.35919">
        <ele>563</ele>
        <time>2017-03-02T09:46:11Z</time>
      </trkpt>
      <trkpt lat="45.75119" lon="4.3592">
        <ele>563</ele>
        <time>2017-03-02T09:46:12Z</time>
      </trkpt>
      <trkpt lat="45.75116" lon="4.35932">
        <ele>563</ele>
        <time>2017-03-02T09:50:18Z</time>
      </trkpt>
      <trkpt lat="45.75116" lon="4.35934">
        <ele>563</ele>
        <time>2017-03-02T09:50:19Z</time>
      </trkpt>
      <trkpt lat="45.75115" lon="4.35946">
        <ele>563</ele>
        <time>2017-03-02T09:50:26Z</time>
      </trkpt>
      <trkpt lat="45.75115" lon="4.35947">
        <ele>564</ele>
        <time>2017-03-02T09:50:27Z</time>
      </trkpt>
      <trkpt lat="45.75114" lon="4.35959">
        <ele>564</ele>
        <time>2017-03-02T09:50:34Z</time>
      </trkpt>
      <trkpt lat="45.75113" lon="4.3596">
        <ele>564</ele>
        <time>2017-03-02T09:50:35Z</time>
      </trkpt>
      <trkpt lat="45.75109" lon="4.35972">
        <ele>563</ele>
        <time>2017-03-02T09:50:42Z</time>
      </trkpt>
      <trkpt lat="45.75109" lon="4.35973">
        <ele>563</ele>
        <time>2017-03-02T09:50:43Z</time>
      </trkpt>
      <trkpt lat="45.75106" lon="4.35985">
        <ele>563</ele>
        <time>2017-03-02T09:50:49Z</time>
      </trkpt>
      <trkpt lat="45.75106" lon="4.35987">
        <ele>563</ele>
        <time>2017-03-02T09:50:50Z</time>
      </trkpt>
      <trkpt lat="45.75103" lon="4.35998">
        <ele>563</ele>
        <time>2017-03-02T09:50:56Z</time>
      </trkpt>
      <trkpt lat="45.75103" lon="4.36">
        <ele>563</ele>
        <time>2017-03-02T09:50:57Z</time>
      </trkpt>
      <trkpt lat="45.75102" lon="4.36011">
        <ele>563</ele>
        <time>2017-03-02T09:51:03Z</time>
      </trkpt>
      <trkpt lat="45.75102" lon="4.36013">
        <ele>563</ele>
        <time>2017-03-02T09:51:04Z</time>
      </trkpt>
      <trkpt lat="45.751" lon="4.36024">
        <ele>563</ele>
        <time>2017-03-02T09:51:10Z</time>
      </trkpt>
      <trkpt lat="45.751" lon="4.36026">
        <ele>563</ele>
        <time>2017-03-02T09:51:11Z</time>
      </trkpt>
      <trkpt lat="45.75098" lon="4.36038">
        <ele>563</ele>
        <time>2017-03-02T09:51:18Z</time>
      </trkpt>
      <trkpt lat="45.75097" lon="4.3604">
        <ele>563</ele>
        <time>2017-03-02T09:51:19Z</time>
      </trkpt>
      <trkpt lat="45.75093" lon="4.36049">
        <ele>562</ele>
        <time>2017-03-02T09:51:25Z</time>
      </trkpt>
      <trkpt lat="45.75093" lon="4.36051">
        <ele>562</ele>
        <time>2017-03-02T09:51:26Z</time>
      </trkpt>
      <trkpt lat="45.75089" lon="4.36063">
        <ele>562</ele>
        <time>2017-03-02T09:51:33Z</time>
      </trkpt>
      <trkpt lat="45.75088" lon="4.36064">
        <ele>562</ele>
        <time>2017-03-02T09:51:34Z</time>
      </trkpt>
      <trkpt lat="45.75087" lon="4.36076">
        <ele>562</ele>
        <time>2017-03-02T09:51:41Z</time>
      </trkpt>
      <trkpt lat="45.75086" lon="4.36078">
        <ele>562</ele>
        <time>2017-03-02T09:51:42Z</time>
      </trkpt>
      <trkpt lat="45.75083" lon="4.3609">
        <ele>561</ele>
        <time>2017-03-02T09:51:48Z</time>
      </trkpt>
      <trkpt lat="45.75083" lon="4.36092">
        <ele>561</ele>
        <time>2017-03-02T09:51:49Z</time>
      </trkpt>
      <trkpt lat="45.75078" lon="4.36102">
        <ele>561</ele>
        <time>2017-03-02T09:51:55Z</time>
      </trkpt>
      <trkpt lat="45.75077" lon="4.36104">
        <ele>561</ele>
        <time>2017-03-02T09:51:56Z</time>
      </trkpt>
      <trkpt lat="45.75073" lon="4.36114">
        <ele>560</ele>
        <time>2017-03-02T09:52:02Z</time>
      </trkpt>
      <trkpt lat="45.75072" lon="4.36116">
        <ele>560</ele>
        <time>2017-03-02T09:52:03Z</time>
      </trkpt>
      <trkpt lat="45.75071" lon="4.36127">
        <ele>560</ele>
        <time>2017-03-02T09:52:10Z</time>
      </trkpt>
      <trkpt lat="45.7507" lon="4.36129">
        <ele>560</ele>
        <time>2017-03-02T09:52:11Z</time>
      </trkpt>
      <trkpt lat="45.75068" lon="4.36141">
        <ele>560</ele>
        <time>2017-03-02T09:52:18Z</time>
      </trkpt>
      <trkpt lat="45.75067" lon="4.36142">
        <ele>560</ele>
        <time>2017-03-02T09:52:19Z</time>
      </trkpt>
      <trkpt lat="45.75063" lon="4.36154">
        <ele>560</ele>
        <time>2017-03-02T09:52:26Z</time>
      </trkpt>
      <trkpt lat="45.75063" lon="4.36155">
        <ele>560</ele>
        <time>2017-03-02T09:52:27Z</time>
      </trkpt>
      <trkpt lat="45.75062" lon="4.36167">
        <ele>558</ele>
        <time>2017-03-02T09:52:34Z</time>
      </trkpt>
      <trkpt lat="45.75061" lon="4.36169">
        <ele>558</ele>
        <time>2017-03-02T09:52:35Z</time>
      </trkpt>
      <trkpt lat="45.75059" lon="4.36181">
        <ele>558</ele>
        <time>2017-03-02T09:52:41Z</time>
      </trkpt>
      <trkpt lat="45.75058" lon="4.36183">
        <ele>558</ele>
        <time>2017-03-02T09:52:42Z</time>
      </trkpt>
      <trkpt lat="45.75055" lon="4.36194">
        <ele>557</ele>
        <time>2017-03-02T09:52:48Z</time>
      </trkpt>
      <trkpt lat="45.75055" lon="4.36196">
        <ele>557</ele>
        <time>2017-03-02T09:52:49Z</time>
      </trkpt>
      <trkpt lat="45.75051" lon="4.36207">
        <ele>557</ele>
        <time>2017-03-02T09:52:56Z</time>
      </trkpt>
      <trkpt lat="45.75051" lon="4.36209">
        <ele>557</ele>
        <time>2017-03-02T09:52:57Z</time>
      </trkpt>
      <trkpt lat="45.75048" lon="4.3622">
        <ele>557</ele>
        <time>2017-03-02T09:53:04Z</time>
      </trkpt>
      <trkpt lat="45.75047" lon="4.36222">
        <ele>557</ele>
        <time>2017-03-02T09:53:05Z</time>
      </trkpt>
      <trkpt lat="45.75044" lon="4.36233">
        <ele>557</ele>
        <time>2017-03-02T09:53:11Z</time>
      </trkpt>
      <trkpt lat="45.75044" lon="4.36235">
        <ele>557</ele>
        <time>2017-03-02T09:53:12Z</time>
      </trkpt>
      <trkpt lat="45.7504" lon="4.36244">
        <ele>557</ele>
        <time>2017-03-02T09:53:17Z</time>
      </trkpt>
      <trkpt lat="45.75039" lon="4.36247">
        <ele>557</ele>
        <time>2017-03-02T09:53:18Z</time>
      </trkpt>
      <trkpt lat="45.75036" lon="4.36258">
        <ele>553</ele>
        <time>2017-03-02T09:53:24Z</time>
      </trkpt>
      <trkpt lat="45.75036" lon="4.3626">
        <ele>553</ele>
        <time>2017-03-02T09:53:25Z</time>
      </trkpt>
      <trkpt lat="45.75034" lon="4.36271">
        <ele>553</ele>
        <time>2017-03-02T09:53:31Z</time>
      </trkpt>
      <trkpt lat="45.75034" lon="4.36273">
        <ele>553</ele>
        <time>2017-03-02T09:53:32Z</time>
      </trkpt>
      <trkpt lat="45.7503" lon="4.36284">
        <ele>552</ele>
        <time>2017-03-02T09:53:39Z</time>
      </trkpt>
      <trkpt lat="45.7503" lon="4.36285">
        <ele>552</ele>
        <time>2017-03-02T09:53:40Z</time>
      </trkpt>
      <trkpt lat="45.75026" lon="4.36295">
        <ele>552</ele>
        <time>2017-03-02T09:53:46Z</time>
      </trkpt>
      <trkpt lat="45.75025" lon="4.36297">
        <ele>552</ele>
        <time>2017-03-02T09:53:47Z</time>
      </trkpt>
      <trkpt lat="45.75022" lon="4.36306">
        <ele>551</ele>
        <time>2017-03-02T09:53:52Z</time>
      </trkpt>
      <trkpt lat="45.75021" lon="4.36308">
        <ele>551</ele>
        <time>2017-03-02T09:53:53Z</time>
      </trkpt>
      <trkpt lat="45.75017" lon="4.36319">
        <ele>551</ele>
        <time>2017-03-02T09:53:58Z</time>
      </trkpt>
      <trkpt lat="45.75016" lon="4.36321">
        <ele>551</ele>
        <time>2017-03-02T09:53:59Z</time>
      </trkpt>
      <trkpt lat="45.75016" lon="4.36333">
        <ele>550</ele>
        <time>2017-03-02T09:54:05Z</time>
      </trkpt>
      <trkpt lat="45.75016" lon="4.36334">
        <ele>548</ele>
        <time>2017-03-02T09:54:06Z</time>
      </trkpt>
      <trkpt lat="45.75015" lon="4.36345">
        <ele>547</ele>
        <time>2017-03-02T09:54:11Z</time>
      </trkpt>
      <trkpt lat="45.75015" lon="4.36347">
        <ele>547</ele>
        <time>2017-03-02T09:54:12Z</time>
      </trkpt>
      <trkpt lat="45.75012" lon="4.36359">
        <ele>547</ele>
        <time>2017-03-02T09:54:18Z</time>
      </trkpt>
      <trkpt lat="45.75012" lon="4.36361">
        <ele>547</ele>
        <time>2017-03-02T09:54:19Z</time>
      </trkpt>
      <trkpt lat="45.7501" lon="4.36372">
        <ele>546</ele>
        <time>2017-03-02T09:54:26Z</time>
      </trkpt>
      <trkpt lat="45.75009" lon="4.36374">
        <ele>546</ele>
        <time>2017-03-02T09:54:27Z</time>
      </trkpt>
      <trkpt lat="45.75004" lon="4.36383">
        <ele>546</ele>
        <time>2017-03-02T09:54:33Z</time>
      </trkpt>
      <trkpt lat="45.75003" lon="4.36384">
        <ele>546</ele>
        <time>2017-03-02T09:54:34Z</time>
      </trkpt>
      <trkpt lat="45.75" lon="4.36394">
        <ele>545</ele>
        <time>2017-03-02T09:54:40Z</time>
      </trkpt>
      <trkpt lat="45.74999" lon="4.36396">
        <ele>545</ele>
        <time>2017-03-02T09:54:41Z</time>
      </trkpt>
      <trkpt lat="45.74994" lon="4.36406">
        <ele>545</ele>
        <time>2017-03-02T09:54:48Z</time>
      </trkpt>
      <trkpt lat="45.74993" lon="4.36408">
        <ele>545</ele>
        <time>2017-03-02T09:54:49Z</time>
      </trkpt>
      <trkpt lat="45.7499" lon="4.36418">
        <ele>542</ele>
        <time>2017-03-02T09:54:55Z</time>
      </trkpt>
      <trkpt lat="45.74989" lon="4.3642">
        <ele>542</ele>
        <time>2017-03-02T09:54:56Z</time>
      </trkpt>
      <trkpt lat="45.74984" lon="4.36429">
        <ele>540</ele>
        <time>2017-03-02T09:55:02Z</time>
      </trkpt>
      <trkpt lat="45.74983" lon="4.36431">
        <ele>540</ele>
        <time>2017-03-02T09:55:03Z</time>
      </trkpt>
      <trkpt lat="45.74978" lon="4.36442">
        <ele>539</ele>
        <time>2017-03-02T09:55:14Z</time>
      </trkpt>
      <trkpt lat="45.74978" lon="4.36442">
        <ele>539</ele>
        <time>2017-03-02T09:55:15Z</time>
      </trkpt>
      <trkpt lat="45.74972" lon="4.3645">
        <ele>538</ele>
        <time>2017-03-02T09:55:22Z</time>
      </trkpt>
      <trkpt lat="45.74971" lon="4.36452">
        <ele>538</ele>
        <time>2017-03-02T09:55:23Z</time>
      </trkpt>
      <trkpt lat="45.74967" lon="4.36462">
        <ele>537</ele>
        <time>2017-03-02T09:55:29Z</time>
      </trkpt>
      <trkpt lat="45.74967" lon="4.36464">
        <ele>537</ele>
        <time>2017-03-02T09:55:30Z</time>
      </trkpt>
      <trkpt lat="45.74962" lon="4.36474">
        <ele>536</ele>
        <time>2017-03-02T09:55:36Z</time>
      </trkpt>
      <trkpt lat="45.7496" lon="4.36475">
        <ele>536</ele>
        <time>2017-03-02T09:55:37Z</time>
      </trkpt>
      <trkpt lat="45.74955" lon="4.36483">
        <ele>536</ele>
        <time>2017-03-02T09:55:42Z</time>
      </trkpt>
      <trkpt lat="45.74954" lon="4.36485">
        <ele>535</ele>
        <time>2017-03-02T09:55:43Z</time>
      </trkpt>
      <trkpt lat="45.74948" lon="4.36493">
        <ele>535</ele>
        <time>2017-03-02T09:55:49Z</time>
      </trkpt>
      <trkpt lat="45.74947" lon="4.36495">
        <ele>535</ele>
        <time>2017-03-02T09:55:50Z</time>
      </trkpt>
      <trkpt lat="45.74943" lon="4.36504">
        <ele>530</ele>
        <time>2017-03-02T09:55:56Z</time>
      </trkpt>
      <trkpt lat="45.74942" lon="4.36506">
        <ele>530</ele>
        <time>2017-03-02T09:55:57Z</time>
      </trkpt>
      <trkpt lat="45.74939" lon="4.36517">
        <ele>530</ele>
        <time>2017-03-02T09:56:03Z</time>
      </trkpt>
      <trkpt lat="45.74939" lon="4.36518">
        <ele>530</ele>
        <time>2017-03-02T09:56:04Z</time>
      </trkpt>
      <trkpt lat="45.74932" lon="4.36526">
        <ele>529</ele>
        <time>2017-03-02T09:56:10Z</time>
      </trkpt>
      <trkpt lat="45.74931" lon="4.36528">
        <ele>529</ele>
        <time>2017-03-02T09:56:11Z</time>
      </trkpt>
      <trkpt lat="45.74926" lon="4.36534">
        <ele>529</ele>
        <time>2017-03-02T09:56:16Z</time>
      </trkpt>
      <trkpt lat="45.74924" lon="4.36536">
        <ele>529</ele>
        <time>2017-03-02T09:56:17Z</time>
      </trkpt>
      <trkpt lat="45.74919" lon="4.36545">
        <ele>529</ele>
        <time>2017-03-02T09:56:22Z</time>
      </trkpt>
      <trkpt lat="45.74918" lon="4.36546">
        <ele>529</ele>
        <time>2017-03-02T09:56:23Z</time>
      </trkpt>
      <trkpt lat="45.74914" lon="4.36557">
        <ele>525</ele>
        <time>2017-03-02T09:56:30Z</time>
      </trkpt>
      <trkpt lat="45.74913" lon="4.36559">
        <ele>525</ele>
        <time>2017-03-02T09:56:31Z</time>
      </trkpt>
      <trkpt lat="45.74908" lon="4.36569">
        <ele>525</ele>
        <time>2017-03-02T09:56:38Z</time>
      </trkpt>
      <trkpt lat="45.74908" lon="4.36571">
        <ele>525</ele>
        <time>2017-03-02T09:56:39Z</time>
      </trkpt>
      <trkpt lat="45.74903" lon="4.3658">
        <ele>525</ele>
        <time>2017-03-02T09:56:45Z</time>
      </trkpt>
      <trkpt lat="45.74902" lon="4.36582">
        <ele>524</ele>
        <time>2017-03-02T09:56:46Z</time>
      </trkpt>
      <trkpt lat="45.74898" lon="4.36591">
        <ele>521</ele>
        <time>2017-03-02T09:56:52Z</time>
      </trkpt>
      <trkpt lat="45.74897" lon="4.36593">
        <ele>521</ele>
        <time>2017-03-02T09:56:53Z</time>
      </trkpt>
      <trkpt lat="45.74895" lon="4.36605">
        <ele>520</ele>
        <time>2017-03-02T09:57:00Z</time>
      </trkpt>
      <trkpt lat="45.74894" lon="4.36606">
        <ele>520</ele>
        <time>2017-03-02T09:57:01Z</time>
      </trkpt>
      <trkpt lat="45.7489" lon="4.36618">
        <ele>519</ele>
        <time>2017-03-02T09:57:07Z</time>
      </trkpt>
      <trkpt lat="45.74889" lon="4.36619">
        <ele>519</ele>
        <time>2017-03-02T09:57:08Z</time>
      </trkpt>
      <trkpt lat="45.74885" lon="4.36629">
        <ele>519</ele>
        <time>2017-03-02T09:57:14Z</time>
      </trkpt>
      <trkpt lat="45.74885" lon="4.36631">
        <ele>518</ele>
        <time>2017-03-02T09:57:15Z</time>
      </trkpt>
      <trkpt lat="45.74882" lon="4.36643">
        <ele>518</ele>
        <time>2017-03-02T09:57:21Z</time>
      </trkpt>
      <trkpt lat="45.74881" lon="4.36644">
        <ele>518</ele>
        <time>2017-03-02T09:57:22Z</time>
      </trkpt>
      <trkpt lat="45.74876" lon="4.36654">
        <ele>518</ele>
        <time>2017-03-02T09:57:29Z</time>
      </trkpt>
      <trkpt lat="45.74876" lon="4.36656">
        <ele>518</ele>
        <time>2017-03-02T09:57:30Z</time>
      </trkpt>
      <trkpt lat="45.74872" lon="4.36667">
        <ele>517</ele>
        <time>2017-03-02T09:57:37Z</time>
      </trkpt>
      <trkpt lat="45.74872" lon="4.36668">
        <ele>514</ele>
        <time>2017-03-02T09:57:38Z</time>
      </trkpt>
      <trkpt lat="45.74869" lon="4.36679">
        <ele>513</ele>
        <time>2017-03-02T09:57:44Z</time>
      </trkpt>
      <trkpt lat="45.74869" lon="4.36681">
        <ele>513</ele>
        <time>2017-03-02T09:57:45Z</time>
      </trkpt>
      <trkpt lat="45.74868" lon="4.36693">
        <ele>513</ele>
        <time>2017-03-02T09:57:52Z</time>
      </trkpt>
      <trkpt lat="45.74868" lon="4.36695">
        <ele>513</ele>
        <time>2017-03-02T09:57:53Z</time>
      </trkpt>
      <trkpt lat="45.74868" lon="4.36707">
        <ele>513</ele>
        <time>2017-03-02T09:58:00Z</time>
      </trkpt>
      <trkpt lat="45.74868" lon="4.36708">
        <ele>513</ele>
        <time>2017-03-02T09:58:01Z</time>
      </trkpt>
      <trkpt lat="45.74869" lon="4.3672">
        <ele>512</ele>
        <time>2017-03-02T09:58:09Z</time>
      </trkpt>
      <trkpt lat="45.74869" lon="4.36721">
        <ele>512</ele>
        <time>2017-03-02T09:58:10Z</time>
      </trkpt>
      <trkpt lat="45.74868" lon="4.36734">
        <ele>512</ele>
        <time>2017-03-02T09:58:20Z</time>
      </trkpt>
      <trkpt lat="45.74868" lon="4.36735">
        <ele>512</ele>
        <time>2017-03-02T09:58:21Z</time>
      </trkpt>
      <trkpt lat="45.74865" lon="4.36746">
        <ele>512</ele>
        <time>2017-03-02T09:58:28Z</time>
      </trkpt>
      <trkpt lat="45.74864" lon="4.36748">
        <ele>512</ele>
        <time>2017-03-02T09:58:29Z</time>
      </trkpt>
      <trkpt lat="45.74857" lon="4.36756">
        <ele>506</ele>
        <time>2017-03-02T09:58:37Z</time>
      </trkpt>
      <trkpt lat="45.74857" lon="4.36757">
        <ele>506</ele>
        <time>2017-03-02T09:58:38Z</time>
      </trkpt>
      <trkpt lat="45.7485" lon="4.36764">
        <ele>506</ele>
        <time>2017-03-02T09:58:45Z</time>
      </trkpt>
      <trkpt lat="45.74849" lon="4.36765">
        <ele>506</ele>
        <time>2017-03-02T09:58:46Z</time>
      </trkpt>
      <trkpt lat="45.74841" lon="4.36769">
        <ele>506</ele>
        <time>2017-03-02T09:58:55Z</time>
      </trkpt>
      <trkpt lat="45.74841" lon="4.36771">
        <ele>506</ele>
        <time>2017-03-02T09:58:56Z</time>
      </trkpt>
      <trkpt lat="45.74837" lon="4.36782">
        <ele>505</ele>
        <time>2017-03-02T09:59:08Z</time>
      </trkpt>
      <trkpt lat="45.74836" lon="4.36783">
        <ele>505</ele>
        <time>2017-03-02T09:59:09Z</time>
      </trkpt>
      <trkpt lat="45.74841" lon="4.36793">
        <ele>503</ele>
        <time>2017-03-02T09:59:22Z</time>
      </trkpt>
      <trkpt lat="45.74842" lon="4.36794">
        <ele>503</ele>
        <time>2017-03-02T09:59:23Z</time>
      </trkpt>
      <trkpt lat="45.74847" lon="4.36804">
        <ele>502</ele>
        <time>2017-03-02T09:59:32Z</time>
      </trkpt>
      <trkpt lat="45.74848" lon="4.36804">
        <ele>502</ele>
        <time>2017-03-02T09:59:33Z</time>
      </trkpt>
      <trkpt lat="45.74853" lon="4.36813">
        <ele>501</ele>
        <time>2017-03-02T09:59:44Z</time>
      </trkpt>
      <trkpt lat="45.74854" lon="4.36815">
        <ele>501</ele>
        <time>2017-03-02T09:59:45Z</time>
      </trkpt>
      <trkpt lat="45.74859" lon="4.36824">
        <ele>501</ele>
        <time>2017-03-02T10:00:01Z</time>
      </trkpt>
      <trkpt lat="45.7486" lon="4.36825">
        <ele>501</ele>
        <time>2017-03-02T10:00:02Z</time>
      </trkpt>
      <trkpt lat="45.74865" lon="4.36833">
        <ele>501</ele>
        <time>2017-03-02T10:00:08Z</time>
      </trkpt>
      <trkpt lat="45.74865" lon="4.36835">
        <ele>494</ele>
        <time>2017-03-02T10:00:09Z</time>
      </trkpt>
      <trkpt lat="45.7487" lon="4.36845">
        <ele>493</ele>
        <time>2017-03-02T10:00:15Z</time>
      </trkpt>
      <trkpt lat="45.74871" lon="4.36846">
        <ele>493</ele>
        <time>2017-03-02T10:00:16Z</time>
      </trkpt>
      <trkpt lat="45.74878" lon="4.36853">
        <ele>493</ele>
        <time>2017-03-02T10:00:21Z</time>
      </trkpt>
      <trkpt lat="45.74879" lon="4.36854">
        <ele>493</ele>
        <time>2017-03-02T10:00:22Z</time>
      </trkpt>
      <trkpt lat="45.74883" lon="4.36864">
        <ele>492</ele>
        <time>2017-03-02T10:00:27Z</time>
      </trkpt>
      <trkpt lat="45.74884" lon="4.36867">
        <ele>492</ele>
        <time>2017-03-02T10:00:28Z</time>
      </trkpt>
      <trkpt lat="45.74885" lon="4.36878">
        <ele>492</ele>
        <time>2017-03-02T10:00:33Z</time>
      </trkpt>
      <trkpt lat="45.74885" lon="4.3688">
        <ele>491</ele>
        <time>2017-03-02T10:00:34Z</time>
      </trkpt>
      <trkpt lat="45.74883" lon="4.36892">
        <ele>491</ele>
        <time>2017-03-02T10:00:40Z</time>
      </trkpt>
      <trkpt lat="45.74882" lon="4.36894">
        <ele>491</ele>
        <time>2017-03-02T10:00:41Z</time>
      </trkpt>
      <trkpt lat="45.74877" lon="4.36902">
        <ele>490</ele>
        <time>2017-03-02T10:00:46Z</time>
      </trkpt>
      <trkpt lat="45.74877" lon="4.36904">
        <ele>490</ele>
        <time>2017-03-02T10:00:47Z</time>
      </trkpt>
      <trkpt lat="45.74869" lon="4.3691">
        <ele>490</ele>
        <time>2017-03-02T10:00:54Z</time>
      </trkpt>
      <trkpt lat="45.74867" lon="4.3691">
        <ele>490</ele>
        <time>2017-03-02T10:00:55Z</time>
      </trkpt>
      <trkpt lat="45.74859" lon="4.36913">
        <ele>489</ele>
        <time>2017-03-02T10:01:07Z</time>
      </trkpt>
      <trkpt lat="45.74858" lon="4.36913">
        <ele>489</ele>
        <time>2017-03-02T10:01:08Z</time>
      </trkpt>
      <trkpt lat="45.7485" lon="4.36919">
        <ele>487</ele>
        <time>2017-03-02T10:01:17Z</time>
      </trkpt>
      <trkpt lat="45.7485" lon="4.36919">
        <ele>487</ele>
        <time>2017-03-02T10:01:18Z</time>
      </trkpt>
      <trkpt lat="45.74842" lon="4.36926">
        <ele>486</ele>
        <time>2017-03-02T10:01:29Z</time>
      </trkpt>
      <trkpt lat="45.74842" lon="4.36927">
        <ele>486</ele>
        <time>2017-03-02T10:01:30Z</time>
      </trkpt>
      <trkpt lat="45.74836" lon="4.36936">
        <ele>487</ele>
        <time>2017-03-02T10:01:40Z</time>
      </trkpt>
      <trkpt lat="45.74836" lon="4.36937">
        <ele>487</ele>
        <time>2017-03-02T10:01:41Z</time>
      </trkpt>
      <trkpt lat="45.7483" lon="4.36945">
        <ele>487</ele>
        <time>2017-03-02T10:01:48Z</time>
      </trkpt>
      <trkpt lat="45.74829" lon="4.36946">
        <ele>487</ele>
        <time>2017-03-02T10:01:49Z</time>
      </trkpt>
      <trkpt lat="45.74823" lon="4.36954">
        <ele>487</ele>
        <time>2017-03-02T10:01:54Z</time>
      </trkpt>
      <trkpt lat="45.74821" lon="4.36956">
        <ele>487</ele>
        <time>2017-03-02T10:01:55Z</time>
      </trkpt>
      <trkpt lat="45.74815" lon="4.36963">
        <ele>487</ele>
        <time>2017-03-02T10:02:00Z</time>
      </trkpt>
      <trkpt lat="45.74814" lon="4.36965">
        <ele>487</ele>
        <time>2017-03-02T10:02:01Z</time>
      </trkpt>
      <trkpt lat="45.74807" lon="4.36972">
        <ele>487</ele>
        <time>2017-03-02T10:02:07Z</time>
      </trkpt>
      <trkpt lat="45.74806" lon="4.36973">
        <ele>487</ele>
        <time>2017-03-02T10:02:08Z</time>
      </trkpt>
      <trkpt lat="45.74798" lon="4.36978">
        <ele>487</ele>
        <time>2017-03-02T10:02:14Z</time>
      </trkpt>
      <trkpt lat="45.74796" lon="4.36979">
        <ele>487</ele>
        <time>2017-03-02T10:02:15Z</time>
      </trkpt>
      <trkpt lat="45.74789" lon="4.36984">
        <ele>487</ele>
        <time>2017-03-02T10:02:21Z</time>
      </trkpt>
      <trkpt lat="45.74787" lon="4.36985">
        <ele>487</ele>
        <time>2017-03-02T10:02:22Z</time>
      </trkpt>
      <trkpt lat="45.7478" lon="4.3699">
        <ele>487</ele>
        <time>2017-03-02T10:02:28Z</time>
      </trkpt>
      <trkpt lat="45.74778" lon="4.36991">
        <ele>487</ele>
        <time>2017-03-02T10:02:29Z</time>
      </trkpt>
      <trkpt lat="45.74771" lon="4.36996">
        <ele>487</ele>
        <time>2017-03-02T10:02:34Z</time>
      </trkpt>
      <trkpt lat="45.7477" lon="4.36997">
        <ele>487</ele>
        <time>2017-03-02T10:02:35Z</time>
      </trkpt>
      <trkpt lat="45.74762" lon="4.37002">
        <ele>490</ele>
        <time>2017-03-02T10:02:41Z</time>
      </trkpt>
      <trkpt lat="45.7476" lon="4.37003">
        <ele>489</ele>
        <time>2017-03-02T10:02:42Z</time>
      </trkpt>
      <trkpt lat="45.74753" lon="4.37007">
        <ele>489</ele>
        <time>2017-03-02T10:02:48Z</time>
      </trkpt>
      <trkpt lat="45.74752" lon="4.37009">
        <ele>489</ele>
        <time>2017-03-02T10:02:49Z</time>
      </trkpt>
      <trkpt lat="45.74745" lon="4.37015">
        <ele>489</ele>
        <time>2017-03-02T10:02:55Z</time>
      </trkpt>
      <trkpt lat="45.74743" lon="4.37016">
        <ele>489</ele>
        <time>2017-03-02T10:02:56Z</time>
      </trkpt>
      <trkpt lat="45.74736" lon="4.37023">
        <ele>490</ele>
        <time>2017-03-02T10:03:02Z</time>
      </trkpt>
      <trkpt lat="45.74735" lon="4.37024">
        <ele>490</ele>
        <time>2017-03-02T10:03:03Z</time>
      </trkpt>
      <trkpt lat="45.74727" lon="4.37031">
        <ele>491</ele>
        <time>2017-03-02T10:03:09Z</time>
      </trkpt>
      <trkpt lat="45.74726" lon="4.37032">
        <ele>491</ele>
        <time>2017-03-02T10:03:10Z</time>
      </trkpt>
      <trkpt lat="45.7472" lon="4.37038">
        <ele>492</ele>
        <time>2017-03-02T10:03:16Z</time>
      </trkpt>
      <trkpt lat="45.74719" lon="4.37039">
        <ele>492</ele>
        <time>2017-03-02T10:03:17Z</time>
      </trkpt>
      <trkpt lat="45.74711" lon="4.37046">
        <ele>492</ele>
        <time>2017-03-02T10:03:23Z</time>
      </trkpt>
      <trkpt lat="45.7471" lon="4.37048">
        <ele>492</ele>
        <time>2017-03-02T10:03:24Z</time>
      </trkpt>
      <trkpt lat="45.74703" lon="4.37054">
        <ele>492</ele>
        <time>2017-03-02T10:03:30Z</time>
      </trkpt>
      <trkpt lat="45.74701" lon="4.37056">
        <ele>492</ele>
        <time>2017-03-02T10:03:31Z</time>
      </trkpt>
      <trkpt lat="45.74694" lon="4.37063">
        <ele>492</ele>
        <time>2017-03-02T10:03:37Z</time>
      </trkpt>
      <trkpt lat="45.74693" lon="4.37064">
        <ele>492</ele>
        <time>2017-03-02T10:03:38Z</time>
      </trkpt>
      <trkpt lat="45.74686" lon="4.37071">
        <ele>492</ele>
        <time>2017-03-02T10:03:44Z</time>
      </trkpt>
      <trkpt lat="45.74685" lon="4.37072">
        <ele>492</ele>
        <time>2017-03-02T10:03:45Z</time>
      </trkpt>
      <trkpt lat="45.74677" lon="4.37076">
        <ele>493</ele>
        <time>2017-03-02T10:03:52Z</time>
      </trkpt>
      <trkpt lat="45.74676" lon="4.37077">
        <ele>493</ele>
        <time>2017-03-02T10:03:53Z</time>
      </trkpt>
      <trkpt lat="45.74668" lon="4.3708">
        <ele>493</ele>
        <time>2017-03-02T10:04:00Z</time>
      </trkpt>
      <trkpt lat="45.74666" lon="4.3708">
        <ele>493</ele>
        <time>2017-03-02T10:04:01Z</time>
      </trkpt>
      <trkpt lat="45.74658" lon="4.37084">
        <ele>494</ele>
        <time>2017-03-02T10:04:07Z</time>
      </trkpt>
      <trkpt lat="45.74657" lon="4.37084">
        <ele>495</ele>
        <time>2017-03-02T10:04:08Z</time>
      </trkpt>
      <trkpt lat="45.74649" lon="4.37086">
        <ele>496</ele>
        <time>2017-03-02T10:04:14Z</time>
      </trkpt>
      <trkpt lat="45.74648" lon="4.37086">
        <ele>496</ele>
        <time>2017-03-02T10:04:15Z</time>
      </trkpt>
      <trkpt lat="45.7464" lon="4.37088">
        <ele>496</ele>
        <time>2017-03-02T10:04:21Z</time>
      </trkpt>
      <trkpt lat="45.74639" lon="4.37088">
        <ele>496</ele>
        <time>2017-03-02T10:04:22Z</time>
      </trkpt>
      <trkpt lat="45.74631" lon="4.3709">
        <ele>497</ele>
        <time>2017-03-02T10:04:28Z</time>
      </trkpt>
      <trkpt lat="45.74629" lon="4.3709">
        <ele>497</ele>
        <time>2017-03-02T10:04:29Z</time>
      </trkpt>
      <trkpt lat="45.74621" lon="4.37092">
        <ele>497</ele>
        <time>2017-03-02T10:04:35Z</time>
      </trkpt>
      <trkpt lat="45.7462" lon="4.37092">
        <ele>497</ele>
        <time>2017-03-02T10:04:36Z</time>
      </trkpt>
      <trkpt lat="45.74611" lon="4.37093">
        <ele>497</ele>
        <time>2017-03-02T10:04:42Z</time>
      </trkpt>
      <trkpt lat="45.74609" lon="4.37093">
        <ele>497</ele>
        <time>2017-03-02T10:04:43Z</time>
      </trkpt>
      <trkpt lat="45.746" lon="4.37095">
        <ele>497</ele>
        <time>2017-03-02T10:04:49Z</time>
      </trkpt>
      <trkpt lat="45.74599" lon="4.37095">
        <ele>497</ele>
        <time>2017-03-02T10:04:50Z</time>
      </trkpt>
      <trkpt lat="45.7459" lon="4.37094">
        <ele>497</ele>
        <time>2017-03-02T10:04:56Z</time>
      </trkpt>
      <trkpt lat="45.74589" lon="4.37094">
        <ele>497</ele>
        <time>2017-03-02T10:04:57Z</time>
      </trkpt>
      <trkpt lat="45.74581" lon="4.37092">
        <ele>499</ele>
        <time>2017-03-02T10:05:03Z</time>
      </trkpt>
      <trkpt lat="45.74579" lon="4.37092">
        <ele>499</ele>
        <time>2017-03-02T10:05:04Z</time>
      </trkpt>
      <trkpt lat="45.74571" lon="4.37091">
        <ele>500</ele>
        <time>2017-03-02T10:05:10Z</time>
      </trkpt>
      <trkpt lat="45.74569" lon="4.3709">
        <ele>500</ele>
        <time>2017-03-02T10:05:11Z</time>
      </trkpt>
      <trkpt lat="45.74561" lon="4.37088">
        <ele>501</ele>
        <time>2017-03-02T10:05:17Z</time>
      </trkpt>
      <trkpt lat="45.7456" lon="4.37087">
        <ele>501</ele>
        <time>2017-03-02T10:05:18Z</time>
      </trkpt>
      <trkpt lat="45.74552" lon="4.37086">
        <ele>502</ele>
        <time>2017-03-02T10:05:24Z</time>
      </trkpt>
      <trkpt lat="45.7455" lon="4.37085">
        <ele>503</ele>
        <time>2017-03-02T10:05:25Z</time>
      </trkpt>
      <trkpt lat="45.74542" lon="4.37084">
        <ele>503</ele>
        <time>2017-03-02T10:05:31Z</time>
      </trkpt>
      <trkpt lat="45.74541" lon="4.37083">
        <ele>504</ele>
        <time>2017-03-02T10:05:32Z</time>
      </trkpt>
      <trkpt lat="45.74532" lon="4.37082">
        <ele>497</ele>
        <time>2017-03-02T10:05:39Z</time>
      </trkpt>
      <trkpt lat="45.7453" lon="4.37081">
        <ele>498</ele>
        <time>2017-03-02T10:05:40Z</time>
      </trkpt>
      <trkpt lat="45.74522" lon="4.37079">
        <ele>499</ele>
        <time>2017-03-02T10:05:46Z</time>
      </trkpt>
      <trkpt lat="45.7452" lon="4.37079">
        <ele>499</ele>
        <time>2017-03-02T10:05:47Z</time>
      </trkpt>
      <trkpt lat="45.74512" lon="4.37075">
        <ele>500</ele>
        <time>2017-03-02T10:05:54Z</time>
      </trkpt>
      <trkpt lat="45.74511" lon="4.37074">
        <ele>500</ele>
        <time>2017-03-02T10:05:55Z</time>
      </trkpt>
      <trkpt lat="45.74502" lon="4.37072">
        <ele>501</ele>
        <time>2017-03-02T10:06:02Z</time>
      </trkpt>
      <trkpt lat="45.74501" lon="4.37071">
        <ele>501</ele>
        <time>2017-03-02T10:06:03Z</time>
      </trkpt>
      <trkpt lat="45.74493" lon="4.37069">
        <ele>504</ele>
        <time>2017-03-02T10:06:10Z</time>
      </trkpt>
      <trkpt lat="45.74492" lon="4.37069">
        <ele>504</ele>
        <time>2017-03-02T10:06:11Z</time>
      </trkpt>
      <trkpt lat="45.74484" lon="4.37069">
        <ele>504</ele>
        <time>2017-03-02T10:06:18Z</time>
      </trkpt>
      <trkpt lat="45.74482" lon="4.37069">
        <ele>504</ele>
        <time>2017-03-02T10:06:19Z</time>
      </trkpt>
      <trkpt lat="45.74474" lon="4.37068">
        <ele>504</ele>
        <time>2017-03-02T10:06:26Z</time>
      </trkpt>
      <trkpt lat="45.74473" lon="4.37068">
        <ele>504</ele>
        <time>2017-03-02T10:06:27Z</time>
      </trkpt>
      <trkpt lat="45.74465" lon="4.37069">
        <ele>504</ele>
        <time>2017-03-02T10:06:35Z</time>
      </trkpt>
      <trkpt lat="45.74464" lon="4.37069">
        <ele>504</ele>
        <time>2017-03-02T10:06:36Z</time>
      </trkpt>
      <trkpt lat="45.74455" lon="4.37071">
        <ele>505</ele>
        <time>2017-03-02T10:06:43Z</time>
      </trkpt>
      <trkpt lat="45.74453" lon="4.37071">
        <ele>505</ele>
        <time>2017-03-02T10:06:44Z</time>
      </trkpt>
      <trkpt lat="45.74444" lon="4.37071">
        <ele>506</ele>
        <time>2017-03-02T10:06:51Z</time>
      </trkpt>
      <trkpt lat="45.74443" lon="4.37071">
        <ele>507</ele>
        <time>2017-03-02T10:06:52Z</time>
      </trkpt>
      <trkpt lat="45.74435" lon="4.3707">
        <ele>508</ele>
        <time>2017-03-02T10:06:59Z</time>
      </trkpt>
      <trkpt lat="45.74434" lon="4.37069">
        <ele>508</ele>
        <time>2017-03-02T10:07:00Z</time>
      </trkpt>
      <trkpt lat="45.74426" lon="4.3707">
        <ele>509</ele>
        <time>2017-03-02T10:07:07Z</time>
      </trkpt>
      <trkpt lat="45.74424" lon="4.37071">
        <ele>509</ele>
        <time>2017-03-02T10:07:08Z</time>
      </trkpt>
      <trkpt lat="45.74416" lon="4.37071">
        <ele>513</ele>
        <time>2017-03-02T10:07:14Z</time>
      </trkpt>
      <trkpt lat="45.74414" lon="4.37071">
        <ele>513</ele>
        <time>2017-03-02T10:07:15Z</time>
      </trkpt>
      <trkpt lat="45.74405" lon="4.37071">
        <ele>513</ele>
        <time>2017-03-02T10:07:22Z</time>
      </trkpt>
      <trkpt lat="45.74404" lon="4.3707">
        <ele>513</ele>
        <time>2017-03-02T10:07:23Z</time>
      </trkpt>
      <trkpt lat="45.74396" lon="4.37072">
        <ele>513</ele>
        <time>2017-03-02T10:07:30Z</time>
      </trkpt>
      <trkpt lat="45.74394" lon="4.37072">
        <ele>513</ele>
        <time>2017-03-02T10:07:31Z</time>
      </trkpt>
      <trkpt lat="45.74386" lon="4.37073">
        <ele>513</ele>
        <time>2017-03-02T10:07:39Z</time>
      </trkpt>
      <trkpt lat="45.74385" lon="4.37074">
        <ele>513</ele>
        <time>2017-03-02T10:07:40Z</time>
      </trkpt>
      <trkpt lat="45.74376" lon="4.37074">
        <ele>513</ele>
        <time>2017-03-02T10:07:48Z</time>
      </trkpt>
      <trkpt lat="45.74375" lon="4.37074">
        <ele>513</ele>
        <time>2017-03-02T10:07:49Z</time>
      </trkpt>
      <trkpt lat="45.74366" lon="4.37076">
        <ele>514</ele>
        <time>2017-03-02T10:07:56Z</time>
      </trkpt>
      <trkpt lat="45.74365" lon="4.37076">
        <ele>514</ele>
        <time>2017-03-02T10:07:57Z</time>
      </trkpt>
      <trkpt lat="45.74356" lon="4.37079">
        <ele>515</ele>
        <time>2017-03-02T10:08:04Z</time>
      </trkpt>
      <trkpt lat="45.74355" lon="4.37079">
        <ele>515</ele>
        <time>2017-03-02T10:08:05Z</time>
      </trkpt>
      <trkpt lat="45.74347" lon="4.37081">
        <ele>517</ele>
        <time>2017-03-02T10:08:13Z</time>
      </trkpt>
      <trkpt lat="45.74346" lon="4.37082">
        <ele>517</ele>
        <time>2017-03-02T10:08:14Z</time>
      </trkpt>
      <trkpt lat="45.74339" lon="4.37085">
        <ele>520</ele>
        <time>2017-03-02T10:08:27Z</time>
      </trkpt>
      <trkpt lat="45.74337" lon="4.37086">
        <ele>520</ele>
        <time>2017-03-02T10:08:28Z</time>
      </trkpt>
      <trkpt lat="45.7433" lon="4.3709">
        <ele>520</ele>
        <time>2017-03-02T10:08:35Z</time>
      </trkpt>
      <trkpt lat="45.74329" lon="4.37091">
        <ele>520</ele>
        <time>2017-03-02T10:08:36Z</time>
      </trkpt>
      <trkpt lat="45.74321" lon="4.37097">
        <ele>520</ele>
        <time>2017-03-02T10:08:43Z</time>
      </trkpt>
      <trkpt lat="45.7432" lon="4.37098">
        <ele>520</ele>
        <time>2017-03-02T10:08:44Z</time>
      </trkpt>
      <trkpt lat="45.74313" lon="4.37105">
        <ele>520</ele>
        <time>2017-03-02T10:08:51Z</time>
      </trkpt>
      <trkpt lat="45.74311" lon="4.37105">
        <ele>520</ele>
        <time>2017-03-02T10:08:52Z</time>
      </trkpt>
      <trkpt lat="45.74304" lon="4.37111">
        <ele>520</ele>
        <time>2017-03-02T10:08:59Z</time>
      </trkpt>
      <trkpt lat="45.74302" lon="4.37112">
        <ele>520</ele>
        <time>2017-03-02T10:09:00Z</time>
      </trkpt>
      <trkpt lat="45.74294" lon="4.37115">
        <ele>520</ele>
        <time>2017-03-02T10:09:08Z</time>
      </trkpt>
      <trkpt lat="45.74293" lon="4.37115">
        <ele>520</ele>
        <time>2017-03-02T10:09:09Z</time>
      </trkpt>
      <trkpt lat="45.74284" lon="4.37114">
        <ele>520</ele>
        <time>2017-03-02T10:09:16Z</time>
      </trkpt>
      <trkpt lat="45.74283" lon="4.37114">
        <ele>520</ele>
        <time>2017-03-02T10:09:17Z</time>
      </trkpt>
      <trkpt lat="45.74275" lon="4.37111">
        <ele>520</ele>
        <time>2017-03-02T10:09:24Z</time>
      </trkpt>
      <trkpt lat="45.74274" lon="4.3711">
        <ele>520</ele>
        <time>2017-03-02T10:09:25Z</time>
      </trkpt>
      <trkpt lat="45.74266" lon="4.37109">
        <ele>519</ele>
        <time>2017-03-02T10:09:32Z</time>
      </trkpt>
      <trkpt lat="45.74264" lon="4.3711">
        <ele>519</ele>
        <time>2017-03-02T10:09:33Z</time>
      </trkpt>
      <trkpt lat="45.74256" lon="4.37112">
        <ele>519</ele>
        <time>2017-03-02T10:09:40Z</time>
      </trkpt>
      <trkpt lat="45.74255" lon="4.37113">
        <ele>519</ele>
        <time>2017-03-02T10:09:41Z</time>
      </trkpt>
      <trkpt lat="45.74247" lon="4.3712">
        <ele>515</ele>
        <time>2017-03-02T10:09:48Z</time>
      </trkpt>
      <trkpt lat="45.74246" lon="4.37121">
        <ele>515</ele>
        <time>2017-03-02T10:09:49Z</time>
      </trkpt>
      <trkpt lat="45.7424" lon="4.37127">
        <ele>515</ele>
        <time>2017-03-02T10:09:54Z</time>
      </trkpt>
      <trkpt lat="45.74239" lon="4.37129">
        <ele>515</ele>
        <time>2017-03-02T10:09:55Z</time>
      </trkpt>
      <trkpt lat="45.74233" lon="4.37138">
        <ele>515</ele>
        <time>2017-03-02T10:10:01Z</time>
      </trkpt>
      <trkpt lat="45.74232" lon="4.37139">
        <ele>515</ele>
        <time>2017-03-02T10:10:02Z</time>
      </trkpt>
      <trkpt lat="45.74226" lon="4.37148">
        <ele>515</ele>
        <time>2017-03-02T10:10:08Z</time>
      </trkpt>
      <trkpt lat="45.74226" lon="4.3715">
        <ele>515</ele>
        <time>2017-03-02T10:10:09Z</time>
      </trkpt>
      <trkpt lat="45.74221" lon="4.37159">
        <ele>515</ele>
        <time>2017-03-02T10:10:15Z</time>
      </trkpt>
      <trkpt lat="45.74221" lon="4.37161">
        <ele>515</ele>
        <time>2017-03-02T10:10:16Z</time>
      </trkpt>
      <trkpt lat="45.74216" lon="4.37171">
        <ele>515</ele>
        <time>2017-03-02T10:10:23Z</time>
      </trkpt>
      <trkpt lat="45.74215" lon="4.37172">
        <ele>515</ele>
        <time>2017-03-02T10:10:24Z</time>
      </trkpt>
      <trkpt lat="45.74211" lon="4.37182">
        <ele>515</ele>
        <time>2017-03-02T10:10:30Z</time>
      </trkpt>
      <trkpt lat="45.74211" lon="4.37184">
        <ele>515</ele>
        <time>2017-03-02T10:10:31Z</time>
      </trkpt>
      <trkpt lat="45.74207" lon="4.37196">
        <ele>515</ele>
        <time>2017-03-02T10:10:38Z</time>
      </trkpt>
      <trkpt lat="45.74206" lon="4.37197">
        <ele>515</ele>
        <time>2017-03-02T10:10:39Z</time>
      </trkpt>
      <trkpt lat="45.74203" lon="4.37208">
        <ele>515</ele>
        <time>2017-03-02T10:10:46Z</time>
      </trkpt>
      <trkpt lat="45.74202" lon="4.37209">
        <ele>515</ele>
        <time>2017-03-02T10:10:47Z</time>
      </trkpt>
      <trkpt lat="45.74197" lon="4.37219">
        <ele>515</ele>
        <time>2017-03-02T10:10:54Z</time>
      </trkpt>
      <trkpt lat="45.74196" lon="4.3722">
        <ele>515</ele>
        <time>2017-03-02T10:10:55Z</time>
      </trkpt>
      <trkpt lat="45.74192" lon="4.37231">
        <ele>514</ele>
        <time>2017-03-02T10:11:02Z</time>
      </trkpt>
      <trkpt lat="45.74191" lon="4.37233">
        <ele>514</ele>
        <time>2017-03-02T10:11:03Z</time>
      </trkpt>
      <trkpt lat="45.74187" lon="4.37242">
        <ele>514</ele>
        <time>2017-03-02T10:11:08Z</time>
      </trkpt>
      <trkpt lat="45.74187" lon="4.37244">
        <ele>514</ele>
        <time>2017-03-02T10:11:09Z</time>
      </trkpt>
      <trkpt lat="45.74183" lon="4.37254">
        <ele>515</ele>
        <time>2017-03-02T10:11:14Z</time>
      </trkpt>
      <trkpt lat="45.74183" lon="4.37256">
        <ele>515</ele>
        <time>2017-03-02T10:11:15Z</time>
      </trkpt>
      <trkpt lat="45.7418" lon="4.37267">
        <ele>516</ele>
        <time>2017-03-02T10:11:21Z</time>
      </trkpt>
      <trkpt lat="45.7418" lon="4.37269">
        <ele>516</ele>
        <time>2017-03-02T10:11:22Z</time>
      </trkpt>
      <trkpt lat="45.74177" lon="4.3728">
        <ele>517</ele>
        <time>2017-03-02T10:11:28Z</time>
      </trkpt>
      <trkpt lat="45.74177" lon="4.37282">
        <ele>517</ele>
        <time>2017-03-02T10:11:29Z</time>
      </trkpt>
      <trkpt lat="45.74174" lon="4.37293">
        <ele>518</ele>
        <time>2017-03-02T10:11:35Z</time>
      </trkpt>
      <trkpt lat="45.74174" lon="4.37295">
        <ele>518</ele>
        <time>2017-03-02T10:11:36Z</time>
      </trkpt>
      <trkpt lat="45.74172" lon="4.37307">
        <ele>518</ele>
        <time>2017-03-02T10:11:43Z</time>
      </trkpt>
      <trkpt lat="45.74172" lon="4.37309">
        <ele>518</ele>
        <time>2017-03-02T10:11:44Z</time>
      </trkpt>
      <trkpt lat="45.7417" lon="4.3732">
        <ele>518</ele>
        <time>2017-03-02T10:11:51Z</time>
      </trkpt>
      <trkpt lat="45.7417" lon="4.37322">
        <ele>518</ele>
        <time>2017-03-02T10:11:52Z</time>
      </trkpt>
      <trkpt lat="45.7417" lon="4.37334">
        <ele>519</ele>
        <time>2017-03-02T10:11:59Z</time>
      </trkpt>
      <trkpt lat="45.7417" lon="4.37336">
        <ele>519</ele>
        <time>2017-03-02T10:12:00Z</time>
      </trkpt>
      <trkpt lat="45.7417" lon="4.37348">
        <ele>520</ele>
        <time>2017-03-02T10:12:06Z</time>
      </trkpt>
      <trkpt lat="45.7417" lon="4.3735">
        <ele>520</ele>
        <time>2017-03-02T10:12:07Z</time>
      </trkpt>
      <trkpt lat="45.7417" lon="4.37361">
        <ele>520</ele>
        <time>2017-03-02T10:12:13Z</time>
      </trkpt>
      <trkpt lat="45.7417" lon="4.37363">
        <ele>520</ele>
        <time>2017-03-02T10:12:14Z</time>
      </trkpt>
      <trkpt lat="45.7417" lon="4.37374">
        <ele>521</ele>
        <time>2017-03-02T10:12:20Z</time>
      </trkpt>
      <trkpt lat="45.7417" lon="4.37376">
        <ele>521</ele>
        <time>2017-03-02T10:12:21Z</time>
      </trkpt>
      <trkpt lat="45.74171" lon="4.37388">
        <ele>520</ele>
        <time>2017-03-02T10:12:28Z</time>
      </trkpt>
      <trkpt lat="45.74171" lon="4.37389">
        <ele>520</ele>
        <time>2017-03-02T10:12:29Z</time>
      </trkpt>
      <trkpt lat="45.74172" lon="4.374">
        <ele>520</ele>
        <time>2017-03-02T10:12:35Z</time>
      </trkpt>
      <trkpt lat="45.74172" lon="4.37402">
        <ele>520</ele>
        <time>2017-03-02T10:12:36Z</time>
      </trkpt>
      <trkpt lat="45.74173" lon="4.37414">
        <ele>519</ele>
        <time>2017-03-02T10:12:42Z</time>
      </trkpt>
      <trkpt lat="45.74173" lon="4.37416">
        <ele>519</ele>
        <time>2017-03-02T10:12:43Z</time>
      </trkpt>
      <trkpt lat="45.74173" lon="4.37427">
        <ele>519</ele>
        <time>2017-03-02T10:12:49Z</time>
      </trkpt>
      <trkpt lat="45.74173" lon="4.37429">
        <ele>520</ele>
        <time>2017-03-02T10:12:50Z</time>
      </trkpt>
      <trkpt lat="45.74175" lon="4.37441">
        <ele>520</ele>
        <time>2017-03-02T10:12:56Z</time>
      </trkpt>
      <trkpt lat="45.74175" lon="4.37443">
        <ele>520</ele>
        <time>2017-03-02T10:12:57Z</time>
      </trkpt>
      <trkpt lat="45.74176" lon="4.37454">
        <ele>520</ele>
        <time>2017-03-02T10:13:03Z</time>
      </trkpt>
      <trkpt lat="45.74177" lon="4.37456">
        <ele>520</ele>
        <time>2017-03-02T10:13:04Z</time>
      </trkpt>
      <trkpt lat="45.74177" lon="4.37468">
        <ele>520</ele>
        <time>2017-03-02T10:13:11Z</time>
      </trkpt>
      <trkpt lat="45.74178" lon="4.3747">
        <ele>519</ele>
        <time>2017-03-02T10:13:12Z</time>
      </trkpt>
      <trkpt lat="45.74179" lon="4.37481">
        <ele>519</ele>
        <time>2017-03-02T10:13:18Z</time>
      </trkpt>
      <trkpt lat="45.74179" lon="4.37483">
        <ele>518</ele>
        <time>2017-03-02T10:13:19Z</time>
      </trkpt>
      <trkpt lat="45.7418" lon="4.37495">
        <ele>517</ele>
        <time>2017-03-02T10:13:25Z</time>
      </trkpt>
      <trkpt lat="45.7418" lon="4.37497">
        <ele>517</ele>
        <time>2017-03-02T10:13:26Z</time>
      </trkpt>
      <trkpt lat="45.7418" lon="4.37509">
        <ele>517</ele>
        <time>2017-03-02T10:13:32Z</time>
      </trkpt>
      <trkpt lat="45.7418" lon="4.37511">
        <ele>517</ele>
        <time>2017-03-02T10:13:33Z</time>
      </trkpt>
      <trkpt lat="45.74179" lon="4.37523">
        <ele>518</ele>
        <time>2017-03-02T10:13:39Z</time>
      </trkpt>
      <trkpt lat="45.74179" lon="4.37524">
        <ele>518</ele>
        <time>2017-03-02T10:13:40Z</time>
      </trkpt>
      <trkpt lat="45.74178" lon="4.37535">
        <ele>518</ele>
        <time>2017-03-02T10:13:46Z</time>
      </trkpt>
      <trkpt lat="45.74178" lon="4.37537">
        <ele>518</ele>
        <time>2017-03-02T10:13:47Z</time>
      </trkpt>
      <trkpt lat="45.74178" lon="4.37548">
        <ele>518</ele>
        <time>2017-03-02T10:13:53Z</time>
      </trkpt>
      <trkpt lat="45.74178" lon="4.3755">
        <ele>518</ele>
        <time>2017-03-02T10:13:54Z</time>
      </trkpt>
      <trkpt lat="45.74178" lon="4.37562">
        <ele>517</ele>
        <time>2017-03-02T10:14:00Z</time>
      </trkpt>
      <trkpt lat="45.74178" lon="4.37564">
        <ele>517</ele>
        <time>2017-03-02T10:14:01Z</time>
      </trkpt>
      <trkpt lat="45.74178" lon="4.37576">
        <ele>516</ele>
        <time>2017-03-02T10:14:07Z</time>
      </trkpt>
      <trkpt lat="45.74178" lon="4.37578">
        <ele>516</ele>
        <time>2017-03-02T10:14:08Z</time>
      </trkpt>
      <trkpt lat="45.74175" lon="4.3759">
        <ele>515</ele>
        <time>2017-03-02T10:14:14Z</time>
      </trkpt>
      <trkpt lat="45.74174" lon="4.37592">
        <ele>515</ele>
        <time>2017-03-02T10:14:15Z</time>
      </trkpt>
      <trkpt lat="45.74169" lon="4.376">
        <ele>516</ele>
        <time>2017-03-02T10:14:21Z</time>
      </trkpt>
      <trkpt lat="45.74168" lon="4.37601">
        <ele>516</ele>
        <time>2017-03-02T10:14:22Z</time>
      </trkpt>
      <trkpt lat="45.74161" lon="4.37608">
        <ele>511</ele>
        <time>2017-03-02T10:14:28Z</time>
      </trkpt>
      <trkpt lat="45.7416" lon="4.37609">
        <ele>511</ele>
        <time>2017-03-02T10:14:29Z</time>
      </trkpt>
      <trkpt lat="45.74154" lon="4.37616">
        <ele>511</ele>
        <time>2017-03-02T10:14:35Z</time>
      </trkpt>
      <trkpt lat="45.74152" lon="4.37618">
        <ele>511</ele>
        <time>2017-03-02T10:14:36Z</time>
      </trkpt>
      <trkpt lat="45.74146" lon="4.37626">
        <ele>511</ele>
        <time>2017-03-02T10:14:43Z</time>
      </trkpt>
      <trkpt lat="45.74146" lon="4.37628">
        <ele>511</ele>
        <time>2017-03-02T10:14:44Z</time>
      </trkpt>
      <trkpt lat="45.74141" lon="4.37637">
        <ele>511</ele>
        <time>2017-03-02T10:14:51Z</time>
      </trkpt>
      <trkpt lat="45.7414" lon="4.37639">
        <ele>511</ele>
        <time>2017-03-02T10:14:52Z</time>
      </trkpt>
      <trkpt lat="45.74135" lon="4.37649">
        <ele>511</ele>
        <time>2017-03-02T10:15:00Z</time>
      </trkpt>
      <trkpt lat="45.74134" lon="4.3765">
        <ele>511</ele>
        <time>2017-03-02T10:15:01Z</time>
      </trkpt>
      <trkpt lat="45.74129" lon="4.37659">
        <ele>510</ele>
        <time>2017-03-02T10:15:08Z</time>
      </trkpt>
      <trkpt lat="45.74127" lon="4.3766">
        <ele>510</ele>
        <time>2017-03-02T10:15:09Z</time>
      </trkpt>
      <trkpt lat="45.7412" lon="4.37666">
        <ele>510</ele>
        <time>2017-03-02T10:15:15Z</time>
      </trkpt>
      <trkpt lat="45.74118" lon="4.37666">
        <ele>510</ele>
        <time>2017-03-02T10:15:16Z</time>
      </trkpt>
      <trkpt lat="45.7411" lon="4.37669">
        <ele>513</ele>
        <time>2017-03-02T10:15:22Z</time>
      </trkpt>
      <trkpt lat="45.74109" lon="4.37669">
        <ele>513</ele>
        <time>2017-03-02T10:15:23Z</time>
      </trkpt>
      <trkpt lat="45.741" lon="4.3767">
        <ele>512</ele>
        <time>2017-03-02T10:15:31Z</time>
      </trkpt>
      <trkpt lat="45.74099" lon="4.3767">
        <ele>512</ele>
        <time>2017-03-02T10:15:32Z</time>
      </trkpt>
      <trkpt lat="45.7409" lon="4.37672">
        <ele>511</ele>
        <time>2017-03-02T10:15:39Z</time>
      </trkpt>
      <trkpt lat="45.74089" lon="4.37673">
        <ele>511</ele>
        <time>2017-03-02T10:15:40Z</time>
      </trkpt>
      <trkpt lat="45.74081" lon="4.37673">
        <ele>511</ele>
        <time>2017-03-02T10:15:46Z</time>
      </trkpt>
      <trkpt lat="45.7408" lon="4.37673">
        <ele>511</ele>
        <time>2017-03-02T10:15:47Z</time>
      </trkpt>
      <trkpt lat="45.74085" lon="4.37683">
        <ele>512</ele>
        <time>2017-03-02T10:16:05Z</time>
      </trkpt>
      <trkpt lat="45.74085" lon="4.37684">
        <ele>512</ele>
        <time>2017-03-02T10:16:06Z</time>
      </trkpt>
      <trkpt lat="45.74088" lon="4.37695">
        <ele>514</ele>
        <time>2017-03-02T10:16:15Z</time>
      </trkpt>
      <trkpt lat="45.74088" lon="4.37696">
        <ele>514</ele>
        <time>2017-03-02T10:16:16Z</time>
      </trkpt>
      <trkpt lat="45.74092" lon="4.37708">
        <ele>515</ele>
        <time>2017-03-02T10:16:25Z</time>
      </trkpt>
      <trkpt lat="45.74092" lon="4.37709">
        <ele>515</ele>
        <time>2017-03-02T10:16:26Z</time>
      </trkpt>
      <trkpt lat="45.74097" lon="4.37719">
        <ele>515</ele>
        <time>2017-03-02T10:16:35Z</time>
      </trkpt>
      <trkpt lat="45.74097" lon="4.3772">
        <ele>516</ele>
        <time>2017-03-02T10:16:36Z</time>
      </trkpt>
      <trkpt lat="45.74102" lon="4.3773">
        <ele>516</ele>
        <time>2017-03-02T10:16:46Z</time>
      </trkpt>
      <trkpt lat="45.74103" lon="4.37731">
        <ele>516</ele>
        <time>2017-03-02T10:16:47Z</time>
      </trkpt>
      <trkpt lat="45.74108" lon="4.37741">
        <ele>516</ele>
        <time>2017-03-02T10:16:55Z</time>
      </trkpt>
      <trkpt lat="45.74108" lon="4.37742">
        <ele>516</ele>
        <time>2017-03-02T10:16:56Z</time>
      </trkpt>
      <trkpt lat="45.74113" lon="4.37752">
        <ele>519</ele>
        <time>2017-03-02T10:17:03Z</time>
      </trkpt>
      <trkpt lat="45.74113" lon="4.37753">
        <ele>519</ele>
        <time>2017-03-02T10:17:04Z</time>
      </trkpt>
      <trkpt lat="45.74114" lon="4.37764">
        <ele>519</ele>
        <time>2017-03-02T10:17:10Z</time>
      </trkpt>
      <trkpt lat="45.74115" lon="4.37766">
        <ele>520</ele>
        <time>2017-03-02T10:17:11Z</time>
      </trkpt>
      <trkpt lat="45.74119" lon="4.37777">
        <ele>520</ele>
        <time>2017-03-02T10:17:18Z</time>
      </trkpt>
      <trkpt lat="45.74119" lon="4.37778">
        <ele>520</ele>
        <time>2017-03-02T10:17:19Z</time>
      </trkpt>
      <trkpt lat="45.74124" lon="4.37787">
        <ele>520</ele>
        <time>2017-03-02T10:17:28Z</time>
      </trkpt>
      <trkpt lat="45.74125" lon="4.37788">
        <ele>520</ele>
        <time>2017-03-02T10:17:29Z</time>
      </trkpt>
      <trkpt lat="45.74129" lon="4.378">
        <ele>520</ele>
        <time>2017-03-02T10:17:39Z</time>
      </trkpt>
      <trkpt lat="45.74129" lon="4.37801">
        <ele>520</ele>
        <time>2017-03-02T10:17:40Z</time>
      </trkpt>
      <trkpt lat="45.74133" lon="4.37812">
        <ele>520</ele>
        <time>2017-03-02T10:17:47Z</time>
      </trkpt>
      <trkpt lat="45.74133" lon="4.37813">
        <ele>520</ele>
        <time>2017-03-02T10:17:48Z</time>
      </trkpt>
      <trkpt lat="45.74136" lon="4.37824">
        <ele>520</ele>
        <time>2017-03-02T10:17:54Z</time>
      </trkpt>
      <trkpt lat="45.74136" lon="4.37825">
        <ele>520</ele>
        <time>2017-03-02T10:17:55Z</time>
      </trkpt>
      <trkpt lat="45.74138" lon="4.37838">
        <ele>523</ele>
        <time>2017-03-02T10:18:02Z</time>
      </trkpt>
      <trkpt lat="45.74138" lon="4.3784">
        <ele>523</ele>
        <time>2017-03-02T10:18:03Z</time>
      </trkpt>
      <trkpt lat="45.74139" lon="4.37852">
        <ele>524</ele>
        <time>2017-03-02T10:18:10Z</time>
      </trkpt>
      <trkpt lat="45.74139" lon="4.37853">
        <ele>524</ele>
        <time>2017-03-02T10:18:11Z</time>
      </trkpt>
      <trkpt lat="45.74139" lon="4.37866">
        <ele>524</ele>
        <time>2017-03-02T10:18:18Z</time>
      </trkpt>
      <trkpt lat="45.74139" lon="4.37868">
        <ele>525</ele>
        <time>2017-03-02T10:18:19Z</time>
      </trkpt>
      <trkpt lat="45.7414" lon="4.37879">
        <ele>525</ele>
        <time>2017-03-02T10:18:26Z</time>
      </trkpt>
      <trkpt lat="45.7414" lon="4.3788">
        <ele>525</ele>
        <time>2017-03-02T10:18:27Z</time>
      </trkpt>
      <trkpt lat="45.7414" lon="4.37892">
        <ele>526</ele>
        <time>2017-03-02T10:18:35Z</time>
      </trkpt>
      <trkpt lat="45.7414" lon="4.37894">
        <ele>526</ele>
        <time>2017-03-02T10:18:36Z</time>
      </trkpt>
      <trkpt lat="45.74141" lon="4.37906">
        <ele>526</ele>
        <time>2017-03-02T10:18:44Z</time>
      </trkpt>
      <trkpt lat="45.74141" lon="4.37908">
        <ele>526</ele>
        <time>2017-03-02T10:18:45Z</time>
      </trkpt>
      <trkpt lat="45.74142" lon="4.3792">
        <ele>531</ele>
        <time>2017-03-02T10:18:53Z</time>
      </trkpt>
      <trkpt lat="45.74142" lon="4.37921">
        <ele>531</ele>
        <time>2017-03-02T10:18:54Z</time>
      </trkpt>
      <trkpt lat="45.74143" lon="4.37933">
        <ele>531</ele>
        <time>2017-03-02T10:19:02Z</time>
      </trkpt>
      <trkpt lat="45.74143" lon="4.37935">
        <ele>532</ele>
        <time>2017-03-02T10:19:03Z</time>
      </trkpt>
      <trkpt lat="45.74143" lon="4.37946">
        <ele>533</ele>
        <time>2017-03-02T10:19:11Z</time>
      </trkpt>
      <trkpt lat="45.74143" lon="4.37948">
        <ele>533</ele>
        <time>2017-03-02T10:19:12Z</time>
      </trkpt>
      <trkpt lat="45.74144" lon="4.3796">
        <ele>534</ele>
        <time>2017-03-02T10:19:21Z</time>
      </trkpt>
      <trkpt lat="45.74144" lon="4.37962">
        <ele>534</ele>
        <time>2017-03-02T10:19:22Z</time>
      </trkpt>
      <trkpt lat="45.74144" lon="4.37974">
        <ele>535</ele>
        <time>2017-03-02T10:19:31Z</time>
      </trkpt>
      <trkpt lat="45.74144" lon="4.37975">
        <ele>535</ele>
        <time>2017-03-02T10:19:32Z</time>
      </trkpt>
      <trkpt lat="45.74145" lon="4.37987">
        <ele>536</ele>
        <time>2017-03-02T10:19:41Z</time>
      </trkpt>
      <trkpt lat="45.74145" lon="4.37989">
        <ele>536</ele>
        <time>2017-03-02T10:19:42Z</time>
      </trkpt>
      <trkpt lat="45.74145" lon="4.38">
        <ele>540</ele>
        <time>2017-03-02T10:19:50Z</time>
      </trkpt>
      <trkpt lat="45.74145" lon="4.38002">
        <ele>540</ele>
        <time>2017-03-02T10:19:51Z</time>
      </trkpt>
      <trkpt lat="45.74145" lon="4.38014">
        <ele>541</ele>
        <time>2017-03-02T10:20:00Z</time>
      </trkpt>
      <trkpt lat="45.74145" lon="4.38016">
        <ele>541</ele>
        <time>2017-03-02T10:20:01Z</time>
      </trkpt>
      <trkpt lat="45.74146" lon="4.38027">
        <ele>541</ele>
        <time>2017-03-02T10:20:09Z</time>
      </trkpt>
      <trkpt lat="45.74146" lon="4.38029">
        <ele>541</ele>
        <time>2017-03-02T10:20:10Z</time>
      </trkpt>
      <trkpt lat="45.74147" lon="4.3804">
        <ele>542</ele>
        <time>2017-03-02T10:20:18Z</time>
      </trkpt>
      <trkpt lat="45.74147" lon="4.38042">
        <ele>542</ele>
        <time>2017-03-02T10:20:19Z</time>
      </trkpt>
      <trkpt lat="45.74147" lon="4.38054">
        <ele>542</ele>
        <time>2017-03-02T10:20:27Z</time>
      </trkpt>
      <trkpt lat="45.74147" lon="4.38055">
        <ele>542</ele>
        <time>2017-03-02T10:20:28Z</time>
      </trkpt>
      <trkpt lat="45.74148" lon="4.38067">
        <ele>543</ele>
        <time>2017-03-02T10:20:36Z</time>
      </trkpt>
      <trkpt lat="45.74148" lon="4.38069">
        <ele>543</ele>
        <time>2017-03-02T10:20:37Z</time>
      </trkpt>
      <trkpt lat="45.74148" lon="4.3808">
        <ele>544</ele>
        <time>2017-03-02T10:20:44Z</time>
      </trkpt>
      <trkpt lat="45.74148" lon="4.38082">
        <ele>544</ele>
        <time>2017-03-02T10:20:45Z</time>
      </trkpt>
      <trkpt lat="45.74149" lon="4.38093">
        <ele>546</ele>
        <time>2017-03-02T10:20:52Z</time>
      </trkpt>
      <trkpt lat="45.74149" lon="4.38095">
        <ele>546</ele>
        <time>2017-03-02T10:20:53Z</time>
      </trkpt>
      <trkpt lat="45.74149" lon="4.38108">
        <ele>546</ele>
        <time>2017-03-02T10:21:01Z</time>
      </trkpt>
      <trkpt lat="45.74149" lon="4.38109">
        <ele>546</ele>
        <time>2017-03-02T10:21:02Z</time>
      </trkpt>
      <trkpt lat="45.7415" lon="4.38121">
        <ele>547</ele>
        <time>2017-03-02T10:21:10Z</time>
      </trkpt>
      <trkpt lat="45.7415" lon="4.38123">
        <ele>547</ele>
        <time>2017-03-02T10:21:11Z</time>
      </trkpt>
      <trkpt lat="45.74152" lon="4.38135">
        <ele>548</ele>
        <time>2017-03-02T10:21:19Z</time>
      </trkpt>
      <trkpt lat="45.74152" lon="4.38137">
        <ele>548</ele>
        <time>2017-03-02T10:21:20Z</time>
      </trkpt>
      <trkpt lat="45.74155" lon="4.38148">
        <ele>549</ele>
        <time>2017-03-02T10:21:28Z</time>
      </trkpt>
      <trkpt lat="45.74155" lon="4.3815">
        <ele>549</ele>
        <time>2017-03-02T10:21:29Z</time>
      </trkpt>
      <trkpt lat="45.74157" lon="4.3816">
        <ele>551</ele>
        <time>2017-03-02T10:21:37Z</time>
      </trkpt>
      <trkpt lat="45.74157" lon="4.38162">
        <ele>551</ele>
        <time>2017-03-02T10:21:38Z</time>
      </trkpt>
      <trkpt lat="45.7416" lon="4.38173">
        <ele>553</ele>
        <time>2017-03-02T10:21:46Z</time>
      </trkpt>
      <trkpt lat="45.7416" lon="4.38174">
        <ele>553</ele>
        <time>2017-03-02T10:21:47Z</time>
      </trkpt>
      <trkpt lat="45.74162" lon="4.38186">
        <ele>553</ele>
        <time>2017-03-02T10:21:55Z</time>
      </trkpt>
      <trkpt lat="45.74163" lon="4.38187">
        <ele>553</ele>
        <time>2017-03-02T10:21:56Z</time>
      </trkpt>
      <trkpt lat="45.74165" lon="4.38199">
        <ele>553</ele>
        <time>2017-03-02T10:22:04Z</time>
      </trkpt>
      <trkpt lat="45.74165" lon="4.382">
        <ele>553</ele>
        <time>2017-03-02T10:22:05Z</time>
      </trkpt>
      <trkpt lat="45.74168" lon="4.38212">
        <ele>560</ele>
        <time>2017-03-02T10:22:13Z</time>
      </trkpt>
      <trkpt lat="45.74168" lon="4.38214">
        <ele>560</ele>
        <time>2017-03-02T10:22:14Z</time>
      </trkpt>
      <trkpt lat="45.74171" lon="4.38226">
        <ele>561</ele>
        <time>2017-03-02T10:22:22Z</time>
      </trkpt>
      <trkpt lat="45.74171" lon="4.38227">
        <ele>561</ele>
        <time>2017-03-02T10:22:23Z</time>
      </trkpt>
      <trkpt lat="45.74174" lon="4.38239">
        <ele>561</ele>
        <time>2017-03-02T10:22:31Z</time>
      </trkpt>
      <trkpt lat="45.74174" lon="4.38241">
        <ele>561</ele>
        <time>2017-03-02T10:22:32Z</time>
      </trkpt>
      <trkpt lat="45.74173" lon="4.38253">
        <ele>563</ele>
        <time>2017-03-02T10:22:39Z</time>
      </trkpt>
      <trkpt lat="45.74172" lon="4.38255">
        <ele>563</ele>
        <time>2017-03-02T10:22:40Z</time>
      </trkpt>
      <trkpt lat="45.7417" lon="4.38265">
        <ele>565</ele>
        <time>2017-03-02T10:22:46Z</time>
      </trkpt>
      <trkpt lat="45.7417" lon="4.38267">
        <ele>565</ele>
        <time>2017-03-02T10:22:47Z</time>
      </trkpt>
      <trkpt lat="45.74168" lon="4.38278">
        <ele>566</ele>
        <time>2017-03-02T10:22:53Z</time>
      </trkpt>
      <trkpt lat="45.74167" lon="4.38279">
        <ele>566</ele>
        <time>2017-03-02T10:22:54Z</time>
      </trkpt>
      <trkpt lat="45.74165" lon="4.3829">
        <ele>561</ele>
        <time>2017-03-02T10:23:00Z</time>
      </trkpt>
      <trkpt lat="45.74165" lon="4.38292">
        <ele>561</ele>
        <time>2017-03-02T10:23:01Z</time>
      </trkpt>
      <trkpt lat="45.74162" lon="4.38304">
        <ele>562</ele>
        <time>2017-03-02T10:23:08Z</time>
      </trkpt>
      <trkpt lat="45.74162" lon="4.38305">
        <ele>562</ele>
        <time>2017-03-02T10:23:09Z</time>
      </trkpt>
      <trkpt lat="45.7416" lon="4.38317">
        <ele>563</ele>
        <time>2017-03-02T10:23:15Z</time>
      </trkpt>
      <trkpt lat="45.7416" lon="4.38319">
        <ele>564</ele>
        <time>2017-03-02T10:23:16Z</time>
      </trkpt>
      <trkpt lat="45.74158" lon="4.38331">
        <ele>565</ele>
        <time>2017-03-02T10:23:22Z</time>
      </trkpt>
      <trkpt lat="45.74157" lon="4.38333">
        <ele>565</ele>
        <time>2017-03-02T10:23:23Z</time>
      </trkpt>
      <trkpt lat="45.74155" lon="4.38344">
        <ele>567</ele>
        <time>2017-03-02T10:23:29Z</time>
      </trkpt>
      <trkpt lat="45.74154" lon="4.38346">
        <ele>567</ele>
        <time>2017-03-02T10:23:30Z</time>
      </trkpt>
      <trkpt lat="45.74152" lon="4.38357">
        <ele>567</ele>
        <time>2017-03-02T10:23:36Z</time>
      </trkpt>
      <trkpt lat="45.74152" lon="4.38359">
        <ele>567</ele>
        <time>2017-03-02T10:23:37Z</time>
      </trkpt>
      <trkpt lat="45.7415" lon="4.38369">
        <ele>567</ele>
        <time>2017-03-02T10:23:43Z</time>
      </trkpt>
      <trkpt lat="45.74149" lon="4.38371">
        <ele>567</ele>
        <time>2017-03-02T10:23:44Z</time>
      </trkpt>
      <trkpt lat="45.74146" lon="4.38382">
        <ele>568</ele>
        <time>2017-03-02T10:23:51Z</time>
      </trkpt>
      <trkpt lat="45.74145" lon="4.38384">
        <ele>568</ele>
        <time>2017-03-02T10:23:52Z</time>
      </trkpt>
      <trkpt lat="45.74142" lon="4.38395">
        <ele>568</ele>
        <time>2017-03-02T10:23:59Z</time>
      </trkpt>
      <trkpt lat="45.74142" lon="4.38397">
        <ele>568</ele>
        <time>2017-03-02T10:24:00Z</time>
      </trkpt>
      <trkpt lat="45.7414" lon="4.38408">
        <ele>569</ele>
        <time>2017-03-02T10:24:07Z</time>
      </trkpt>
      <trkpt lat="45.7414" lon="4.3841">
        <ele>569</ele>
        <time>2017-03-02T10:24:08Z</time>
      </trkpt>
      <trkpt lat="45.74138" lon="4.38421">
        <ele>572</ele>
        <time>2017-03-02T10:24:15Z</time>
      </trkpt>
      <trkpt lat="45.74138" lon="4.38423">
        <ele>572</ele>
        <time>2017-03-02T10:24:16Z</time>
      </trkpt>
      <trkpt lat="45.74136" lon="4.38435">
        <ele>573</ele>
        <time>2017-03-02T10:24:23Z</time>
      </trkpt>
      <trkpt lat="45.74135" lon="4.38436">
        <ele>573</ele>
        <time>2017-03-02T10:24:24Z</time>
      </trkpt>
      <trkpt lat="45.74133" lon="4.38447">
        <ele>573</ele>
        <time>2017-03-02T10:24:31Z</time>
      </trkpt>
      <trkpt lat="45.74133" lon="4.38449">
        <ele>573</ele>
        <time>2017-03-02T10:24:32Z</time>
      </trkpt>
      <trkpt lat="45.74132" lon="4.38461">
        <ele>573</ele>
        <time>2017-03-02T10:24:39Z</time>
      </trkpt>
      <trkpt lat="45.74131" lon="4.38462">
        <ele>573</ele>
        <time>2017-03-02T10:24:40Z</time>
      </trkpt>
      <trkpt lat="45.74128" lon="4.38474">
        <ele>574</ele>
        <time>2017-03-02T10:24:47Z</time>
      </trkpt>
      <trkpt lat="45.74128" lon="4.38476">
        <ele>574</ele>
        <time>2017-03-02T10:24:48Z</time>
      </trkpt>
      <trkpt lat="45.74127" lon="4.38488">
        <ele>574</ele>
        <time>2017-03-02T10:24:55Z</time>
      </trkpt>
      <trkpt lat="45.74127" lon="4.38489">
        <ele>574</ele>
        <time>2017-03-02T10:24:56Z</time>
      </trkpt>
      <trkpt lat="45.74125" lon="4.38501">
        <ele>578</ele>
        <time>2017-03-02T10:25:04Z</time>
      </trkpt>
      <trkpt lat="45.74125" lon="4.38503">
        <ele>578</ele>
        <time>2017-03-02T10:25:05Z</time>
      </trkpt>
      <trkpt lat="45.74124" lon="4.38515">
        <ele>578</ele>
        <time>2017-03-02T10:25:13Z</time>
      </trkpt>
      <trkpt lat="45.74125" lon="4.38517">
        <ele>578</ele>
        <time>2017-03-02T10:25:14Z</time>
      </trkpt>
      <trkpt lat="45.74125" lon="4.38529">
        <ele>579</ele>
        <time>2017-03-02T10:25:22Z</time>
      </trkpt>
      <trkpt lat="45.74125" lon="4.3853">
        <ele>579</ele>
        <time>2017-03-02T10:25:23Z</time>
      </trkpt>
      <trkpt lat="45.74125" lon="4.38543">
        <ele>579</ele>
        <time>2017-03-02T10:25:31Z</time>
      </trkpt>
      <trkpt lat="45.74125" lon="4.38545">
        <ele>579</ele>
        <time>2017-03-02T10:25:32Z</time>
      </trkpt>
      <trkpt lat="45.74125" lon="4.38557">
        <ele>580</ele>
        <time>2017-03-02T10:25:39Z</time>
      </trkpt>
      <trkpt lat="45.74125" lon="4.38558">
        <ele>580</ele>
        <time>2017-03-02T10:25:40Z</time>
      </trkpt>
      <trkpt lat="45.74126" lon="4.3857">
        <ele>580</ele>
        <time>2017-03-02T10:25:47Z</time>
      </trkpt>
      <trkpt lat="45.74126" lon="4.38571">
        <ele>580</ele>
        <time>2017-03-02T10:25:48Z</time>
      </trkpt>
      <trkpt lat="45.74125" lon="4.38583">
        <ele>580</ele>
        <time>2017-03-02T10:25:55Z</time>
      </trkpt>
      <trkpt lat="45.74125" lon="4.38585">
        <ele>584</ele>
        <time>2017-03-02T10:25:56Z</time>
      </trkpt>
      <trkpt lat="45.74123" lon="4.38597">
        <ele>584</ele>
        <time>2017-03-02T10:26:03Z</time>
      </trkpt>
      <trkpt lat="45.74123" lon="4.38599">
        <ele>584</ele>
        <time>2017-03-02T10:26:04Z</time>
      </trkpt>
      <trkpt lat="45.74124" lon="4.3861">
        <ele>584</ele>
        <time>2017-03-02T10:26:11Z</time>
      </trkpt>
      <trkpt lat="45.74124" lon="4.38612">
        <ele>584</ele>
        <time>2017-03-02T10:26:12Z</time>
      </trkpt>
      <trkpt lat="45.74125" lon="4.38624">
        <ele>584</ele>
        <time>2017-03-02T10:26:19Z</time>
      </trkpt>
      <trkpt lat="45.74125" lon="4.38626">
        <ele>584</ele>
        <time>2017-03-02T10:26:20Z</time>
      </trkpt>
      <trkpt lat="45.74126" lon="4.38638">
        <ele>585</ele>
        <time>2017-03-02T10:26:29Z</time>
      </trkpt>
      <trkpt lat="45.74126" lon="4.3864">
        <ele>585</ele>
        <time>2017-03-02T10:26:30Z</time>
      </trkpt>
      <trkpt lat="45.74127" lon="4.38651">
        <ele>585</ele>
        <time>2017-03-02T10:26:37Z</time>
      </trkpt>
      <trkpt lat="45.74128" lon="4.38653">
        <ele>585</ele>
        <time>2017-03-02T10:26:38Z</time>
      </trkpt>
      <trkpt lat="45.74129" lon="4.38665">
        <ele>585</ele>
        <time>2017-03-02T10:26:45Z</time>
      </trkpt>
      <trkpt lat="45.74129" lon="4.38667">
        <ele>586</ele>
        <time>2017-03-02T10:26:46Z</time>
      </trkpt>
      <trkpt lat="45.74131" lon="4.38678">
        <ele>586</ele>
        <time>2017-03-02T10:26:53Z</time>
      </trkpt>
      <trkpt lat="45.74131" lon="4.3868">
        <ele>586</ele>
        <time>2017-03-02T10:26:54Z</time>
      </trkpt>
      <trkpt lat="45.74133" lon="4.38692">
        <ele>586</ele>
        <time>2017-03-02T10:27:09Z</time>
      </trkpt>
      <trkpt lat="45.74133" lon="4.38692">
        <ele>586</ele>
        <time>2017-03-02T10:27:10Z</time>
      </trkpt>
      <trkpt lat="45.74137" lon="4.38702">
        <ele>586</ele>
        <time>2017-03-02T10:29:46Z</time>
      </trkpt>
      <trkpt lat="45.74138" lon="4.38704">
        <ele>586</ele>
        <time>2017-03-02T10:29:47Z</time>
      </trkpt>
      <trkpt lat="45.74144" lon="4.38713">
        <ele>586</ele>
        <time>2017-03-02T10:30:14Z</time>
      </trkpt>
      <trkpt lat="45.74144" lon="4.38714">
        <ele>586</ele>
        <time>2017-03-02T10:30:15Z</time>
      </trkpt>
      <trkpt lat="45.74144" lon="4.38726">
        <ele>586</ele>
        <time>2017-03-02T10:30:37Z</time>
      </trkpt>
      <trkpt lat="45.74143" lon="4.38727">
        <ele>586</ele>
        <time>2017-03-02T10:30:38Z</time>
      </trkpt>
      <trkpt lat="45.74137" lon="4.38736">
        <ele>586</ele>
        <time>2017-03-02T10:30:46Z</time>
      </trkpt>
      <trkpt lat="45.74136" lon="4.38737">
        <ele>586</ele>
        <time>2017-03-02T10:30:47Z</time>
      </trkpt>
      <trkpt lat="45.7413" lon="4.38744">
        <ele>586</ele>
        <time>2017-03-02T10:30:53Z</time>
      </trkpt>
      <trkpt lat="45.74129" lon="4.38746">
        <ele>586</ele>
        <time>2017-03-02T10:30:54Z</time>
      </trkpt>
      <trkpt lat="45.74123" lon="4.38754">
        <ele>584</ele>
        <time>2017-03-02T10:31:01Z</time>
      </trkpt>
      <trkpt lat="45.74122" lon="4.38755">
        <ele>583</ele>
        <time>2017-03-02T10:31:02Z</time>
      </trkpt>
      <trkpt lat="45.74116" lon="4.38763">
        <ele>583</ele>
        <time>2017-03-02T10:31:08Z</time>
      </trkpt>
      <trkpt lat="45.74115" lon="4.38764">
        <ele>583</ele>
        <time>2017-03-02T10:31:09Z</time>
      </trkpt>
      <trkpt lat="45.74109" lon="4.38772">
        <ele>583</ele>
        <time>2017-03-02T10:31:16Z</time>
      </trkpt>
      <trkpt lat="45.74108" lon="4.38774">
        <ele>583</ele>
        <time>2017-03-02T10:31:17Z</time>
      </trkpt>
      <trkpt lat="45.74102" lon="4.38782">
        <ele>583</ele>
        <time>2017-03-02T10:31:23Z</time>
      </trkpt>
      <trkpt lat="45.74101" lon="4.38784">
        <ele>583</ele>
        <time>2017-03-02T10:31:24Z</time>
      </trkpt>
      <trkpt lat="45.74095" lon="4.38791">
        <ele>582</ele>
        <time>2017-03-02T10:31:29Z</time>
      </trkpt>
      <trkpt lat="45.74094" lon="4.38793">
        <ele>582</ele>
        <time>2017-03-02T10:31:30Z</time>
      </trkpt>
      <trkpt lat="45.74088" lon="4.38799">
        <ele>582</ele>
        <time>2017-03-02T10:31:35Z</time>
      </trkpt>
      <trkpt lat="45.74087" lon="4.38801">
        <ele>582</ele>
        <time>2017-03-02T10:31:36Z</time>
      </trkpt>
      <trkpt lat="45.7408" lon="4.38808">
        <ele>580</ele>
        <time>2017-03-02T10:31:42Z</time>
      </trkpt>
      <trkpt lat="45.74079" lon="4.3881">
        <ele>580</ele>
        <time>2017-03-02T10:31:43Z</time>
      </trkpt>
      <trkpt lat="45.74073" lon="4.38818">
        <ele>580</ele>
        <time>2017-03-02T10:31:50Z</time>
      </trkpt>
      <trkpt lat="45.74072" lon="4.38819">
        <ele>580</ele>
        <time>2017-03-02T10:31:51Z</time>
      </trkpt>
      <trkpt lat="45.74066" lon="4.38828">
        <ele>580</ele>
        <time>2017-03-02T10:31:57Z</time>
      </trkpt>
      <trkpt lat="45.74065" lon="4.38829">
        <ele>580</ele>
        <time>2017-03-02T10:31:58Z</time>
      </trkpt>
      <trkpt lat="45.74059" lon="4.38837">
        <ele>578</ele>
        <time>2017-03-02T10:32:05Z</time>
      </trkpt>
      <trkpt lat="45.74058" lon="4.38838">
        <ele>578</ele>
        <time>2017-03-02T10:32:06Z</time>
      </trkpt>
      <trkpt lat="45.74051" lon="4.38845">
        <ele>578</ele>
        <time>2017-03-02T10:32:13Z</time>
      </trkpt>
      <trkpt lat="45.7405" lon="4.38846">
        <ele>578</ele>
        <time>2017-03-02T10:32:14Z</time>
      </trkpt>
      <trkpt lat="45.74044" lon="4.38854">
        <ele>577</ele>
        <time>2017-03-02T10:32:20Z</time>
      </trkpt>
      <trkpt lat="45.74043" lon="4.38855">
        <ele>577</ele>
        <time>2017-03-02T10:32:21Z</time>
      </trkpt>
      <trkpt lat="45.74036" lon="4.38861">
        <ele>577</ele>
        <time>2017-03-02T10:32:26Z</time>
      </trkpt>
      <trkpt lat="45.74035" lon="4.38862">
        <ele>577</ele>
        <time>2017-03-02T10:32:27Z</time>
      </trkpt>
      <trkpt lat="45.74029" lon="4.3887">
        <ele>577</ele>
        <time>2017-03-02T10:32:34Z</time>
      </trkpt>
      <trkpt lat="45.74028" lon="4.38871">
        <ele>577</ele>
        <time>2017-03-02T10:32:35Z</time>
      </trkpt>
      <trkpt lat="45.74025" lon="4.38883">
        <ele>577</ele>
        <time>2017-03-02T10:32:46Z</time>
      </trkpt>
      <trkpt lat="45.74024" lon="4.38885">
        <ele>577</ele>
        <time>2017-03-02T10:32:47Z</time>
      </trkpt>
      <trkpt lat="45.74017" lon="4.38892">
        <ele>577</ele>
        <time>2017-03-02T10:32:53Z</time>
      </trkpt>
      <trkpt lat="45.74016" lon="4.38894">
        <ele>577</ele>
        <time>2017-03-02T10:32:54Z</time>
      </trkpt>
      <trkpt lat="45.74012" lon="4.38904">
        <ele>576</ele>
        <time>2017-03-02T10:33:01Z</time>
      </trkpt>
      <trkpt lat="45.74011" lon="4.38905">
        <ele>576</ele>
        <time>2017-03-02T10:33:02Z</time>
      </trkpt>
      <trkpt lat="45.74006" lon="4.38914">
        <ele>576</ele>
        <time>2017-03-02T10:33:09Z</time>
      </trkpt>
      <trkpt lat="45.74005" lon="4.38915">
        <ele>576</ele>
        <time>2017-03-02T10:33:10Z</time>
      </trkpt>
      <trkpt lat="45.73999" lon="4.38924">
        <ele>575</ele>
        <time>2017-03-02T10:33:15Z</time>
      </trkpt>
      <trkpt lat="45.73998" lon="4.38926">
        <ele>574</ele>
        <time>2017-03-02T10:33:16Z</time>
      </trkpt>
      <trkpt lat="45.73996" lon="4.38936">
        <ele>573</ele>
        <time>2017-03-02T10:33:21Z</time>
      </trkpt>
      <trkpt lat="45.73995" lon="4.38938">
        <ele>573</ele>
        <time>2017-03-02T10:33:22Z</time>
      </trkpt>
      <trkpt lat="45.73994" lon="4.38949">
        <ele>572</ele>
        <time>2017-03-02T10:33:28Z</time>
      </trkpt>
      <trkpt lat="45.73994" lon="4.38951">
        <ele>572</ele>
        <time>2017-03-02T10:33:29Z</time>
      </trkpt>
      <trkpt lat="45.73991" lon="4.38961">
        <ele>571</ele>
        <time>2017-03-02T10:33:35Z</time>
      </trkpt>
      <trkpt lat="45.7399" lon="4.38963">
        <ele>571</ele>
        <time>2017-03-02T10:33:36Z</time>
      </trkpt>
      <trkpt lat="45.73986" lon="4.38974">
        <ele>570</ele>
        <time>2017-03-02T10:33:41Z</time>
      </trkpt>
      <trkpt lat="45.73985" lon="4.38976">
        <ele>570</ele>
        <time>2017-03-02T10:33:42Z</time>
      </trkpt>
      <trkpt lat="45.73979" lon="4.38985">
        <ele>570</ele>
        <time>2017-03-02T10:33:49Z</time>
      </trkpt>
      <trkpt lat="45.73978" lon="4.38987">
        <ele>570</ele>
        <time>2017-03-02T10:33:50Z</time>
      </trkpt>
      <trkpt lat="45.73972" lon="4.38994">
        <ele>569</ele>
        <time>2017-03-02T10:33:57Z</time>
      </trkpt>
      <trkpt lat="45.73971" lon="4.38996">
        <ele>569</ele>
        <time>2017-03-02T10:33:58Z</time>
      </trkpt>
      <trkpt lat="45.73966" lon="4.39001">
        <ele>566</ele>
        <time>2017-03-02T10:34:02Z</time>
      </trkpt>
      <trkpt lat="45.73963" lon="4.39003">
        <ele>566</ele>
        <time>2017-03-02T10:34:03Z</time>
      </trkpt>
      <trkpt lat="45.73955" lon="4.39008">
        <ele>566</ele>
        <time>2017-03-02T10:34:07Z</time>
      </trkpt>
      <trkpt lat="45.73954" lon="4.39009">
        <ele>566</ele>
        <time>2017-03-02T10:34:08Z</time>
      </trkpt>
      <trkpt lat="45.73946" lon="4.39014">
        <ele>566</ele>
        <time>2017-03-02T10:34:14Z</time>
      </trkpt>
      <trkpt lat="45.73945" lon="4.39016">
        <ele>566</ele>
        <time>2017-03-02T10:34:15Z</time>
      </trkpt>
      <trkpt lat="45.73938" lon="4.39023">
        <ele>565</ele>
        <time>2017-03-02T10:34:21Z</time>
      </trkpt>
      <trkpt lat="45.73937" lon="4.39024">
        <ele>565</ele>
        <time>2017-03-02T10:34:22Z</time>
      </trkpt>
      <trkpt lat="45.73929" lon="4.39027">
        <ele>565</ele>
        <time>2017-03-02T10:34:28Z</time>
      </trkpt>
      <trkpt lat="45.73928" lon="4.39028">
        <ele>565</ele>
        <time>2017-03-02T10:34:29Z</time>
      </trkpt>
      <trkpt lat="45.73921" lon="4.39034">
        <ele>565</ele>
        <time>2017-03-02T10:34:35Z</time>
      </trkpt>
      <trkpt lat="45.7392" lon="4.39034">
        <ele>565</ele>
        <time>2017-03-02T10:34:36Z</time>
      </trkpt>
      <trkpt lat="45.73912" lon="4.39042">
        <ele>562</ele>
        <time>2017-03-02T10:34:43Z</time>
      </trkpt>
      <trkpt lat="45.73911" lon="4.39043">
        <ele>562</ele>
        <time>2017-03-02T10:34:44Z</time>
      </trkpt>
      <trkpt lat="45.73904" lon="4.39051">
        <ele>562</ele>
        <time>2017-03-02T10:34:51Z</time>
      </trkpt>
      <trkpt lat="45.73904" lon="4.39052">
        <ele>562</ele>
        <time>2017-03-02T10:34:52Z</time>
      </trkpt>
      <trkpt lat="45.73896" lon="4.39056">
        <ele>562</ele>
        <time>2017-03-02T10:34:59Z</time>
      </trkpt>
      <trkpt lat="45.73895" lon="4.39057">
        <ele>562</ele>
        <time>2017-03-02T10:35:00Z</time>
      </trkpt>
      <trkpt lat="45.73889" lon="4.39064">
        <ele>561</ele>
        <time>2017-03-02T10:35:05Z</time>
      </trkpt>
      <trkpt lat="45.73888" lon="4.39065">
        <ele>561</ele>
        <time>2017-03-02T10:35:06Z</time>
      </trkpt>
      <trkpt lat="45.73881" lon="4.3907">
        <ele>561</ele>
        <time>2017-03-02T10:35:11Z</time>
      </trkpt>
      <trkpt lat="45.73879" lon="4.39071">
        <ele>561</ele>
        <time>2017-03-02T10:35:12Z</time>
      </trkpt>
      <trkpt lat="45.73872" lon="4.39077">
        <ele>561</ele>
        <time>2017-03-02T10:35:17Z</time>
      </trkpt>
      <trkpt lat="45.73871" lon="4.39078">
        <ele>561</ele>
        <time>2017-03-02T10:35:18Z</time>
      </trkpt>
      <trkpt lat="45.73864" lon="4.39084">
        <ele>558</ele>
        <time>2017-03-02T10:35:23Z</time>
      </trkpt>
      <trkpt lat="45.73863" lon="4.39085">
        <ele>558</ele>
        <time>2017-03-02T10:35:24Z</time>
      </trkpt>
      <trkpt lat="45.73856" lon="4.39091">
        <ele>558</ele>
        <time>2017-03-02T10:35:29Z</time>
      </trkpt>
      <trkpt lat="45.73855" lon="4.39093">
        <ele>558</ele>
        <time>2017-03-02T10:35:30Z</time>
      </trkpt>
      <trkpt lat="45.73847" lon="4.39098">
        <ele>558</ele>
        <time>2017-03-02T10:35:36Z</time>
      </trkpt>
      <trkpt lat="45.73846" lon="4.39099">
        <ele>558</ele>
        <time>2017-03-02T10:35:37Z</time>
      </trkpt>
      <trkpt lat="45.73837" lon="4.39103">
        <ele>558</ele>
        <time>2017-03-02T10:35:43Z</time>
      </trkpt>
      <trkpt lat="45.73836" lon="4.39104">
        <ele>558</ele>
        <time>2017-03-02T10:35:44Z</time>
      </trkpt>
      <trkpt lat="45.73829" lon="4.39109">
        <ele>557</ele>
        <time>2017-03-02T10:35:50Z</time>
      </trkpt>
      <trkpt lat="45.73828" lon="4.3911">
        <ele>557</ele>
        <time>2017-03-02T10:35:51Z</time>
      </trkpt>
      <trkpt lat="45.73819" lon="4.39113">
        <ele>556</ele>
        <time>2017-03-02T10:35:58Z</time>
      </trkpt>
      <trkpt lat="45.73818" lon="4.39113">
        <ele>556</ele>
        <time>2017-03-02T10:35:59Z</time>
      </trkpt>
      <trkpt lat="45.7381" lon="4.39118">
        <ele>556</ele>
        <time>2017-03-02T10:36:06Z</time>
      </trkpt>
      <trkpt lat="45.73808" lon="4.39118">
        <ele>556</ele>
        <time>2017-03-02T10:36:07Z</time>
      </trkpt>
      <trkpt lat="45.73799" lon="4.39118">
        <ele>555</ele>
        <time>2017-03-02T10:36:14Z</time>
      </trkpt>
      <trkpt lat="45.73798" lon="4.39118">
        <ele>555</ele>
        <time>2017-03-02T10:36:15Z</time>
      </trkpt>
      <trkpt lat="45.7379" lon="4.3912">
        <ele>555</ele>
        <time>2017-03-02T10:36:22Z</time>
      </trkpt>
      <trkpt lat="45.73789" lon="4.3912">
        <ele>555</ele>
        <time>2017-03-02T10:36:23Z</time>
      </trkpt>
      <trkpt lat="45.7378" lon="4.39122">
        <ele>555</ele>
        <time>2017-03-02T10:36:28Z</time>
      </trkpt>
      <trkpt lat="45.73779" lon="4.39122">
        <ele>555</ele>
        <time>2017-03-02T10:36:29Z</time>
      </trkpt>
      <trkpt lat="45.7377" lon="4.39126">
        <ele>554</ele>
        <time>2017-03-02T10:36:36Z</time>
      </trkpt>
      <trkpt lat="45.73769" lon="4.39126">
        <ele>554</ele>
        <time>2017-03-02T10:36:37Z</time>
      </trkpt>
      <trkpt lat="45.73761" lon="4.39126">
        <ele>554</ele>
        <time>2017-03-02T10:36:43Z</time>
      </trkpt>
      <trkpt lat="45.73759" lon="4.39126">
        <ele>554</ele>
        <time>2017-03-02T10:36:44Z</time>
      </trkpt>
      <trkpt lat="45.73751" lon="4.39126">
        <ele>554</ele>
        <time>2017-03-02T10:36:49Z</time>
      </trkpt>
      <trkpt lat="45.7375" lon="4.39127">
        <ele>551</ele>
        <time>2017-03-02T10:36:50Z</time>
      </trkpt>
      <trkpt lat="45.73742" lon="4.39129">
        <ele>551</ele>
        <time>2017-03-02T10:36:55Z</time>
      </trkpt>
      <trkpt lat="45.73741" lon="4.39129">
        <ele>551</ele>
        <time>2017-03-02T10:36:56Z</time>
      </trkpt>
      <trkpt lat="45.73732" lon="4.39127">
        <ele>551</ele>
        <time>2017-03-02T10:37:02Z</time>
      </trkpt>
      <trkpt lat="45.7373" lon="4.39127">
        <ele>551</ele>
        <time>2017-03-02T10:37:03Z</time>
      </trkpt>
      <trkpt lat="45.73722" lon="4.39127">
        <ele>551</ele>
        <time>2017-03-02T10:37:09Z</time>
      </trkpt>
      <trkpt lat="45.73721" lon="4.39127">
        <ele>551</ele>
        <time>2017-03-02T10:37:10Z</time>
      </trkpt>
      <trkpt lat="45.73713" lon="4.39125">
        <ele>551</ele>
        <time>2017-03-02T10:37:16Z</time>
      </trkpt>
      <trkpt lat="45.73711" lon="4.39125">
        <ele>551</ele>
        <time>2017-03-02T10:37:17Z</time>
      </trkpt>
      <trkpt lat="45.73702" lon="4.39123">
        <ele>550</ele>
        <time>2017-03-02T10:37:23Z</time>
      </trkpt>
      <trkpt lat="45.737" lon="4.39123">
        <ele>550</ele>
        <time>2017-03-02T10:37:24Z</time>
      </trkpt>
      <trkpt lat="45.73693" lon="4.39122">
        <ele>550</ele>
        <time>2017-03-02T10:37:29Z</time>
      </trkpt>
      <trkpt lat="45.73691" lon="4.39121">
        <ele>550</ele>
        <time>2017-03-02T10:37:30Z</time>
      </trkpt>
      <trkpt lat="45.73683" lon="4.39119">
        <ele>550</ele>
        <time>2017-03-02T10:37:36Z</time>
      </trkpt>
      <trkpt lat="45.73681" lon="4.39119">
        <ele>550</ele>
        <time>2017-03-02T10:37:37Z</time>
      </trkpt>
      <trkpt lat="45.73673" lon="4.3912">
        <ele>550</ele>
        <time>2017-03-02T10:37:43Z</time>
      </trkpt>
      <trkpt lat="45.73672" lon="4.3912">
        <ele>550</ele>
        <time>2017-03-02T10:37:44Z</time>
      </trkpt>
      <trkpt lat="45.73663" lon="4.39117">
        <ele>549</ele>
        <time>2017-03-02T10:37:51Z</time>
      </trkpt>
      <trkpt lat="45.73662" lon="4.39117">
        <ele>549</ele>
        <time>2017-03-02T10:37:52Z</time>
      </trkpt>
      <trkpt lat="45.73656" lon="4.39108">
        <ele>549</ele>
        <time>2017-03-02T10:38:01Z</time>
      </trkpt>
      <trkpt lat="45.73655" lon="4.39107">
        <ele>548</ele>
        <time>2017-03-02T10:38:02Z</time>
      </trkpt>
      <trkpt lat="45.73648" lon="4.39103">
        <ele>548</ele>
        <time>2017-03-02T10:38:08Z</time>
      </trkpt>
      <trkpt lat="45.73646" lon="4.39102">
        <ele>548</ele>
        <time>2017-03-02T10:38:09Z</time>
      </trkpt>
      <trkpt lat="45.73639" lon="4.39094">
        <ele>548</ele>
        <time>2017-03-02T10:38:15Z</time>
      </trkpt>
      <trkpt lat="45.73638" lon="4.39092">
        <ele>548</ele>
        <time>2017-03-02T10:38:16Z</time>
      </trkpt>
      <trkpt lat="45.73631" lon="4.39086">
        <ele>548</ele>
        <time>2017-03-02T10:38:25Z</time>
      </trkpt>
      <trkpt lat="45.7363" lon="4.39085">
        <ele>548</ele>
        <time>2017-03-02T10:38:26Z</time>
      </trkpt>
      <trkpt lat="45.73621" lon="4.39084">
        <ele>549</ele>
        <time>2017-03-02T10:38:35Z</time>
      </trkpt>
      <trkpt lat="45.7362" lon="4.39084">
        <ele>549</ele>
        <time>2017-03-02T10:38:36Z</time>
      </trkpt>
      <trkpt lat="45.73614" lon="4.39075">
        <ele>547</ele>
        <time>2017-03-02T10:38:43Z</time>
      </trkpt>
      <trkpt lat="45.73613" lon="4.39073">
        <ele>547</ele>
        <time>2017-03-02T10:38:44Z</time>
      </trkpt>
      <trkpt lat="45.73609" lon="4.39064">
        <ele>547</ele>
        <time>2017-03-02T10:38:49Z</time>
      </trkpt>
      <trkpt lat="45.73608" lon="4.39062">
        <ele>547</ele>
        <time>2017-03-02T10:38:50Z</time>
      </trkpt>
      <trkpt lat="45.73604" lon="4.39051">
        <ele>547</ele>
        <time>2017-03-02T10:38:56Z</time>
      </trkpt>
      <trkpt lat="45.73603" lon="4.3905">
        <ele>547</ele>
        <time>2017-03-02T10:38:57Z</time>
      </trkpt>
      <trkpt lat="45.73598" lon="4.3904">
        <ele>547</ele>
        <time>2017-03-02T10:39:03Z</time>
      </trkpt>
      <trkpt lat="45.73598" lon="4.39038">
        <ele>547</ele>
        <time>2017-03-02T10:39:04Z</time>
      </trkpt>
      <trkpt lat="45.73594" lon="4.39028">
        <ele>547</ele>
        <time>2017-03-02T10:39:10Z</time>
      </trkpt>
      <trkpt lat="45.73593" lon="4.39026">
        <ele>547</ele>
        <time>2017-03-02T10:39:11Z</time>
      </trkpt>
      <trkpt lat="45.73593" lon="4.39014">
        <ele>547</ele>
        <time>2017-03-02T10:40:26Z</time>
      </trkpt>
      <trkpt lat="45.73593" lon="4.39012">
        <ele>547</ele>
        <time>2017-03-02T10:40:27Z</time>
      </trkpt>
      <trkpt lat="45.7359" lon="4.39">
        <ele>548</ele>
        <time>2017-03-02T10:40:35Z</time>
      </trkpt>
      <trkpt lat="45.7359" lon="4.38999">
        <ele>548</ele>
        <time>2017-03-02T10:40:36Z</time>
      </trkpt>
      <trkpt lat="45.73589" lon="4.38986">
        <ele>549</ele>
        <time>2017-03-02T10:40:44Z</time>
      </trkpt>
      <trkpt lat="45.73589" lon="4.38984">
        <ele>549</ele>
        <time>2017-03-02T10:40:45Z</time>
      </trkpt>
      <trkpt lat="45.73589" lon="4.38972">
        <ele>549</ele>
        <time>2017-03-02T10:40:51Z</time>
      </trkpt>
      <trkpt lat="45.73589" lon="4.38971">
        <ele>550</ele>
        <time>2017-03-02T10:40:52Z</time>
      </trkpt>
      <trkpt lat="45.73591" lon="4.3896">
        <ele>550</ele>
        <time>2017-03-02T10:40:59Z</time>
      </trkpt>
      <trkpt lat="45.73591" lon="4.38958">
        <ele>550</ele>
        <time>2017-03-02T10:41:00Z</time>
      </trkpt>
      <trkpt lat="45.73592" lon="4.38946">
        <ele>551</ele>
        <time>2017-03-02T10:41:05Z</time>
      </trkpt>
      <trkpt lat="45.73593" lon="4.38944">
        <ele>551</ele>
        <time>2017-03-02T10:41:06Z</time>
      </trkpt>
      <trkpt lat="45.73593" lon="4.38933">
        <ele>551</ele>
        <time>2017-03-02T10:41:11Z</time>
      </trkpt>
      <trkpt lat="45.73593" lon="4.38931">
        <ele>551</ele>
        <time>2017-03-02T10:41:12Z</time>
      </trkpt>
      <trkpt lat="45.73593" lon="4.38919">
        <ele>552</ele>
        <time>2017-03-02T10:41:21Z</time>
      </trkpt>
      <trkpt lat="45.73593" lon="4.38917">
        <ele>552</ele>
        <time>2017-03-02T10:41:22Z</time>
      </trkpt>
      <trkpt lat="45.73594" lon="4.38905">
        <ele>553</ele>
        <time>2017-03-02T10:41:30Z</time>
      </trkpt>
      <trkpt lat="45.73595" lon="4.38903">
        <ele>553</ele>
        <time>2017-03-02T10:41:31Z</time>
      </trkpt>
      <trkpt lat="45.73595" lon="4.38891">
        <ele>554</ele>
        <time>2017-03-02T10:41:38Z</time>
      </trkpt>
      <trkpt lat="45.73595" lon="4.38889">
        <ele>554</ele>
        <time>2017-03-02T10:41:39Z</time>
      </trkpt>
      <trkpt lat="45.73598" lon="4.38877">
        <ele>554</ele>
        <time>2017-03-02T10:41:46Z</time>
      </trkpt>
      <trkpt lat="45.73598" lon="4.38876">
        <ele>554</ele>
        <time>2017-03-02T10:41:47Z</time>
      </trkpt>
      <trkpt lat="45.736" lon="4.38865">
        <ele>554</ele>
        <time>2017-03-02T10:42:04Z</time>
      </trkpt>
      <trkpt lat="45.736" lon="4.38863">
        <ele>554</ele>
        <time>2017-03-02T10:42:05Z</time>
      </trkpt>
      <trkpt lat="45.73601" lon="4.38852">
        <ele>554</ele>
        <time>2017-03-02T10:42:12Z</time>
      </trkpt>
      <trkpt lat="45.73602" lon="4.3885">
        <ele>554</ele>
        <time>2017-03-02T10:42:13Z</time>
      </trkpt>
      <trkpt lat="45.73602" lon="4.38839">
        <ele>554</ele>
        <time>2017-03-02T10:42:19Z</time>
      </trkpt>
      <trkpt lat="45.73602" lon="4.38836">
        <ele>554</ele>
        <time>2017-03-02T10:42:20Z</time>
      </trkpt>
      <trkpt lat="45.73601" lon="4.38825">
        <ele>557</ele>
        <time>2017-03-02T10:42:26Z</time>
      </trkpt>
      <trkpt lat="45.73601" lon="4.38823">
        <ele>557</ele>
        <time>2017-03-02T10:42:27Z</time>
      </trkpt>
      <trkpt lat="45.73595" lon="4.38815">
        <ele>557</ele>
        <time>2017-03-02T10:42:34Z</time>
      </trkpt>
      <trkpt lat="45.73594" lon="4.38814">
        <ele>557</ele>
        <time>2017-03-02T10:42:35Z</time>
      </trkpt>
      <trkpt lat="45.73587" lon="4.38809">
        <ele>557</ele>
        <time>2017-03-02T10:42:42Z</time>
      </trkpt>
      <trkpt lat="45.73586" lon="4.38809">
        <ele>557</ele>
        <time>2017-03-02T10:42:43Z</time>
      </trkpt>
      <trkpt lat="45.73578" lon="4.38806">
        <ele>557</ele>
        <time>2017-03-02T10:42:49Z</time>
      </trkpt>
      <trkpt lat="45.73577" lon="4.38806">
        <ele>557</ele>
        <time>2017-03-02T10:42:50Z</time>
      </trkpt>
      <trkpt lat="45.73568" lon="4.38806">
        <ele>557</ele>
        <time>2017-03-02T10:42:57Z</time>
      </trkpt>
      <trkpt lat="45.73567" lon="4.38806">
        <ele>557</ele>
        <time>2017-03-02T10:42:58Z</time>
      </trkpt>
      <trkpt lat="45.73558" lon="4.38807">
        <ele>558</ele>
        <time>2017-03-02T10:43:05Z</time>
      </trkpt>
      <trkpt lat="45.73557" lon="4.38807">
        <ele>558</ele>
        <time>2017-03-02T10:43:06Z</time>
      </trkpt>
      <trkpt lat="45.73548" lon="4.38807">
        <ele>558</ele>
        <time>2017-03-02T10:43:14Z</time>
      </trkpt>
      <trkpt lat="45.73547" lon="4.38806">
        <ele>558</ele>
        <time>2017-03-02T10:43:15Z</time>
      </trkpt>
      <trkpt lat="45.73539" lon="4.38803">
        <ele>558</ele>
        <time>2017-03-02T10:43:21Z</time>
      </trkpt>
      <trkpt lat="45.73538" lon="4.38802">
        <ele>558</ele>
        <time>2017-03-02T10:43:22Z</time>
      </trkpt>
      <trkpt lat="45.73532" lon="4.38793">
        <ele>559</ele>
        <time>2017-03-02T10:43:29Z</time>
      </trkpt>
      <trkpt lat="45.73531" lon="4.38792">
        <ele>559</ele>
        <time>2017-03-02T10:43:30Z</time>
      </trkpt>
      <trkpt lat="45.7353" lon="4.38781">
        <ele>559</ele>
        <time>2017-03-02T10:43:37Z</time>
      </trkpt>
      <trkpt lat="45.7353" lon="4.38779">
        <ele>559</ele>
        <time>2017-03-02T10:43:38Z</time>
      </trkpt>
      <trkpt lat="45.73528" lon="4.38766">
        <ele>560</ele>
        <time>2017-03-02T10:43:46Z</time>
      </trkpt>
      <trkpt lat="45.73528" lon="4.38765">
        <ele>560</ele>
        <time>2017-03-02T10:43:47Z</time>
      </trkpt>
      <trkpt lat="45.73524" lon="4.38755">
        <ele>560</ele>
        <time>2017-03-02T10:44:00Z</time>
      </trkpt>
      <trkpt lat="45.73524" lon="4.38754">
        <ele>560</ele>
        <time>2017-03-02T10:44:01Z</time>
      </trkpt>
      <trkpt lat="45.73524" lon="4.38742">
        <ele>564</ele>
        <time>2017-03-02T10:44:08Z</time>
      </trkpt>
      <trkpt lat="45.73524" lon="4.3874">
        <ele>564</ele>
        <time>2017-03-02T10:44:09Z</time>
      </trkpt>
      <trkpt lat="45.73524" lon="4.38728">
        <ele>564</ele>
        <time>2017-03-02T10:44:14Z</time>
      </trkpt>
      <trkpt lat="45.73524" lon="4.38726">
        <ele>564</ele>
        <time>2017-03-02T10:44:15Z</time>
      </trkpt>
      <trkpt lat="45.73525" lon="4.38714">
        <ele>565</ele>
        <time>2017-03-02T10:44:20Z</time>
      </trkpt>
      <trkpt lat="45.73525" lon="4.38712">
        <ele>565</ele>
        <time>2017-03-02T10:44:21Z</time>
      </trkpt>
      <trkpt lat="45.73525" lon="4.38701">
        <ele>565</ele>
        <time>2017-03-02T10:44:27Z</time>
      </trkpt>
      <trkpt lat="45.73525" lon="4.38699">
        <ele>565</ele>
        <time>2017-03-02T10:44:28Z</time>
      </trkpt>
      <trkpt lat="45.73525" lon="4.38688">
        <ele>566</ele>
        <time>2017-03-02T10:44:34Z</time>
      </trkpt>
      <trkpt lat="45.73525" lon="4.38686">
        <ele>566</ele>
        <time>2017-03-02T10:44:35Z</time>
      </trkpt>
      <trkpt lat="45.73525" lon="4.38675">
        <ele>566</ele>
        <time>2017-03-02T10:44:41Z</time>
      </trkpt>
      <trkpt lat="45.73525" lon="4.38673">
        <ele>566</ele>
        <time>2017-03-02T10:44:42Z</time>
      </trkpt>
      <trkpt lat="45.73525" lon="4.3866">
        <ele>570</ele>
        <time>2017-03-02T10:44:49Z</time>
      </trkpt>
      <trkpt lat="45.73525" lon="4.38658">
        <ele>570</ele>
        <time>2017-03-02T10:44:50Z</time>
      </trkpt>
      <trkpt lat="45.73525" lon="4.38646">
        <ele>571</ele>
        <time>2017-03-02T10:44:57Z</time>
      </trkpt>
      <trkpt lat="45.73525" lon="4.38644">
        <ele>571</ele>
        <time>2017-03-02T10:44:58Z</time>
      </trkpt>
      <trkpt lat="45.73525" lon="4.38631">
        <ele>571</ele>
        <time>2017-03-02T10:45:05Z</time>
      </trkpt>
      <trkpt lat="45.73525" lon="4.38629">
        <ele>571</ele>
        <time>2017-03-02T10:45:06Z</time>
      </trkpt>
      <trkpt lat="45.73524" lon="4.38617">
        <ele>572</ele>
        <time>2017-03-02T10:45:14Z</time>
      </trkpt>
      <trkpt lat="45.73524" lon="4.38615">
        <ele>572</ele>
        <time>2017-03-02T10:45:15Z</time>
      </trkpt>
      <trkpt lat="45.73523" lon="4.38604">
        <ele>573</ele>
        <time>2017-03-02T10:45:22Z</time>
      </trkpt>
      <trkpt lat="45.73524" lon="4.38602">
        <ele>573</ele>
        <time>2017-03-02T10:45:23Z</time>
      </trkpt>
      <trkpt lat="45.73522" lon="4.3859">
        <ele>574</ele>
        <time>2017-03-02T10:45:30Z</time>
      </trkpt>
      <trkpt lat="45.73522" lon="4.38588">
        <ele>574</ele>
        <time>2017-03-02T10:45:31Z</time>
      </trkpt>
      <trkpt lat="45.73522" lon="4.38575">
        <ele>578</ele>
        <time>2017-03-02T10:45:38Z</time>
      </trkpt>
      <trkpt lat="45.73522" lon="4.38573">
        <ele>578</ele>
        <time>2017-03-02T10:45:39Z</time>
      </trkpt>
      <trkpt lat="45.73522" lon="4.38562">
        <ele>579</ele>
        <time>2017-03-02T10:45:46Z</time>
      </trkpt>
      <trkpt lat="45.73522" lon="4.3856">
        <ele>579</ele>
        <time>2017-03-02T10:45:47Z</time>
      </trkpt>
      <trkpt lat="45.73524" lon="4.38548">
        <ele>580</ele>
        <time>2017-03-02T10:45:55Z</time>
      </trkpt>
      <trkpt lat="45.73524" lon="4.38546">
        <ele>580</ele>
        <time>2017-03-02T10:45:56Z</time>
      </trkpt>
      <trkpt lat="45.73529" lon="4.38536">
        <ele>580</ele>
        <time>2017-03-02T10:46:04Z</time>
      </trkpt>
      <trkpt lat="45.73529" lon="4.38535">
        <ele>580</ele>
        <time>2017-03-02T10:46:05Z</time>
      </trkpt>
      <trkpt lat="45.73533" lon="4.38524">
        <ele>581</ele>
        <time>2017-03-02T10:46:12Z</time>
      </trkpt>
      <trkpt lat="45.73534" lon="4.38522">
        <ele>581</ele>
        <time>2017-03-02T10:46:13Z</time>
      </trkpt>
      <trkpt lat="45.73537" lon="4.38511">
        <ele>581</ele>
        <time>2017-03-02T10:46:20Z</time>
      </trkpt>
      <trkpt lat="45.73537" lon="4.38509">
        <ele>581</ele>
        <time>2017-03-02T10:46:21Z</time>
      </trkpt>
      <trkpt lat="45.73541" lon="4.38498">
        <ele>585</ele>
        <time>2017-03-02T10:46:27Z</time>
      </trkpt>
      <trkpt lat="45.73542" lon="4.38496">
        <ele>585</ele>
        <time>2017-03-02T10:46:28Z</time>
      </trkpt>
      <trkpt lat="45.73547" lon="4.38487">
        <ele>585</ele>
        <time>2017-03-02T10:46:33Z</time>
      </trkpt>
      <trkpt lat="45.73547" lon="4.38486">
        <ele>585</ele>
        <time>2017-03-02T10:46:34Z</time>
      </trkpt>
      <trkpt lat="45.73553" lon="4.38477">
        <ele>585</ele>
        <time>2017-03-02T10:46:41Z</time>
      </trkpt>
      <trkpt lat="45.73554" lon="4.38476">
        <ele>585</ele>
        <time>2017-03-02T10:46:42Z</time>
      </trkpt>
      <trkpt lat="45.7356" lon="4.38468">
        <ele>586</ele>
        <time>2017-03-02T10:46:48Z</time>
      </trkpt>
      <trkpt lat="45.73561" lon="4.38467">
        <ele>586</ele>
        <time>2017-03-02T10:46:49Z</time>
      </trkpt>
      <trkpt lat="45.73566" lon="4.38458">
        <ele>586</ele>
        <time>2017-03-02T10:46:55Z</time>
      </trkpt>
      <trkpt lat="45.73567" lon="4.38456">
        <ele>586</ele>
        <time>2017-03-02T10:46:56Z</time>
      </trkpt>
      <trkpt lat="45.73572" lon="4.38446">
        <ele>586</ele>
        <time>2017-03-02T10:47:02Z</time>
      </trkpt>
      <trkpt lat="45.73573" lon="4.38444">
        <ele>586</ele>
        <time>2017-03-02T10:47:03Z</time>
      </trkpt>
      <trkpt lat="45.73578" lon="4.38436">
        <ele>586</ele>
        <time>2017-03-02T10:47:10Z</time>
      </trkpt>
      <trkpt lat="45.73579" lon="4.38434">
        <ele>586</ele>
        <time>2017-03-02T10:47:11Z</time>
      </trkpt>
      <trkpt lat="45.73586" lon="4.38427">
        <ele>585</ele>
        <time>2017-03-02T10:47:18Z</time>
      </trkpt>
      <trkpt lat="45.73587" lon="4.38426">
        <ele>585</ele>
        <time>2017-03-02T10:47:19Z</time>
      </trkpt>
      <trkpt lat="45.73593" lon="4.38418">
        <ele>586</ele>
        <time>2017-03-02T10:47:25Z</time>
      </trkpt>
      <trkpt lat="45.73594" lon="4.38417">
        <ele>587</ele>
        <time>2017-03-02T10:47:26Z</time>
      </trkpt>
      <trkpt lat="45.73599" lon="4.38408">
        <ele>586</ele>
        <time>2017-03-02T10:47:32Z</time>
      </trkpt>
      <trkpt lat="45.736" lon="4.38406">
        <ele>586</ele>
        <time>2017-03-02T10:47:33Z</time>
      </trkpt>
      <trkpt lat="45.73606" lon="4.38398">
        <ele>586</ele>
        <time>2017-03-02T10:47:39Z</time>
      </trkpt>
      <trkpt lat="45.73607" lon="4.38396">
        <ele>586</ele>
        <time>2017-03-02T10:47:40Z</time>
      </trkpt>
      <trkpt lat="45.73613" lon="4.38388">
        <ele>586</ele>
        <time>2017-03-02T10:47:46Z</time>
      </trkpt>
      <trkpt lat="45.73614" lon="4.38387">
        <ele>586</ele>
        <time>2017-03-02T10:47:47Z</time>
      </trkpt>
      <trkpt lat="45.7362" lon="4.38378">
        <ele>586</ele>
        <time>2017-03-02T10:47:54Z</time>
      </trkpt>
      <trkpt lat="45.73621" lon="4.38377">
        <ele>586</ele>
        <time>2017-03-02T10:47:55Z</time>
      </trkpt>
      <trkpt lat="45.73626" lon="4.38369">
        <ele>586</ele>
        <time>2017-03-02T10:48:00Z</time>
      </trkpt>
      <trkpt lat="45.73627" lon="4.38368">
        <ele>586</ele>
        <time>2017-03-02T10:48:01Z</time>
      </trkpt>
      <trkpt lat="45.73633" lon="4.38359">
        <ele>586</ele>
        <time>2017-03-02T10:48:07Z</time>
      </trkpt>
      <trkpt lat="45.73634" lon="4.38358">
        <ele>586</ele>
        <time>2017-03-02T10:48:08Z</time>
      </trkpt>
      <trkpt lat="45.73638" lon="4.38347">
        <ele>587</ele>
        <time>2017-03-02T10:48:15Z</time>
      </trkpt>
      <trkpt lat="45.73638" lon="4.38345">
        <ele>587</ele>
        <time>2017-03-02T10:48:16Z</time>
      </trkpt>
      <trkpt lat="45.73633" lon="4.38336">
        <ele>587</ele>
        <time>2017-03-02T10:48:22Z</time>
      </trkpt>
      <trkpt lat="45.73632" lon="4.38334">
        <ele>587</ele>
        <time>2017-03-02T10:48:23Z</time>
      </trkpt>
      <trkpt lat="45.73624" lon="4.38329">
        <ele>587</ele>
        <time>2017-03-02T10:48:29Z</time>
      </trkpt>
      <trkpt lat="45.73623" lon="4.38328">
        <ele>587</ele>
        <time>2017-03-02T10:48:30Z</time>
      </trkpt>
      <trkpt lat="45.73615" lon="4.38324">
        <ele>587</ele>
        <time>2017-03-02T10:48:36Z</time>
      </trkpt>
      <trkpt lat="45.73614" lon="4.38323">
        <ele>587</ele>
        <time>2017-03-02T10:48:37Z</time>
      </trkpt>
      <trkpt lat="45.73605" lon="4.38321">
        <ele>587</ele>
        <time>2017-03-02T10:48:43Z</time>
      </trkpt>
      <trkpt lat="45.73604" lon="4.3832">
        <ele>587</ele>
        <time>2017-03-02T10:48:44Z</time>
      </trkpt>
      <trkpt lat="45.73597" lon="4.38315">
        <ele>587</ele>
        <time>2017-03-02T10:48:50Z</time>
      </trkpt>
      <trkpt lat="45.73596" lon="4.38313">
        <ele>587</ele>
        <time>2017-03-02T10:48:51Z</time>
      </trkpt>
      <trkpt lat="45.73589" lon="4.38305">
        <ele>587</ele>
        <time>2017-03-02T10:48:57Z</time>
      </trkpt>
      <trkpt lat="45.73588" lon="4.38304">
        <ele>586</ele>
        <time>2017-03-02T10:48:58Z</time>
      </trkpt>
      <trkpt lat="45.73581" lon="4.38299">
        <ele>586</ele>
        <time>2017-03-02T10:49:04Z</time>
      </trkpt>
      <trkpt lat="45.7358" lon="4.38298">
        <ele>586</ele>
        <time>2017-03-02T10:49:05Z</time>
      </trkpt>
      <trkpt lat="45.73573" lon="4.38294">
        <ele>585</ele>
        <time>2017-03-02T10:49:10Z</time>
      </trkpt>
      <trkpt lat="45.73571" lon="4.38293">
        <ele>585</ele>
        <time>2017-03-02T10:49:11Z</time>
      </trkpt>
      <trkpt lat="45.73565" lon="4.38287">
        <ele>585</ele>
        <time>2017-03-02T10:49:17Z</time>
      </trkpt>
      <trkpt lat="45.73563" lon="4.38286">
        <ele>585</ele>
        <time>2017-03-02T10:49:18Z</time>
      </trkpt>
      <trkpt lat="45.73555" lon="4.38281">
        <ele>585</ele>
        <time>2017-03-02T10:49:25Z</time>
      </trkpt>
      <trkpt lat="45.73554" lon="4.38281">
        <ele>584</ele>
        <time>2017-03-02T10:49:26Z</time>
      </trkpt>
      <trkpt lat="45.73546" lon="4.38276">
        <ele>584</ele>
        <time>2017-03-02T10:49:32Z</time>
      </trkpt>
      <trkpt lat="45.73545" lon="4.38275">
        <ele>584</ele>
        <time>2017-03-02T10:49:33Z</time>
      </trkpt>
      <trkpt lat="45.73537" lon="4.38271">
        <ele>584</ele>
        <time>2017-03-02T10:49:38Z</time>
      </trkpt>
      <trkpt lat="45.73536" lon="4.3827">
        <ele>584</ele>
        <time>2017-03-02T10:49:39Z</time>
      </trkpt>
      <trkpt lat="45.73527" lon="4.38265">
        <ele>583</ele>
        <time>2017-03-02T10:49:45Z</time>
      </trkpt>
      <trkpt lat="45.73526" lon="4.38265">
        <ele>583</ele>
        <time>2017-03-02T10:49:46Z</time>
      </trkpt>
      <trkpt lat="45.73519" lon="4.38262">
        <ele>583</ele>
        <time>2017-03-02T10:49:51Z</time>
      </trkpt>
      <trkpt lat="45.73517" lon="4.38261">
        <ele>583</ele>
        <time>2017-03-02T10:49:52Z</time>
      </trkpt>
      <trkpt lat="45.7351" lon="4.38258">
        <ele>582</ele>
        <time>2017-03-02T10:49:57Z</time>
      </trkpt>
      <trkpt lat="45.73508" lon="4.38257">
        <ele>582</ele>
        <time>2017-03-02T10:49:58Z</time>
      </trkpt>
      <trkpt lat="45.73501" lon="4.38254">
        <ele>581</ele>
        <time>2017-03-02T10:50:03Z</time>
      </trkpt>
      <trkpt lat="45.73499" lon="4.38253">
        <ele>580</ele>
        <time>2017-03-02T10:50:04Z</time>
      </trkpt>
      <trkpt lat="45.73492" lon="4.38251">
        <ele>581</ele>
        <time>2017-03-02T10:50:09Z</time>
      </trkpt>
      <trkpt lat="45.7349" lon="4.38251">
        <ele>581</ele>
        <time>2017-03-02T10:50:10Z</time>
      </trkpt>
      <trkpt lat="45.73483" lon="4.38248">
        <ele>579</ele>
        <time>2017-03-02T10:50:15Z</time>
      </trkpt>
      <trkpt lat="45.73481" lon="4.38248">
        <ele>579</ele>
        <time>2017-03-02T10:50:16Z</time>
      </trkpt>
      <trkpt lat="45.73474" lon="4.38245">
        <ele>579</ele>
        <time>2017-03-02T10:50:21Z</time>
      </trkpt>
      <trkpt lat="45.73472" lon="4.38245">
        <ele>579</ele>
        <time>2017-03-02T10:50:22Z</time>
      </trkpt>
      <trkpt lat="45.73465" lon="4.38242">
        <ele>578</ele>
        <time>2017-03-02T10:50:27Z</time>
      </trkpt>
      <trkpt lat="45.73463" lon="4.38241">
        <ele>578</ele>
        <time>2017-03-02T10:50:28Z</time>
      </trkpt>
      <trkpt lat="45.73455" lon="4.38239">
        <ele>579</ele>
        <time>2017-03-02T10:50:34Z</time>
      </trkpt>
      <trkpt lat="45.73454" lon="4.38239">
        <ele>579</ele>
        <time>2017-03-02T10:50:35Z</time>
      </trkpt>
      <trkpt lat="45.73445" lon="4.38236">
        <ele>579</ele>
        <time>2017-03-02T10:50:42Z</time>
      </trkpt>
      <trkpt lat="45.73444" lon="4.38236">
        <ele>579</ele>
        <time>2017-03-02T10:50:43Z</time>
      </trkpt>
      <trkpt lat="45.73437" lon="4.38232">
        <ele>579</ele>
        <time>2017-03-02T10:50:48Z</time>
      </trkpt>
      <trkpt lat="45.73435" lon="4.38231">
        <ele>579</ele>
        <time>2017-03-02T10:50:49Z</time>
      </trkpt>
      <trkpt lat="45.73427" lon="4.38226">
        <ele>579</ele>
        <time>2017-03-02T10:50:55Z</time>
      </trkpt>
      <trkpt lat="45.73426" lon="4.38226">
        <ele>579</ele>
        <time>2017-03-02T10:50:56Z</time>
      </trkpt>
      <trkpt lat="45.7342" lon="4.38217">
        <ele>579</ele>
        <time>2017-03-02T10:51:03Z</time>
      </trkpt>
      <trkpt lat="45.73419" lon="4.38216">
        <ele>579</ele>
        <time>2017-03-02T10:51:04Z</time>
      </trkpt>
      <trkpt lat="45.73412" lon="4.38209">
        <ele>579</ele>
        <time>2017-03-02T10:51:10Z</time>
      </trkpt>
      <trkpt lat="45.73411" lon="4.38208">
        <ele>579</ele>
        <time>2017-03-02T10:51:11Z</time>
      </trkpt>
      <trkpt lat="45.73404" lon="4.38201">
        <ele>579</ele>
        <time>2017-03-02T10:51:17Z</time>
      </trkpt>
      <trkpt lat="45.73403" lon="4.382">
        <ele>579</ele>
        <time>2017-03-02T10:51:18Z</time>
      </trkpt>
      <trkpt lat="45.73396" lon="4.38193">
        <ele>579</ele>
        <time>2017-03-02T10:51:25Z</time>
      </trkpt>
      <trkpt lat="45.73395" lon="4.38192">
        <ele>579</ele>
        <time>2017-03-02T10:51:26Z</time>
      </trkpt>
      <trkpt lat="45.73389" lon="4.38184">
        <ele>579</ele>
        <time>2017-03-02T10:51:32Z</time>
      </trkpt>
      <trkpt lat="45.73388" lon="4.38182">
        <ele>579</ele>
        <time>2017-03-02T10:51:33Z</time>
      </trkpt>
      <trkpt lat="45.73382" lon="4.38175">
        <ele>579</ele>
        <time>2017-03-02T10:51:39Z</time>
      </trkpt>
      <trkpt lat="45.73382" lon="4.38173">
        <ele>579</ele>
        <time>2017-03-02T10:51:40Z</time>
      </trkpt>
      <trkpt lat="45.73375" lon="4.38166">
        <ele>580</ele>
        <time>2017-03-02T10:51:46Z</time>
      </trkpt>
      <trkpt lat="45.73374" lon="4.38165">
        <ele>580</ele>
        <time>2017-03-02T10:51:47Z</time>
      </trkpt>
      <trkpt lat="45.73367" lon="4.38158">
        <ele>581</ele>
        <time>2017-03-02T10:51:53Z</time>
      </trkpt>
      <trkpt lat="45.73366" lon="4.38156">
        <ele>581</ele>
        <time>2017-03-02T10:51:54Z</time>
      </trkpt>
      <trkpt lat="45.7336" lon="4.38148">
        <ele>581</ele>
        <time>2017-03-02T10:52:00Z</time>
      </trkpt>
      <trkpt lat="45.7336" lon="4.38147">
        <ele>581</ele>
        <time>2017-03-02T10:52:01Z</time>
      </trkpt>
      <trkpt lat="45.73355" lon="4.38138">
        <ele>581</ele>
        <time>2017-03-02T10:52:08Z</time>
      </trkpt>
      <trkpt lat="45.73354" lon="4.38137">
        <ele>581</ele>
        <time>2017-03-02T10:52:09Z</time>
      </trkpt>
      <trkpt lat="45.73347" lon="4.38129">
        <ele>581</ele>
        <time>2017-03-02T10:52:15Z</time>
      </trkpt>
      <trkpt lat="45.73346" lon="4.38128">
        <ele>581</ele>
        <time>2017-03-02T10:52:16Z</time>
      </trkpt>
      <trkpt lat="45.7334" lon="4.3812">
        <ele>582</ele>
        <time>2017-03-02T10:52:22Z</time>
      </trkpt>
      <trkpt lat="45.73339" lon="4.38119">
        <ele>582</ele>
        <time>2017-03-02T10:52:23Z</time>
      </trkpt>
      <trkpt lat="45.73333" lon="4.38111">
        <ele>584</ele>
        <time>2017-03-02T10:52:29Z</time>
      </trkpt>
      <trkpt lat="45.73332" lon="4.38109">
        <ele>584</ele>
        <time>2017-03-02T10:52:30Z</time>
      </trkpt>
      <trkpt lat="45.73326" lon="4.38103">
        <ele>584</ele>
        <time>2017-03-02T10:52:36Z</time>
      </trkpt>
      <trkpt lat="45.73325" lon="4.38101">
        <ele>584</ele>
        <time>2017-03-02T10:52:37Z</time>
      </trkpt>
      <trkpt lat="45.73319" lon="4.38093">
        <ele>584</ele>
        <time>2017-03-02T10:52:43Z</time>
      </trkpt>
      <trkpt lat="45.73318" lon="4.38092">
        <ele>584</ele>
        <time>2017-03-02T10:52:44Z</time>
      </trkpt>
      <trkpt lat="45.73312" lon="4.38083">
        <ele>586</ele>
        <time>2017-03-02T10:52:51Z</time>
      </trkpt>
      <trkpt lat="45.73311" lon="4.38082">
        <ele>586</ele>
        <time>2017-03-02T10:52:52Z</time>
      </trkpt>
      <trkpt lat="45.73304" lon="4.38074">
        <ele>586</ele>
        <time>2017-03-02T10:52:59Z</time>
      </trkpt>
      <trkpt lat="45.73303" lon="4.38072">
        <ele>586</ele>
        <time>2017-03-02T10:53:00Z</time>
      </trkpt>
      <trkpt lat="45.73298" lon="4.38064">
        <ele>587</ele>
        <time>2017-03-02T10:53:06Z</time>
      </trkpt>
      <trkpt lat="45.73297" lon="4.38063">
        <ele>587</ele>
        <time>2017-03-02T10:53:07Z</time>
      </trkpt>
      <trkpt lat="45.73291" lon="4.38055">
        <ele>587</ele>
        <time>2017-03-02T10:53:13Z</time>
      </trkpt>
      <trkpt lat="45.7329" lon="4.38054">
        <ele>587</ele>
        <time>2017-03-02T10:53:14Z</time>
      </trkpt>
      <trkpt lat="45.73284" lon="4.38047">
        <ele>587</ele>
        <time>2017-03-02T10:53:20Z</time>
      </trkpt>
      <trkpt lat="45.73283" lon="4.38046">
        <ele>587</ele>
        <time>2017-03-02T10:53:21Z</time>
      </trkpt>
      <trkpt lat="45.73277" lon="4.38038">
        <ele>587</ele>
        <time>2017-03-02T10:53:27Z</time>
      </trkpt>
      <trkpt lat="45.73276" lon="4.38037">
        <ele>587</ele>
        <time>2017-03-02T10:53:28Z</time>
      </trkpt>
      <trkpt lat="45.73269" lon="4.3803">
        <ele>587</ele>
        <time>2017-03-02T10:53:34Z</time>
      </trkpt>
      <trkpt lat="45.73268" lon="4.38029">
        <ele>587</ele>
        <time>2017-03-02T10:53:35Z</time>
      </trkpt>
      <trkpt lat="45.7326" lon="4.38022">
        <ele>588</ele>
        <time>2017-03-02T10:53:41Z</time>
      </trkpt>
      <trkpt lat="45.73259" lon="4.38021">
        <ele>588</ele>
        <time>2017-03-02T10:53:42Z</time>
      </trkpt>
      <trkpt lat="45.73252" lon="4.38015">
        <ele>588</ele>
        <time>2017-03-02T10:53:48Z</time>
      </trkpt>
      <trkpt lat="45.73251" lon="4.38014">
        <ele>588</ele>
        <time>2017-03-02T10:53:49Z</time>
      </trkpt>
      <trkpt lat="45.73244" lon="4.38009">
        <ele>589</ele>
        <time>2017-03-02T10:53:55Z</time>
      </trkpt>
      <trkpt lat="45.73242" lon="4.38009">
        <ele>589</ele>
        <time>2017-03-02T10:53:56Z</time>
      </trkpt>
      <trkpt lat="45.73234" lon="4.38004">
        <ele>589</ele>
        <time>2017-03-02T10:54:02Z</time>
      </trkpt>
      <trkpt lat="45.73233" lon="4.38003">
        <ele>589</ele>
        <time>2017-03-02T10:54:03Z</time>
      </trkpt>
      <trkpt lat="45.73224" lon="4.37999">
        <ele>589</ele>
        <time>2017-03-02T10:54:09Z</time>
      </trkpt>
      <trkpt lat="45.73223" lon="4.37999">
        <ele>589</ele>
        <time>2017-03-02T10:54:10Z</time>
      </trkpt>
      <trkpt lat="45.73215" lon="4.37996">
        <ele>589</ele>
        <time>2017-03-02T10:54:15Z</time>
      </trkpt>
      <trkpt lat="45.73214" lon="4.37996">
        <ele>589</ele>
        <time>2017-03-02T10:54:16Z</time>
      </trkpt>
      <trkpt lat="45.73206" lon="4.37994">
        <ele>590</ele>
        <time>2017-03-02T10:54:21Z</time>
      </trkpt>
      <trkpt lat="45.73205" lon="4.37994">
        <ele>590</ele>
        <time>2017-03-02T10:54:22Z</time>
      </trkpt>
      <trkpt lat="45.73197" lon="4.37991">
        <ele>590</ele>
        <time>2017-03-02T10:54:27Z</time>
      </trkpt>
      <trkpt lat="45.73196" lon="4.3799">
        <ele>590</ele>
        <time>2017-03-02T10:54:28Z</time>
      </trkpt>
      <trkpt lat="45.73188" lon="4.37987">
        <ele>590</ele>
        <time>2017-03-02T10:54:34Z</time>
      </trkpt>
      <trkpt lat="45.73186" lon="4.37987">
        <ele>590</ele>
        <time>2017-03-02T10:54:35Z</time>
      </trkpt>
      <trkpt lat="45.73179" lon="4.37985">
        <ele>590</ele>
        <time>2017-03-02T10:54:40Z</time>
      </trkpt>
      <trkpt lat="45.73177" lon="4.37985">
        <ele>590</ele>
        <time>2017-03-02T10:54:41Z</time>
      </trkpt>
      <trkpt lat="45.73169" lon="4.37983">
        <ele>590</ele>
        <time>2017-03-02T10:54:47Z</time>
      </trkpt>
      <trkpt lat="45.73168" lon="4.37982">
        <ele>590</ele>
        <time>2017-03-02T10:54:48Z</time>
      </trkpt>
      <trkpt lat="45.73159" lon="4.37977">
        <ele>590</ele>
        <time>2017-03-02T10:54:57Z</time>
      </trkpt>
      <trkpt lat="45.73158" lon="4.37976">
        <ele>590</ele>
        <time>2017-03-02T10:54:58Z</time>
      </trkpt>
      <trkpt lat="45.7315" lon="4.37976">
        <ele>590</ele>
        <time>2017-03-02T10:55:10Z</time>
      </trkpt>
      <trkpt lat="45.73148" lon="4.37976">
        <ele>590</ele>
        <time>2017-03-02T10:55:11Z</time>
      </trkpt>
      <trkpt lat="45.73141" lon="4.37972">
        <ele>590</ele>
        <time>2017-03-02T10:55:17Z</time>
      </trkpt>
      <trkpt lat="45.7314" lon="4.37972">
        <ele>590</ele>
        <time>2017-03-02T10:55:18Z</time>
      </trkpt>
      <trkpt lat="45.73132" lon="4.37973">
        <ele>589</ele>
        <time>2017-03-02T10:55:25Z</time>
      </trkpt>
      <trkpt lat="45.7313" lon="4.37973">
        <ele>589</ele>
        <time>2017-03-02T10:55:26Z</time>
      </trkpt>
      <trkpt lat="45.73121" lon="4.37971">
        <ele>589</ele>
        <time>2017-03-02T10:55:32Z</time>
      </trkpt>
      <trkpt lat="45.7312" lon="4.3797">
        <ele>589</ele>
        <time>2017-03-02T10:55:33Z</time>
      </trkpt>
      <trkpt lat="45.73112" lon="4.37968">
        <ele>589</ele>
        <time>2017-03-02T10:55:38Z</time>
      </trkpt>
      <trkpt lat="45.7311" lon="4.37967">
        <ele>589</ele>
        <time>2017-03-02T10:55:39Z</time>
      </trkpt>
      <trkpt lat="45.73102" lon="4.37965">
        <ele>589</ele>
        <time>2017-03-02T10:55:44Z</time>
      </trkpt>
      <trkpt lat="45.731" lon="4.37964">
        <ele>589</ele>
        <time>2017-03-02T10:55:45Z</time>
      </trkpt>
      <trkpt lat="45.73092" lon="4.37963">
        <ele>589</ele>
        <time>2017-03-02T10:55:51Z</time>
      </trkpt>
      <trkpt lat="45.7309" lon="4.37963">
        <ele>589</ele>
        <time>2017-03-02T10:55:52Z</time>
      </trkpt>
      <trkpt lat="45.73082" lon="4.37961">
        <ele>588</ele>
        <time>2017-03-02T10:55:57Z</time>
      </trkpt>
      <trkpt lat="45.7308" lon="4.37961">
        <ele>588</ele>
        <time>2017-03-02T10:55:58Z</time>
      </trkpt>
      <trkpt lat="45.73072" lon="4.3796">
        <ele>588</ele>
        <time>2017-03-02T10:56:06Z</time>
      </trkpt>
      <trkpt lat="45.73071" lon="4.37959">
        <ele>588</ele>
        <time>2017-03-02T10:56:07Z</time>
      </trkpt>
      <trkpt lat="45.73063" lon="4.37958">
        <ele>588</ele>
        <time>2017-03-02T10:56:13Z</time>
      </trkpt>
      <trkpt lat="45.73061" lon="4.37958">
        <ele>588</ele>
        <time>2017-03-02T10:56:14Z</time>
      </trkpt>
      <trkpt lat="45.73053" lon="4.37956">
        <ele>588</ele>
        <time>2017-03-02T10:56:20Z</time>
      </trkpt>
      <trkpt lat="45.73051" lon="4.37956">
        <ele>588</ele>
        <time>2017-03-02T10:56:21Z</time>
      </trkpt>
      <trkpt lat="45.73044" lon="4.37953">
        <ele>588</ele>
        <time>2017-03-02T10:56:27Z</time>
      </trkpt>
      <trkpt lat="45.73043" lon="4.37952">
        <ele>588</ele>
        <time>2017-03-02T10:56:28Z</time>
      </trkpt>
      <trkpt lat="45.73035" lon="4.3795">
        <ele>588</ele>
        <time>2017-03-02T10:56:33Z</time>
      </trkpt>
      <trkpt lat="45.73033" lon="4.3795">
        <ele>588</ele>
        <time>2017-03-02T10:56:34Z</time>
      </trkpt>
      <trkpt lat="45.73025" lon="4.37948">
        <ele>587</ele>
        <time>2017-03-02T10:56:40Z</time>
      </trkpt>
      <trkpt lat="45.73023" lon="4.37948">
        <ele>587</ele>
        <time>2017-03-02T10:56:41Z</time>
      </trkpt>
      <trkpt lat="45.73016" lon="4.37944">
        <ele>587</ele>
        <time>2017-03-02T10:56:46Z</time>
      </trkpt>
      <trkpt lat="45.73014" lon="4.37944">
        <ele>587</ele>
        <time>2017-03-02T10:56:47Z</time>
      </trkpt>
      <trkpt lat="45.73006" lon="4.37943">
        <ele>587</ele>
        <time>2017-03-02T10:56:53Z</time>
      </trkpt>
      <trkpt lat="45.73004" lon="4.37943">
        <ele>587</ele>
        <time>2017-03-02T10:56:54Z</time>
      </trkpt>
      <trkpt lat="45.72996" lon="4.37942">
        <ele>587</ele>
        <time>2017-03-02T10:57:00Z</time>
      </trkpt>
      <trkpt lat="45.72995" lon="4.37941">
        <ele>587</ele>
        <time>2017-03-02T10:57:01Z</time>
      </trkpt>
      <trkpt lat="45.72986" lon="4.37941">
        <ele>587</ele>
        <time>2017-03-02T10:57:08Z</time>
      </trkpt>
      <trkpt lat="45.72985" lon="4.37941">
        <ele>587</ele>
        <time>2017-03-02T10:57:09Z</time>
      </trkpt>
      <trkpt lat="45.72976" lon="4.37941">
        <ele>588</ele>
        <time>2017-03-02T10:57:15Z</time>
      </trkpt>
      <trkpt lat="45.72975" lon="4.37941">
        <ele>588</ele>
        <time>2017-03-02T10:57:16Z</time>
      </trkpt>
      <trkpt lat="45.72967" lon="4.37939">
        <ele>588</ele>
        <time>2017-03-02T10:57:21Z</time>
      </trkpt>
      <trkpt lat="45.72965" lon="4.37939">
        <ele>588</ele>
        <time>2017-03-02T10:57:22Z</time>
      </trkpt>
      <trkpt lat="45.72957" lon="4.37937">
        <ele>588</ele>
        <time>2017-03-02T10:57:29Z</time>
      </trkpt>
      <trkpt lat="45.72956" lon="4.37936">
        <ele>588</ele>
        <time>2017-03-02T10:57:30Z</time>
      </trkpt>
      <trkpt lat="45.72948" lon="4.37932">
        <ele>588</ele>
        <time>2017-03-02T10:57:35Z</time>
      </trkpt>
      <trkpt lat="45.72946" lon="4.37932">
        <ele>588</ele>
        <time>2017-03-02T10:57:36Z</time>
      </trkpt>
      <trkpt lat="45.72938" lon="4.37931">
        <ele>588</ele>
        <time>2017-03-02T10:57:41Z</time>
      </trkpt>
      <trkpt lat="45.72937" lon="4.37931">
        <ele>588</ele>
        <time>2017-03-02T10:57:42Z</time>
      </trkpt>
      <trkpt lat="45.72929" lon="4.37927">
        <ele>588</ele>
        <time>2017-03-02T10:57:48Z</time>
      </trkpt>
      <trkpt lat="45.72928" lon="4.37927">
        <ele>588</ele>
        <time>2017-03-02T10:57:49Z</time>
      </trkpt>
      <trkpt lat="45.7292" lon="4.37923">
        <ele>588</ele>
        <time>2017-03-02T10:57:55Z</time>
      </trkpt>
      <trkpt lat="45.72919" lon="4.37922">
        <ele>588</ele>
        <time>2017-03-02T10:57:56Z</time>
      </trkpt>
      <trkpt lat="45.72912" lon="4.37917">
        <ele>588</ele>
        <time>2017-03-02T10:58:01Z</time>
      </trkpt>
      <trkpt lat="45.72911" lon="4.37917">
        <ele>588</ele>
        <time>2017-03-02T10:58:02Z</time>
      </trkpt>
      <trkpt lat="45.72903" lon="4.37913">
        <ele>587</ele>
        <time>2017-03-02T10:58:08Z</time>
      </trkpt>
      <trkpt lat="45.72901" lon="4.37912">
        <ele>587</ele>
        <time>2017-03-02T10:58:09Z</time>
      </trkpt>
      <trkpt lat="45.72894" lon="4.37906">
        <ele>587</ele>
        <time>2017-03-02T10:58:15Z</time>
      </trkpt>
      <trkpt lat="45.72893" lon="4.37906">
        <ele>587</ele>
        <time>2017-03-02T10:58:16Z</time>
      </trkpt>
      <trkpt lat="45.72885" lon="4.37901">
        <ele>587</ele>
        <time>2017-03-02T10:58:23Z</time>
      </trkpt>
      <trkpt lat="45.72884" lon="4.379">
        <ele>587</ele>
        <time>2017-03-02T10:58:24Z</time>
      </trkpt>
      <trkpt lat="45.72876" lon="4.37895">
        <ele>587</ele>
        <time>2017-03-02T10:58:30Z</time>
      </trkpt>
      <trkpt lat="45.72875" lon="4.37894">
        <ele>587</ele>
        <time>2017-03-02T10:58:31Z</time>
      </trkpt>
      <trkpt lat="45.72868" lon="4.37888">
        <ele>587</ele>
        <time>2017-03-02T10:58:37Z</time>
      </trkpt>
      <trkpt lat="45.72867" lon="4.37887">
        <ele>587</ele>
        <time>2017-03-02T10:58:38Z</time>
      </trkpt>
      <trkpt lat="45.7286" lon="4.37879">
        <ele>587</ele>
        <time>2017-03-02T10:58:44Z</time>
      </trkpt>
      <trkpt lat="45.72859" lon="4.37878">
        <ele>587</ele>
        <time>2017-03-02T10:58:45Z</time>
      </trkpt>
      <trkpt lat="45.72852" lon="4.37872">
        <ele>587</ele>
        <time>2017-03-02T10:58:51Z</time>
      </trkpt>
      <trkpt lat="45.72851" lon="4.37871">
        <ele>587</ele>
        <time>2017-03-02T10:58:52Z</time>
      </trkpt>
      <trkpt lat="45.72844" lon="4.37864">
        <ele>587</ele>
        <time>2017-03-02T10:58:58Z</time>
      </trkpt>
      <trkpt lat="45.72842" lon="4.37863">
        <ele>587</ele>
        <time>2017-03-02T10:58:59Z</time>
      </trkpt>
      <trkpt lat="45.72835" lon="4.37858">
        <ele>587</ele>
        <time>2017-03-02T10:59:05Z</time>
      </trkpt>
      <trkpt lat="45.72834" lon="4.37856">
        <ele>587</ele>
        <time>2017-03-02T10:59:06Z</time>
      </trkpt>
      <trkpt lat="45.72827" lon="4.37849">
        <ele>589</ele>
        <time>2017-03-02T10:59:11Z</time>
      </trkpt>
      <trkpt lat="45.72826" lon="4.37848">
        <ele>589</ele>
        <time>2017-03-02T10:59:12Z</time>
      </trkpt>
      <trkpt lat="45.72819" lon="4.37842">
        <ele>589</ele>
        <time>2017-03-02T10:59:18Z</time>
      </trkpt>
      <trkpt lat="45.72818" lon="4.37841">
        <ele>589</ele>
        <time>2017-03-02T10:59:19Z</time>
      </trkpt>
      <trkpt lat="45.7281" lon="4.37837">
        <ele>589</ele>
        <time>2017-03-02T10:59:25Z</time>
      </trkpt>
      <trkpt lat="45.72808" lon="4.37836">
        <ele>589</ele>
        <time>2017-03-02T10:59:26Z</time>
      </trkpt>
      <trkpt lat="45.72801" lon="4.37831">
        <ele>589</ele>
        <time>2017-03-02T10:59:31Z</time>
      </trkpt>
      <trkpt lat="45.728" lon="4.3783">
        <ele>589</ele>
        <time>2017-03-02T10:59:32Z</time>
      </trkpt>
      <trkpt lat="45.72793" lon="4.37823">
        <ele>589</ele>
        <time>2017-03-02T10:59:39Z</time>
      </trkpt>
      <trkpt lat="45.72791" lon="4.37822">
        <ele>589</ele>
        <time>2017-03-02T10:59:40Z</time>
      </trkpt>
      <trkpt lat="45.72784" lon="4.37817">
        <ele>589</ele>
        <time>2017-03-02T10:59:47Z</time>
      </trkpt>
      <trkpt lat="45.72783" lon="4.37816">
        <ele>589</ele>
        <time>2017-03-02T10:59:48Z</time>
      </trkpt>
      <trkpt lat="45.72777" lon="4.37808">
        <ele>589</ele>
        <time>2017-03-02T10:59:54Z</time>
      </trkpt>
      <trkpt lat="45.72776" lon="4.37807">
        <ele>589</ele>
        <time>2017-03-02T10:59:55Z</time>
      </trkpt>
      <trkpt lat="45.72777" lon="4.37795">
        <ele>589</ele>
        <time>2017-03-02T11:00:01Z</time>
      </trkpt>
      <trkpt lat="45.72778" lon="4.37794">
        <ele>589</ele>
        <time>2017-03-02T11:00:02Z</time>
      </trkpt>
      <trkpt lat="45.72778" lon="4.37782">
        <ele>589</ele>
        <time>2017-03-02T11:00:09Z</time>
      </trkpt>
      <trkpt lat="45.72777" lon="4.3778">
        <ele>589</ele>
        <time>2017-03-02T11:00:10Z</time>
      </trkpt>
      <trkpt lat="45.72773" lon="4.37769">
        <ele>589</ele>
        <time>2017-03-02T11:00:16Z</time>
      </trkpt>
      <trkpt lat="45.72772" lon="4.37768">
        <ele>589</ele>
        <time>2017-03-02T11:00:17Z</time>
      </trkpt>
      <trkpt lat="45.72767" lon="4.37757">
        <ele>589</ele>
        <time>2017-03-02T11:00:23Z</time>
      </trkpt>
      <trkpt lat="45.72766" lon="4.37755">
        <ele>589</ele>
        <time>2017-03-02T11:00:24Z</time>
      </trkpt>
      <trkpt lat="45.72761" lon="4.37747">
        <ele>590</ele>
        <time>2017-03-02T11:00:29Z</time>
      </trkpt>
      <trkpt lat="45.7276" lon="4.37745">
        <ele>590</ele>
        <time>2017-03-02T11:00:30Z</time>
      </trkpt>
      <trkpt lat="45.72756" lon="4.37735">
        <ele>590</ele>
        <time>2017-03-02T11:00:37Z</time>
      </trkpt>
      <trkpt lat="45.72755" lon="4.37733">
        <ele>590</ele>
        <time>2017-03-02T11:00:38Z</time>
      </trkpt>
      <trkpt lat="45.72751" lon="4.37723">
        <ele>590</ele>
        <time>2017-03-02T11:00:44Z</time>
      </trkpt>
      <trkpt lat="45.7275" lon="4.37722">
        <ele>590</ele>
        <time>2017-03-02T11:00:45Z</time>
      </trkpt>
      <trkpt lat="45.72745" lon="4.37713">
        <ele>590</ele>
        <time>2017-03-02T11:00:51Z</time>
      </trkpt>
      <trkpt lat="45.72745" lon="4.37712">
        <ele>590</ele>
        <time>2017-03-02T11:00:52Z</time>
      </trkpt>
      <trkpt lat="45.72741" lon="4.377">
        <ele>590</ele>
        <time>2017-03-02T11:00:58Z</time>
      </trkpt>
      <trkpt lat="45.7274" lon="4.37699">
        <ele>590</ele>
        <time>2017-03-02T11:00:59Z</time>
      </trkpt>
      <trkpt lat="45.72736" lon="4.37687">
        <ele>590</ele>
        <time>2017-03-02T11:01:06Z</time>
      </trkpt>
      <trkpt lat="45.72736" lon="4.37686">
        <ele>590</ele>
        <time>2017-03-02T11:01:07Z</time>
      </trkpt>
      <trkpt lat="45.72731" lon="4.37676">
        <ele>590</ele>
        <time>2017-03-02T11:01:14Z</time>
      </trkpt>
      <trkpt lat="45.7273" lon="4.37674">
        <ele>590</ele>
        <time>2017-03-02T11:01:15Z</time>
      </trkpt>
      <trkpt lat="45.72724" lon="4.37665">
        <ele>590</ele>
        <time>2017-03-02T11:01:21Z</time>
      </trkpt>
      <trkpt lat="45.72723" lon="4.37664">
        <ele>589</ele>
        <time>2017-03-02T11:01:22Z</time>
      </trkpt>
      <trkpt lat="45.72717" lon="4.37655">
        <ele>589</ele>
        <time>2017-03-02T11:01:28Z</time>
      </trkpt>
      <trkpt lat="45.72716" lon="4.37654">
        <ele>589</ele>
        <time>2017-03-02T11:01:29Z</time>
      </trkpt>
      <trkpt lat="45.72709" lon="4.37647">
        <ele>589</ele>
        <time>2017-03-02T11:01:35Z</time>
      </trkpt>
      <trkpt lat="45.72708" lon="4.37646">
        <ele>589</ele>
        <time>2017-03-02T11:01:36Z</time>
      </trkpt>
      <trkpt lat="45.72702" lon="4.37637">
        <ele>589</ele>
        <time>2017-03-02T11:01:42Z</time>
      </trkpt>
      <trkpt lat="45.72701" lon="4.37636">
        <ele>589</ele>
        <time>2017-03-02T11:01:43Z</time>
      </trkpt>
      <trkpt lat="45.72695" lon="4.3763">
        <ele>588</ele>
        <time>2017-03-02T11:01:49Z</time>
      </trkpt>
      <trkpt lat="45.72694" lon="4.37628">
        <ele>588</ele>
        <time>2017-03-02T11:01:50Z</time>
      </trkpt>
      <trkpt lat="45.72688" lon="4.37621">
        <ele>588</ele>
        <time>2017-03-02T11:01:56Z</time>
      </trkpt>
      <trkpt lat="45.72687" lon="4.37619">
        <ele>588</ele>
        <time>2017-03-02T11:01:57Z</time>
      </trkpt>
      <trkpt lat="45.7268" lon="4.37611">
        <ele>588</ele>
        <time>2017-03-02T11:02:03Z</time>
      </trkpt>
      <trkpt lat="45.72679" lon="4.3761">
        <ele>588</ele>
        <time>2017-03-02T11:02:04Z</time>
      </trkpt>
      <trkpt lat="45.72671" lon="4.37604">
        <ele>587</ele>
        <time>2017-03-02T11:02:10Z</time>
      </trkpt>
      <trkpt lat="45.7267" lon="4.37603">
        <ele>587</ele>
        <time>2017-03-02T11:02:11Z</time>
      </trkpt>
      <trkpt lat="45.72664" lon="4.37595">
        <ele>585</ele>
        <time>2017-03-02T11:02:17Z</time>
      </trkpt>
      <trkpt lat="45.72663" lon="4.37593">
        <ele>585</ele>
        <time>2017-03-02T11:02:18Z</time>
      </trkpt>
      <trkpt lat="45.72656" lon="4.37587">
        <ele>585</ele>
        <time>2017-03-02T11:02:24Z</time>
      </trkpt>
      <trkpt lat="45.72655" lon="4.37586">
        <ele>585</ele>
        <time>2017-03-02T11:02:25Z</time>
      </trkpt>
      <trkpt lat="45.72649" lon="4.37579">
        <ele>583</ele>
        <time>2017-03-02T11:02:30Z</time>
      </trkpt>
      <trkpt lat="45.72648" lon="4.37577">
        <ele>583</ele>
        <time>2017-03-02T11:02:31Z</time>
      </trkpt>
      <trkpt lat="45.72643" lon="4.37569">
        <ele>582</ele>
        <time>2017-03-02T11:02:36Z</time>
      </trkpt>
      <trkpt lat="45.72642" lon="4.37568">
        <ele>582</ele>
        <time>2017-03-02T11:02:37Z</time>
      </trkpt>
      <trkpt lat="45.72635" lon="4.3756">
        <ele>582</ele>
        <time>2017-03-02T11:02:43Z</time>
      </trkpt>
      <trkpt lat="45.72634" lon="4.37559">
        <ele>582</ele>
        <time>2017-03-02T11:02:44Z</time>
      </trkpt>
      <trkpt lat="45.72627" lon="4.37551">
        <ele>582</ele>
        <time>2017-03-02T11:02:50Z</time>
      </trkpt>
      <trkpt lat="45.72626" lon="4.37549">
        <ele>582</ele>
        <time>2017-03-02T11:02:51Z</time>
      </trkpt>
      <trkpt lat="45.72621" lon="4.37541">
        <ele>581</ele>
        <time>2017-03-02T11:02:57Z</time>
      </trkpt>
      <trkpt lat="45.7262" lon="4.37539">
        <ele>581</ele>
        <time>2017-03-02T11:02:58Z</time>
      </trkpt>
      <trkpt lat="45.72613" lon="4.3753">
        <ele>581</ele>
        <time>2017-03-02T11:03:04Z</time>
      </trkpt>
      <trkpt lat="45.72612" lon="4.37529">
        <ele>581</ele>
        <time>2017-03-02T11:03:05Z</time>
      </trkpt>
      <trkpt lat="45.7261" lon="4.37517">
        <ele>581</ele>
        <time>2017-03-02T11:03:11Z</time>
      </trkpt>
      <trkpt lat="45.7261" lon="4.37515">
        <ele>581</ele>
        <time>2017-03-02T11:03:12Z</time>
      </trkpt>
      <trkpt lat="45.7261" lon="4.37504">
        <ele>580</ele>
        <time>2017-03-02T11:03:18Z</time>
      </trkpt>
      <trkpt lat="45.7261" lon="4.37502">
        <ele>580</ele>
        <time>2017-03-02T11:03:19Z</time>
      </trkpt>
      <trkpt lat="45.72606" lon="4.3749">
        <ele>577</ele>
        <time>2017-03-02T11:03:26Z</time>
      </trkpt>
      <trkpt lat="45.72605" lon="4.37489">
        <ele>577</ele>
        <time>2017-03-02T11:03:27Z</time>
      </trkpt>
      <trkpt lat="45.72602" lon="4.37479">
        <ele>577</ele>
        <time>2017-03-02T11:03:33Z</time>
      </trkpt>
      <trkpt lat="45.72602" lon="4.37477">
        <ele>577</ele>
        <time>2017-03-02T11:03:34Z</time>
      </trkpt>
      <trkpt lat="45.726" lon="4.37466">
        <ele>577</ele>
        <time>2017-03-02T11:03:40Z</time>
      </trkpt>
      <trkpt lat="45.72599" lon="4.37464">
        <ele>576</ele>
        <time>2017-03-02T11:03:41Z</time>
      </trkpt>
      <trkpt lat="45.72596" lon="4.37453">
        <ele>576</ele>
        <time>2017-03-02T11:03:47Z</time>
      </trkpt>
      <trkpt lat="45.72596" lon="4.37451">
        <ele>576</ele>
        <time>2017-03-02T11:03:48Z</time>
      </trkpt>
      <trkpt lat="45.72593" lon="4.37439">
        <ele>576</ele>
        <time>2017-03-02T11:03:54Z</time>
      </trkpt>
      <trkpt lat="45.72593" lon="4.37437">
        <ele>576</ele>
        <time>2017-03-02T11:03:55Z</time>
      </trkpt>
      <trkpt lat="45.7259" lon="4.37425">
        <ele>575</ele>
        <time>2017-03-02T11:04:01Z</time>
      </trkpt>
      <trkpt lat="45.7259" lon="4.37423">
        <ele>575</ele>
        <time>2017-03-02T11:04:02Z</time>
      </trkpt>
      <trkpt lat="45.72586" lon="4.37412">
        <ele>575</ele>
        <time>2017-03-02T11:04:08Z</time>
      </trkpt>
      <trkpt lat="45.72586" lon="4.37411">
        <ele>575</ele>
        <time>2017-03-02T11:04:09Z</time>
      </trkpt>
      <trkpt lat="45.72583" lon="4.37399">
        <ele>575</ele>
        <time>2017-03-02T11:04:16Z</time>
      </trkpt>
      <trkpt lat="45.72583" lon="4.37397">
        <ele>575</ele>
        <time>2017-03-02T11:04:17Z</time>
      </trkpt>
      <trkpt lat="45.7258" lon="4.37386">
        <ele>575</ele>
        <time>2017-03-02T11:04:23Z</time>
      </trkpt>
      <trkpt lat="45.7258" lon="4.37384">
        <ele>575</ele>
        <time>2017-03-02T11:04:24Z</time>
      </trkpt>
      <trkpt lat="45.7258" lon="4.37372">
        <ele>575</ele>
        <time>2017-03-02T11:04:30Z</time>
      </trkpt>
      <trkpt lat="45.7258" lon="4.3737">
        <ele>575</ele>
        <time>2017-03-02T11:04:31Z</time>
      </trkpt>
      <trkpt lat="45.72578" lon="4.37359">
        <ele>575</ele>
        <time>2017-03-02T11:04:37Z</time>
      </trkpt>
      <trkpt lat="45.72577" lon="4.37356">
        <ele>575</ele>
        <time>2017-03-02T11:04:38Z</time>
      </trkpt>
      <trkpt lat="45.72576" lon="4.37346">
        <ele>575</ele>
        <time>2017-03-02T11:04:43Z</time>
      </trkpt>
      <trkpt lat="45.72576" lon="4.37344">
        <ele>575</ele>
        <time>2017-03-02T11:04:44Z</time>
      </trkpt>
      <trkpt lat="45.72575" lon="4.37333">
        <ele>574</ele>
        <time>2017-03-02T11:04:49Z</time>
      </trkpt>
      <trkpt lat="45.72574" lon="4.37331">
        <ele>574</ele>
        <time>2017-03-02T11:04:50Z</time>
      </trkpt>
      <trkpt lat="45.7257" lon="4.3732">
        <ele>574</ele>
        <time>2017-03-02T11:04:56Z</time>
      </trkpt>
      <trkpt lat="45.7257" lon="4.37318">
        <ele>574</ele>
        <time>2017-03-02T11:04:57Z</time>
      </trkpt>
      <trkpt lat="45.72566" lon="4.37306">
        <ele>574</ele>
        <time>2017-03-02T11:05:03Z</time>
      </trkpt>
      <trkpt lat="45.72566" lon="4.37304">
        <ele>574</ele>
        <time>2017-03-02T11:05:04Z</time>
      </trkpt>
      <trkpt lat="45.72563" lon="4.37292">
        <ele>574</ele>
        <time>2017-03-02T11:05:10Z</time>
      </trkpt>
      <trkpt lat="45.72563" lon="4.3729">
        <ele>574</ele>
        <time>2017-03-02T11:05:11Z</time>
      </trkpt>
      <trkpt lat="45.72559" lon="4.37279">
        <ele>573</ele>
        <time>2017-03-02T11:05:17Z</time>
      </trkpt>
      <trkpt lat="45.72559" lon="4.37277">
        <ele>573</ele>
        <time>2017-03-02T11:05:18Z</time>
      </trkpt>
      <trkpt lat="45.72558" lon="4.37265">
        <ele>573</ele>
        <time>2017-03-02T11:05:24Z</time>
      </trkpt>
      <trkpt lat="45.72558" lon="4.37263">
        <ele>573</ele>
        <time>2017-03-02T11:05:25Z</time>
      </trkpt>
      <trkpt lat="45.72555" lon="4.37253">
        <ele>573</ele>
        <time>2017-03-02T11:05:31Z</time>
      </trkpt>
      <trkpt lat="45.72554" lon="4.37251">
        <ele>573</ele>
        <time>2017-03-02T11:05:32Z</time>
      </trkpt>
      <trkpt lat="45.72552" lon="4.3724">
        <ele>574</ele>
        <time>2017-03-02T11:05:38Z</time>
      </trkpt>
      <trkpt lat="45.72551" lon="4.37238">
        <ele>574</ele>
        <time>2017-03-02T11:05:39Z</time>
      </trkpt>
      <trkpt lat="45.72549" lon="4.37226">
        <ele>574</ele>
        <time>2017-03-02T11:05:45Z</time>
      </trkpt>
      <trkpt lat="45.72548" lon="4.37223">
        <ele>574</ele>
        <time>2017-03-02T11:05:46Z</time>
      </trkpt>
      <trkpt lat="45.72545" lon="4.37213">
        <ele>574</ele>
        <time>2017-03-02T11:05:51Z</time>
      </trkpt>
      <trkpt lat="45.72544" lon="4.37211">
        <ele>574</ele>
        <time>2017-03-02T11:05:52Z</time>
      </trkpt>
      <trkpt lat="45.72543" lon="4.37198">
        <ele>574</ele>
        <time>2017-03-02T11:05:58Z</time>
      </trkpt>
      <trkpt lat="45.72542" lon="4.37197">
        <ele>574</ele>
        <time>2017-03-02T11:05:59Z</time>
      </trkpt>
      <trkpt lat="45.72539" lon="4.37185">
        <ele>574</ele>
        <time>2017-03-02T11:06:05Z</time>
      </trkpt>
      <trkpt lat="45.72538" lon="4.37184">
        <ele>574</ele>
        <time>2017-03-02T11:06:06Z</time>
      </trkpt>
      <trkpt lat="45.72536" lon="4.37172">
        <ele>573</ele>
        <time>2017-03-02T11:06:12Z</time>
      </trkpt>
      <trkpt lat="45.72536" lon="4.3717">
        <ele>573</ele>
        <time>2017-03-02T11:06:13Z</time>
      </trkpt>
      <trkpt lat="45.72531" lon="4.3716">
        <ele>574</ele>
        <time>2017-03-02T11:06:19Z</time>
      </trkpt>
      <trkpt lat="45.7253" lon="4.37158">
        <ele>574</ele>
        <time>2017-03-02T11:06:20Z</time>
      </trkpt>
      <trkpt lat="45.72525" lon="4.37147">
        <ele>574</ele>
        <time>2017-03-02T11:06:26Z</time>
      </trkpt>
      <trkpt lat="45.72525" lon="4.37145">
        <ele>574</ele>
        <time>2017-03-02T11:06:27Z</time>
      </trkpt>
      <trkpt lat="45.72522" lon="4.37135">
        <ele>574</ele>
        <time>2017-03-02T11:06:32Z</time>
      </trkpt>
      <trkpt lat="45.72521" lon="4.37133">
        <ele>574</ele>
        <time>2017-03-02T11:06:33Z</time>
      </trkpt>
      <trkpt lat="45.72516" lon="4.37123">
        <ele>574</ele>
        <time>2017-03-02T11:06:39Z</time>
      </trkpt>
      <trkpt lat="45.72516" lon="4.37121">
        <ele>574</ele>
        <time>2017-03-02T11:06:40Z</time>
      </trkpt>
      <trkpt lat="45.72512" lon="4.3711">
        <ele>574</ele>
        <time>2017-03-02T11:06:46Z</time>
      </trkpt>
      <trkpt lat="45.72511" lon="4.37109">
        <ele>574</ele>
        <time>2017-03-02T11:06:47Z</time>
      </trkpt>
      <trkpt lat="45.72507" lon="4.37098">
        <ele>574</ele>
        <time>2017-03-02T11:06:54Z</time>
      </trkpt>
      <trkpt lat="45.72507" lon="4.37096">
        <ele>574</ele>
        <time>2017-03-02T11:06:55Z</time>
      </trkpt>
      <trkpt lat="45.72501" lon="4.37087">
        <ele>573</ele>
        <time>2017-03-02T11:07:01Z</time>
      </trkpt>
      <trkpt lat="45.72501" lon="4.37085">
        <ele>573</ele>
        <time>2017-03-02T11:07:02Z</time>
      </trkpt>
      <trkpt lat="45.72496" lon="4.37075">
        <ele>572</ele>
        <time>2017-03-02T11:07:08Z</time>
      </trkpt>
      <trkpt lat="45.72495" lon="4.37074">
        <ele>572</ele>
        <time>2017-03-02T11:07:09Z</time>
      </trkpt>
      <trkpt lat="45.72489" lon="4.37065">
        <ele>572</ele>
        <time>2017-03-02T11:07:15Z</time>
      </trkpt>
      <trkpt lat="45.72488" lon="4.37063">
        <ele>571</ele>
        <time>2017-03-02T11:07:16Z</time>
      </trkpt>
      <trkpt lat="45.72484" lon="4.37054">
        <ele>571</ele>
        <time>2017-03-02T11:07:22Z</time>
      </trkpt>
      <trkpt lat="45.72483" lon="4.37052">
        <ele>571</ele>
        <time>2017-03-02T11:07:23Z</time>
      </trkpt>
      <trkpt lat="45.7248" lon="4.37042">
        <ele>571</ele>
        <time>2017-03-02T11:07:29Z</time>
      </trkpt>
      <trkpt lat="45.72479" lon="4.3704">
        <ele>571</ele>
        <time>2017-03-02T11:07:30Z</time>
      </trkpt>
      <trkpt lat="45.72475" lon="4.3703">
        <ele>571</ele>
        <time>2017-03-02T11:07:36Z</time>
      </trkpt>
      <trkpt lat="45.72473" lon="4.37029">
        <ele>571</ele>
        <time>2017-03-02T11:07:37Z</time>
      </trkpt>
      <trkpt lat="45.72468" lon="4.37021">
        <ele>571</ele>
        <time>2017-03-02T11:07:42Z</time>
      </trkpt>
      <trkpt lat="45.72467" lon="4.37019">
        <ele>571</ele>
        <time>2017-03-02T11:07:43Z</time>
      </trkpt>
      <trkpt lat="45.72463" lon="4.3701">
        <ele>571</ele>
        <time>2017-03-02T11:07:48Z</time>
      </trkpt>
      <trkpt lat="45.72461" lon="4.37008">
        <ele>571</ele>
        <time>2017-03-02T11:07:49Z</time>
      </trkpt>
      <trkpt lat="45.72456" lon="4.37001">
        <ele>570</ele>
        <time>2017-03-02T11:07:55Z</time>
      </trkpt>
      <trkpt lat="45.72455" lon="4.37">
        <ele>569</ele>
        <time>2017-03-02T11:07:56Z</time>
      </trkpt>
      <trkpt lat="45.7245" lon="4.3699">
        <ele>569</ele>
        <time>2017-03-02T11:08:02Z</time>
      </trkpt>
      <trkpt lat="45.72449" lon="4.36988">
        <ele>569</ele>
        <time>2017-03-02T11:08:03Z</time>
      </trkpt>
      <trkpt lat="45.72446" lon="4.36978">
        <ele>569</ele>
        <time>2017-03-02T11:08:08Z</time>
      </trkpt>
      <trkpt lat="45.72446" lon="4.36976">
        <ele>569</ele>
        <time>2017-03-02T11:08:09Z</time>
      </trkpt>
      <trkpt lat="45.72443" lon="4.36964">
        <ele>568</ele>
        <time>2017-03-02T11:08:15Z</time>
      </trkpt>
      <trkpt lat="45.72443" lon="4.36963">
        <ele>568</ele>
        <time>2017-03-02T11:08:16Z</time>
      </trkpt>
      <trkpt lat="45.72439" lon="4.36952">
        <ele>568</ele>
        <time>2017-03-02T11:08:22Z</time>
      </trkpt>
      <trkpt lat="45.72438" lon="4.3695">
        <ele>568</ele>
        <time>2017-03-02T11:08:23Z</time>
      </trkpt>
      <trkpt lat="45.72434" lon="4.3694">
        <ele>567</ele>
        <time>2017-03-02T11:08:29Z</time>
      </trkpt>
      <trkpt lat="45.72433" lon="4.36939">
        <ele>567</ele>
        <time>2017-03-02T11:08:30Z</time>
      </trkpt>
      <trkpt lat="45.7243" lon="4.36928">
        <ele>566</ele>
        <time>2017-03-02T11:08:36Z</time>
      </trkpt>
      <trkpt lat="45.72429" lon="4.36926">
        <ele>565</ele>
        <time>2017-03-02T11:08:37Z</time>
      </trkpt>
      <trkpt lat="45.72424" lon="4.36917">
        <ele>564</ele>
        <time>2017-03-02T11:08:45Z</time>
      </trkpt>
      <trkpt lat="45.72423" lon="4.36916">
        <ele>563</ele>
        <time>2017-03-02T11:08:46Z</time>
      </trkpt>
      <trkpt lat="45.72421" lon="4.36904">
        <ele>563</ele>
        <time>2017-03-02T11:08:54Z</time>
      </trkpt>
      <trkpt lat="45.72421" lon="4.36902">
        <ele>563</ele>
        <time>2017-03-02T11:08:55Z</time>
      </trkpt>
      <trkpt lat="45.72419" lon="4.36891">
        <ele>563</ele>
        <time>2017-03-02T11:09:02Z</time>
      </trkpt>
      <trkpt lat="45.72418" lon="4.3689">
        <ele>563</ele>
        <time>2017-03-02T11:09:03Z</time>
      </trkpt>
      <trkpt lat="45.72415" lon="4.3688">
        <ele>556</ele>
        <time>2017-03-02T11:09:09Z</time>
      </trkpt>
      <trkpt lat="45.72415" lon="4.36878">
        <ele>556</ele>
        <time>2017-03-02T11:09:10Z</time>
      </trkpt>
      <trkpt lat="45.72415" lon="4.36867">
        <ele>556</ele>
        <time>2017-03-02T11:09:16Z</time>
      </trkpt>
      <trkpt lat="45.72415" lon="4.36865">
        <ele>556</ele>
        <time>2017-03-02T11:09:17Z</time>
      </trkpt>
      <trkpt lat="45.72414" lon="4.36852">
        <ele>555</ele>
        <time>2017-03-02T11:09:24Z</time>
      </trkpt>
      <trkpt lat="45.72413" lon="4.36851">
        <ele>555</ele>
        <time>2017-03-02T11:09:25Z</time>
      </trkpt>
      <trkpt lat="45.72408" lon="4.36841">
        <ele>555</ele>
        <time>2017-03-02T11:09:34Z</time>
      </trkpt>
      <trkpt lat="45.72407" lon="4.36841">
        <ele>555</ele>
        <time>2017-03-02T11:09:35Z</time>
      </trkpt>
      <trkpt lat="45.72402" lon="4.36831">
        <ele>552</ele>
        <time>2017-03-02T11:09:44Z</time>
      </trkpt>
      <trkpt lat="45.72401" lon="4.3683">
        <ele>552</ele>
        <time>2017-03-02T11:09:45Z</time>
      </trkpt>
      <trkpt lat="45.72396" lon="4.36821">
        <ele>551</ele>
        <time>2017-03-02T11:09:52Z</time>
      </trkpt>
      <trkpt lat="45.72395" lon="4.36819">
        <ele>551</ele>
        <time>2017-03-02T11:09:53Z</time>
      </trkpt>
      <trkpt lat="45.72391" lon="4.36807">
        <ele>550</ele>
        <time>2017-03-02T11:10:00Z</time>
      </trkpt>
      <trkpt lat="45.72391" lon="4.36806">
        <ele>550</ele>
        <time>2017-03-02T11:10:01Z</time>
      </trkpt>
      <trkpt lat="45.72386" lon="4.36795">
        <ele>549</ele>
        <time>2017-03-02T11:10:07Z</time>
      </trkpt>
      <trkpt lat="45.72385" lon="4.36793">
        <ele>549</ele>
        <time>2017-03-02T11:10:08Z</time>
      </trkpt>
      <trkpt lat="45.72385" lon="4.36781">
        <ele>549</ele>
        <time>2017-03-02T11:19:12Z</time>
      </trkpt>
      <trkpt lat="45.72385" lon="4.3678">
        <ele>549</ele>
        <time>2017-03-02T11:19:13Z</time>
      </trkpt>
      <trkpt lat="45.72381" lon="4.3677">
        <ele>548</ele>
        <time>2017-03-02T11:19:22Z</time>
      </trkpt>
      <trkpt lat="45.7238" lon="4.36768">
        <ele>548</ele>
        <time>2017-03-02T11:19:23Z</time>
      </trkpt>
      <trkpt lat="45.72378" lon="4.36756">
        <ele>548</ele>
        <time>2017-03-02T11:19:37Z</time>
      </trkpt>
      <trkpt lat="45.72377" lon="4.36756">
        <ele>548</ele>
        <time>2017-03-02T11:19:38Z</time>
      </trkpt>
      <trkpt lat="45.72371" lon="4.36747">
        <ele>544</ele>
        <time>2017-03-02T11:19:45Z</time>
      </trkpt>
      <trkpt lat="45.7237" lon="4.36746">
        <ele>544</ele>
        <time>2017-03-02T11:19:46Z</time>
      </trkpt>
      <trkpt lat="45.72366" lon="4.36736">
        <ele>544</ele>
        <time>2017-03-02T11:19:53Z</time>
      </trkpt>
      <trkpt lat="45.72365" lon="4.36735">
        <ele>544</ele>
        <time>2017-03-02T11:19:54Z</time>
      </trkpt>
      <trkpt lat="45.72362" lon="4.36725">
        <ele>543</ele>
        <time>2017-03-02T11:20:01Z</time>
      </trkpt>
      <trkpt lat="45.72361" lon="4.36723">
        <ele>543</ele>
        <time>2017-03-02T11:20:02Z</time>
      </trkpt>
      <trkpt lat="45.72358" lon="4.36712">
        <ele>543</ele>
        <time>2017-03-02T11:20:09Z</time>
      </trkpt>
      <trkpt lat="45.72358" lon="4.3671">
        <ele>543</ele>
        <time>2017-03-02T11:20:10Z</time>
      </trkpt>
      <trkpt lat="45.72357" lon="4.36699">
        <ele>542</ele>
        <time>2017-03-02T11:20:17Z</time>
      </trkpt>
      <trkpt lat="45.72357" lon="4.36697">
        <ele>542</ele>
        <time>2017-03-02T11:20:18Z</time>
      </trkpt>
      <trkpt lat="45.72355" lon="4.36686">
        <ele>541</ele>
        <time>2017-03-02T11:20:24Z</time>
      </trkpt>
      <trkpt lat="45.72354" lon="4.36684">
        <ele>541</ele>
        <time>2017-03-02T11:20:25Z</time>
      </trkpt>
      <trkpt lat="45.72351" lon="4.36673">
        <ele>540</ele>
        <time>2017-03-02T11:20:31Z</time>
      </trkpt>
      <trkpt lat="45.72351" lon="4.36672">
        <ele>540</ele>
        <time>2017-03-02T11:20:32Z</time>
      </trkpt>
      <trkpt lat="45.72355" lon="4.36661">
        <ele>538</ele>
        <time>2017-03-02T11:20:39Z</time>
      </trkpt>
      <trkpt lat="45.72356" lon="4.36659">
        <ele>538</ele>
        <time>2017-03-02T11:20:40Z</time>
      </trkpt>
      <trkpt lat="45.72356" lon="4.36648">
        <ele>538</ele>
        <time>2017-03-02T11:20:47Z</time>
      </trkpt>
      <trkpt lat="45.72357" lon="4.36646">
        <ele>538</ele>
        <time>2017-03-02T11:20:48Z</time>
      </trkpt>
      <trkpt lat="45.72358" lon="4.36634">
        <ele>538</ele>
        <time>2017-03-02T11:20:55Z</time>
      </trkpt>
      <trkpt lat="45.72358" lon="4.36633">
        <ele>538</ele>
        <time>2017-03-02T11:20:56Z</time>
      </trkpt>
      <trkpt lat="45.72356" lon="4.36621">
        <ele>538</ele>
        <time>2017-03-02T11:21:04Z</time>
      </trkpt>
      <trkpt lat="45.72356" lon="4.3662">
        <ele>538</ele>
        <time>2017-03-02T11:21:05Z</time>
      </trkpt>
      <trkpt lat="45.72358" lon="4.36607">
        <ele>538</ele>
        <time>2017-03-02T11:21:15Z</time>
      </trkpt>
      <trkpt lat="45.72357" lon="4.36606">
        <ele>538</ele>
        <time>2017-03-02T11:21:16Z</time>
      </trkpt>
      <trkpt lat="45.72353" lon="4.36596">
        <ele>538</ele>
        <time>2017-03-02T11:21:26Z</time>
      </trkpt>
      <trkpt lat="45.72353" lon="4.36594">
        <ele>538</ele>
        <time>2017-03-02T11:21:27Z</time>
      </trkpt>
      <trkpt lat="45.72353" lon="4.36581">
        <ele>536</ele>
        <time>2017-03-02T11:21:35Z</time>
      </trkpt>
      <trkpt lat="45.72353" lon="4.36579">
        <ele>536</ele>
        <time>2017-03-02T11:21:36Z</time>
      </trkpt>
      <trkpt lat="45.72354" lon="4.36567">
        <ele>536</ele>
        <time>2017-03-02T11:21:43Z</time>
      </trkpt>
      <trkpt lat="45.72355" lon="4.36565">
        <ele>536</ele>
        <time>2017-03-02T11:21:44Z</time>
      </trkpt>
      <trkpt lat="45.72358" lon="4.36555">
        <ele>536</ele>
        <time>2017-03-02T11:21:49Z</time>
      </trkpt>
      <trkpt lat="45.72359" lon="4.36553">
        <ele>536</ele>
        <time>2017-03-02T11:21:50Z</time>
      </trkpt>
      <trkpt lat="45.72362" lon="4.36542">
        <ele>536</ele>
        <time>2017-03-02T11:21:56Z</time>
      </trkpt>
      <trkpt lat="45.72362" lon="4.3654">
        <ele>536</ele>
        <time>2017-03-02T11:21:57Z</time>
      </trkpt>
      <trkpt lat="45.72363" lon="4.36527">
        <ele>536</ele>
        <time>2017-03-02T11:22:04Z</time>
      </trkpt>
      <trkpt lat="45.72363" lon="4.36526">
        <ele>536</ele>
        <time>2017-03-02T11:22:05Z</time>
      </trkpt>
      <trkpt lat="45.72364" lon="4.36513">
        <ele>536</ele>
        <time>2017-03-02T11:22:14Z</time>
      </trkpt>
      <trkpt lat="45.72364" lon="4.36512">
        <ele>536</ele>
        <time>2017-03-02T11:22:15Z</time>
      </trkpt>
      <trkpt lat="45.72358" lon="4.36502">
        <ele>537</ele>
        <time>2017-03-02T11:22:23Z</time>
      </trkpt>
      <trkpt lat="45.72358" lon="4.36501">
        <ele>537</ele>
        <time>2017-03-02T11:22:24Z</time>
      </trkpt>
      <trkpt lat="45.72355" lon="4.36489">
        <ele>536</ele>
        <time>2017-03-02T11:22:29Z</time>
      </trkpt>
      <trkpt lat="45.72355" lon="4.36487">
        <ele>536</ele>
        <time>2017-03-02T11:22:30Z</time>
      </trkpt>
      <trkpt lat="45.72356" lon="4.36475">
        <ele>536</ele>
        <time>2017-03-02T11:22:35Z</time>
      </trkpt>
      <trkpt lat="45.72357" lon="4.36473">
        <ele>536</ele>
        <time>2017-03-02T11:22:36Z</time>
      </trkpt>
      <trkpt lat="45.72359" lon="4.36461">
        <ele>536</ele>
        <time>2017-03-02T11:22:41Z</time>
      </trkpt>
      <trkpt lat="45.72359" lon="4.36459">
        <ele>536</ele>
        <time>2017-03-02T11:22:42Z</time>
      </trkpt>
      <trkpt lat="45.72358" lon="4.36446">
        <ele>536</ele>
        <time>2017-03-02T11:22:48Z</time>
      </trkpt>
      <trkpt lat="45.72358" lon="4.36444">
        <ele>536</ele>
        <time>2017-03-02T11:22:49Z</time>
      </trkpt>
      <trkpt lat="45.72356" lon="4.36433">
        <ele>536</ele>
        <time>2017-03-02T11:22:54Z</time>
      </trkpt>
      <trkpt lat="45.72356" lon="4.36431">
        <ele>536</ele>
        <time>2017-03-02T11:22:55Z</time>
      </trkpt>
      <trkpt lat="45.72354" lon="4.36419">
        <ele>536</ele>
        <time>2017-03-02T11:23:01Z</time>
      </trkpt>
      <trkpt lat="45.72354" lon="4.36418">
        <ele>536</ele>
        <time>2017-03-02T11:23:02Z</time>
      </trkpt>
      <trkpt lat="45.72351" lon="4.36406">
        <ele>536</ele>
        <time>2017-03-02T11:23:09Z</time>
      </trkpt>
      <trkpt lat="45.72352" lon="4.36404">
        <ele>536</ele>
        <time>2017-03-02T11:23:10Z</time>
      </trkpt>
      <trkpt lat="45.7235" lon="4.36393">
        <ele>536</ele>
        <time>2017-03-02T11:23:17Z</time>
      </trkpt>
      <trkpt lat="45.72349" lon="4.36391">
        <ele>536</ele>
        <time>2017-03-02T11:23:18Z</time>
      </trkpt>
      <trkpt lat="45.72347" lon="4.36379">
        <ele>536</ele>
        <time>2017-03-02T11:23:25Z</time>
      </trkpt>
      <trkpt lat="45.72347" lon="4.36378">
        <ele>536</ele>
        <time>2017-03-02T11:23:26Z</time>
      </trkpt>
      <trkpt lat="45.72344" lon="4.36367">
        <ele>536</ele>
        <time>2017-03-02T11:23:35Z</time>
      </trkpt>
      <trkpt lat="45.72344" lon="4.36365">
        <ele>536</ele>
        <time>2017-03-02T11:23:36Z</time>
      </trkpt>
      <trkpt lat="45.72344" lon="4.36353">
        <ele>536</ele>
        <time>2017-03-02T11:23:43Z</time>
      </trkpt>
      <trkpt lat="45.72344" lon="4.3635">
        <ele>536</ele>
        <time>2017-03-02T11:23:44Z</time>
      </trkpt>
      <trkpt lat="45.72345" lon="4.36339">
        <ele>537</ele>
        <time>2017-03-02T11:23:49Z</time>
      </trkpt>
      <trkpt lat="45.72345" lon="4.36337">
        <ele>537</ele>
        <time>2017-03-02T11:23:50Z</time>
      </trkpt>
      <trkpt lat="45.72344" lon="4.36325">
        <ele>538</ele>
        <time>2017-03-02T11:23:56Z</time>
      </trkpt>
      <trkpt lat="45.72344" lon="4.36324">
        <ele>538</ele>
        <time>2017-03-02T11:23:57Z</time>
      </trkpt>
      <trkpt lat="45.72342" lon="4.36311">
        <ele>539</ele>
        <time>2017-03-02T11:24:04Z</time>
      </trkpt>
      <trkpt lat="45.72342" lon="4.3631">
        <ele>539</ele>
        <time>2017-03-02T11:24:05Z</time>
      </trkpt>
      <trkpt lat="45.72339" lon="4.36298">
        <ele>539</ele>
        <time>2017-03-02T11:24:12Z</time>
      </trkpt>
      <trkpt lat="45.72339" lon="4.36296">
        <ele>540</ele>
        <time>2017-03-02T11:24:13Z</time>
      </trkpt>
      <trkpt lat="45.72336" lon="4.36285">
        <ele>540</ele>
        <time>2017-03-02T11:24:20Z</time>
      </trkpt>
      <trkpt lat="45.72336" lon="4.36283">
        <ele>540</ele>
        <time>2017-03-02T11:24:21Z</time>
      </trkpt>
      <trkpt lat="45.72331" lon="4.36273">
        <ele>542</ele>
        <time>2017-03-02T11:24:31Z</time>
      </trkpt>
      <trkpt lat="45.72331" lon="4.36272">
        <ele>543</ele>
        <time>2017-03-02T11:24:32Z</time>
      </trkpt>
      <trkpt lat="45.7233" lon="4.3626">
        <ele>543</ele>
        <time>2017-03-02T11:24:42Z</time>
      </trkpt>
      <trkpt lat="45.7233" lon="4.36258">
        <ele>543</ele>
        <time>2017-03-02T11:24:43Z</time>
      </trkpt>
      <trkpt lat="45.72326" lon="4.36248">
        <ele>545</ele>
        <time>2017-03-02T11:24:51Z</time>
      </trkpt>
      <trkpt lat="45.72325" lon="4.36247">
        <ele>545</ele>
        <time>2017-03-02T11:24:52Z</time>
      </trkpt>
      <trkpt lat="45.72323" lon="4.36235">
        <ele>546</ele>
        <time>2017-03-02T11:25:05Z</time>
      </trkpt>
      <trkpt lat="45.72322" lon="4.36234">
        <ele>547</ele>
        <time>2017-03-02T11:25:06Z</time>
      </trkpt>
      <trkpt lat="45.7232" lon="4.36222">
        <ele>548</ele>
        <time>2017-03-02T11:25:19Z</time>
      </trkpt>
      <trkpt lat="45.7232" lon="4.36221">
        <ele>548</ele>
        <time>2017-03-02T11:25:20Z</time>
      </trkpt>
      <trkpt lat="45.72318" lon="4.36209">
        <ele>548</ele>
        <time>2017-03-02T11:25:26Z</time>
      </trkpt>
      <trkpt lat="45.72318" lon="4.36208">
        <ele>548</ele>
        <time>2017-03-02T11:25:27Z</time>
      </trkpt>
      <trkpt lat="45.7232" lon="4.36195">
        <ele>549</ele>
        <time>2017-03-02T11:25:33Z</time>
      </trkpt>
      <trkpt lat="45.7232" lon="4.36194">
        <ele>549</ele>
        <time>2017-03-02T11:25:34Z</time>
      </trkpt>
      <trkpt lat="45.72319" lon="4.36182">
        <ele>550</ele>
        <time>2017-03-02T11:25:44Z</time>
      </trkpt>
      <trkpt lat="45.72318" lon="4.36179">
        <ele>550</ele>
        <time>2017-03-02T11:25:45Z</time>
      </trkpt>
      <trkpt lat="45.72315" lon="4.36168">
        <ele>550</ele>
        <time>2017-03-02T11:25:51Z</time>
      </trkpt>
      <trkpt lat="45.72315" lon="4.36166">
        <ele>554</ele>
        <time>2017-03-02T11:25:52Z</time>
      </trkpt>
      <trkpt lat="45.72313" lon="4.36154">
        <ele>554</ele>
        <time>2017-03-02T11:25:58Z</time>
      </trkpt>
      <trkpt lat="45.72313" lon="4.36152">
        <ele>554</ele>
        <time>2017-03-02T11:25:59Z</time>
      </trkpt>
      <trkpt lat="45.72311" lon="4.3614">
        <ele>555</ele>
        <time>2017-03-02T11:26:06Z</time>
      </trkpt>
      <trkpt lat="45.72311" lon="4.36138">
        <ele>555</ele>
        <time>2017-03-02T11:26:07Z</time>
      </trkpt>
      <trkpt lat="45.72308" lon="4.36128">
        <ele>556</ele>
        <time>2017-03-02T11:26:14Z</time>
      </trkpt>
      <trkpt lat="45.72307" lon="4.36127">
        <ele>556</ele>
        <time>2017-03-02T11:26:15Z</time>
      </trkpt>
      <trkpt lat="45.72303" lon="4.36116">
        <ele>556</ele>
        <time>2017-03-02T11:26:22Z</time>
      </trkpt>
      <trkpt lat="45.72302" lon="4.36114">
        <ele>556</ele>
        <time>2017-03-02T11:26:23Z</time>
      </trkpt>
      <trkpt lat="45.72297" lon="4.36105">
        <ele>557</ele>
        <time>2017-03-02T11:26:30Z</time>
      </trkpt>
      <trkpt lat="45.72297" lon="4.36103">
        <ele>557</ele>
        <time>2017-03-02T11:26:31Z</time>
      </trkpt>
      <trkpt lat="45.72295" lon="4.36091">
        <ele>557</ele>
        <time>2017-03-02T11:26:38Z</time>
      </trkpt>
      <trkpt lat="45.72295" lon="4.3609">
        <ele>557</ele>
        <time>2017-03-02T11:26:39Z</time>
      </trkpt>
      <trkpt lat="45.7229" lon="4.36078">
        <ele>560</ele>
        <time>2017-03-02T11:26:48Z</time>
      </trkpt>
      <trkpt lat="45.7229" lon="4.36077">
        <ele>560</ele>
        <time>2017-03-02T11:26:49Z</time>
      </trkpt>
      <trkpt lat="45.72288" lon="4.36065">
        <ele>561</ele>
        <time>2017-03-02T11:26:57Z</time>
      </trkpt>
      <trkpt lat="45.72289" lon="4.36063">
        <ele>561</ele>
        <time>2017-03-02T11:26:58Z</time>
      </trkpt>
      <trkpt lat="45.72289" lon="4.36051">
        <ele>561</ele>
        <time>2017-03-02T11:27:04Z</time>
      </trkpt>
      <trkpt lat="45.72288" lon="4.36049">
        <ele>561</ele>
        <time>2017-03-02T11:27:05Z</time>
      </trkpt>
      <trkpt lat="45.72285" lon="4.36039">
        <ele>561</ele>
        <time>2017-03-02T11:27:12Z</time>
      </trkpt>
      <trkpt lat="45.72284" lon="4.36038">
        <ele>561</ele>
        <time>2017-03-02T11:27:13Z</time>
      </trkpt>
      <trkpt lat="45.72278" lon="4.36029">
        <ele>562</ele>
        <time>2017-03-02T11:27:20Z</time>
      </trkpt>
      <trkpt lat="45.72278" lon="4.36028">
        <ele>562</ele>
        <time>2017-03-02T11:27:21Z</time>
      </trkpt>
      <trkpt lat="45.72273" lon="4.36019">
        <ele>562</ele>
        <time>2017-03-02T11:27:28Z</time>
      </trkpt>
      <trkpt lat="45.72272" lon="4.36018">
        <ele>562</ele>
        <time>2017-03-02T11:27:29Z</time>
      </trkpt>
      <trkpt lat="45.72267" lon="4.36009">
        <ele>563</ele>
        <time>2017-03-02T11:27:36Z</time>
      </trkpt>
      <trkpt lat="45.72266" lon="4.36007">
        <ele>563</ele>
        <time>2017-03-02T11:27:37Z</time>
      </trkpt>
      <trkpt lat="45.7226" lon="4.35999">
        <ele>564</ele>
        <time>2017-03-02T11:27:44Z</time>
      </trkpt>
      <trkpt lat="45.7226" lon="4.35998">
        <ele>564</ele>
        <time>2017-03-02T11:27:45Z</time>
      </trkpt>
      <trkpt lat="45.72253" lon="4.35989">
        <ele>564</ele>
        <time>2017-03-02T11:28:13Z</time>
      </trkpt>
      <trkpt lat="45.72253" lon="4.35988">
        <ele>564</ele>
        <time>2017-03-02T11:28:14Z</time>
      </trkpt>
      <trkpt lat="45.72248" lon="4.35979">
        <ele>566</ele>
        <time>2017-03-02T11:31:56Z</time>
      </trkpt>
      <trkpt lat="45.72247" lon="4.35977">
        <ele>566</ele>
        <time>2017-03-02T11:31:57Z</time>
      </trkpt>
      <trkpt lat="45.7224" lon="4.35972">
        <ele>566</ele>
        <time>2017-03-02T11:32:02Z</time>
      </trkpt>
      <trkpt lat="45.72239" lon="4.35971">
        <ele>566</ele>
        <time>2017-03-02T11:32:03Z</time>
      </trkpt>
      <trkpt lat="45.72232" lon="4.35964">
        <ele>567</ele>
        <time>2017-03-02T11:32:09Z</time>
      </trkpt>
      <trkpt lat="45.72231" lon="4.35963">
        <ele>567</ele>
        <time>2017-03-02T11:32:10Z</time>
      </trkpt>
      <trkpt lat="45.72226" lon="4.35954">
        <ele>567</ele>
        <time>2017-03-02T11:32:17Z</time>
      </trkpt>
      <trkpt lat="45.72226" lon="4.35952">
        <ele>567</ele>
        <time>2017-03-02T11:32:18Z</time>
      </trkpt>
      <trkpt lat="45.72222" lon="4.35943">
        <ele>567</ele>
        <time>2017-03-02T11:32:25Z</time>
      </trkpt>
      <trkpt lat="45.72221" lon="4.35941">
        <ele>567</ele>
        <time>2017-03-02T11:32:26Z</time>
      </trkpt>
      <trkpt lat="45.72217" lon="4.35932">
        <ele>567</ele>
        <time>2017-03-02T11:32:32Z</time>
      </trkpt>
      <trkpt lat="45.72216" lon="4.35931">
        <ele>567</ele>
        <time>2017-03-02T11:32:33Z</time>
      </trkpt>
      <trkpt lat="45.72212" lon="4.35921">
        <ele>567</ele>
        <time>2017-03-02T11:32:40Z</time>
      </trkpt>
      <trkpt lat="45.72212" lon="4.35919">
        <ele>567</ele>
        <time>2017-03-02T11:32:41Z</time>
      </trkpt>
      <trkpt lat="45.72206" lon="4.35911">
        <ele>564</ele>
        <time>2017-03-02T11:32:47Z</time>
      </trkpt>
      <trkpt lat="45.72205" lon="4.35909">
        <ele>564</ele>
        <time>2017-03-02T11:32:48Z</time>
      </trkpt>
      <trkpt lat="45.72201" lon="4.35899">
        <ele>564</ele>
        <time>2017-03-02T11:32:55Z</time>
      </trkpt>
      <trkpt lat="45.722" lon="4.35897">
        <ele>564</ele>
        <time>2017-03-02T11:32:56Z</time>
      </trkpt>
      <trkpt lat="45.72195" lon="4.35887">
        <ele>564</ele>
        <time>2017-03-02T11:33:03Z</time>
      </trkpt>
      <trkpt lat="45.72194" lon="4.35886">
        <ele>564</ele>
        <time>2017-03-02T11:33:04Z</time>
      </trkpt>
      <trkpt lat="45.72192" lon="4.35874">
        <ele>564</ele>
        <time>2017-03-02T11:33:11Z</time>
      </trkpt>
      <trkpt lat="45.72191" lon="4.35872">
        <ele>564</ele>
        <time>2017-03-02T11:33:12Z</time>
      </trkpt>
      <trkpt lat="45.72185" lon="4.35864">
        <ele>563</ele>
        <time>2017-03-02T11:33:18Z</time>
      </trkpt>
      <trkpt lat="45.72185" lon="4.35862">
        <ele>563</ele>
        <time>2017-03-02T11:33:19Z</time>
      </trkpt>
      <trkpt lat="45.72182" lon="4.35852">
        <ele>563</ele>
        <time>2017-03-02T11:33:25Z</time>
      </trkpt>
      <trkpt lat="45.72181" lon="4.3585">
        <ele>563</ele>
        <time>2017-03-02T11:33:26Z</time>
      </trkpt>
      <trkpt lat="45.72177" lon="4.3584">
        <ele>563</ele>
        <time>2017-03-02T11:33:32Z</time>
      </trkpt>
      <trkpt lat="45.72176" lon="4.35839">
        <ele>563</ele>
        <time>2017-03-02T11:33:33Z</time>
      </trkpt>
      <trkpt lat="45.72173" lon="4.35827">
        <ele>562</ele>
        <time>2017-03-02T11:33:39Z</time>
      </trkpt>
      <trkpt lat="45.72173" lon="4.35826">
        <ele>562</ele>
        <time>2017-03-02T11:33:40Z</time>
      </trkpt>
      <trkpt lat="45.72169" lon="4.35815">
        <ele>561</ele>
        <time>2017-03-02T11:33:46Z</time>
      </trkpt>
      <trkpt lat="45.72168" lon="4.35813">
        <ele>561</ele>
        <time>2017-03-02T11:33:47Z</time>
      </trkpt>
      <trkpt lat="45.72167" lon="4.35801">
        <ele>561</ele>
        <time>2017-03-02T11:33:54Z</time>
      </trkpt>
      <trkpt lat="45.72167" lon="4.358">
        <ele>561</ele>
        <time>2017-03-02T11:33:55Z</time>
      </trkpt>
      <trkpt lat="45.72168" lon="4.35788">
        <ele>561</ele>
        <time>2017-03-02T11:34:02Z</time>
      </trkpt>
      <trkpt lat="45.72167" lon="4.35786">
        <ele>561</ele>
        <time>2017-03-02T11:34:03Z</time>
      </trkpt>
      <trkpt lat="45.72165" lon="4.35773">
        <ele>566</ele>
        <time>2017-03-02T11:34:10Z</time>
      </trkpt>
      <trkpt lat="45.72165" lon="4.35772">
        <ele>565</ele>
        <time>2017-03-02T11:34:11Z</time>
      </trkpt>
      <trkpt lat="45.72163" lon="4.35761">
        <ele>565</ele>
        <time>2017-03-02T11:34:18Z</time>
      </trkpt>
      <trkpt lat="45.72163" lon="4.35759">
        <ele>565</ele>
        <time>2017-03-02T11:34:19Z</time>
      </trkpt>
      <trkpt lat="45.72158" lon="4.35749">
        <ele>564</ele>
        <time>2017-03-02T11:34:26Z</time>
      </trkpt>
      <trkpt lat="45.72158" lon="4.35747">
        <ele>564</ele>
        <time>2017-03-02T11:34:27Z</time>
      </trkpt>
      <trkpt lat="45.72154" lon="4.35737">
        <ele>565</ele>
        <time>2017-03-02T11:34:33Z</time>
      </trkpt>
      <trkpt lat="45.72154" lon="4.35735">
        <ele>565</ele>
        <time>2017-03-02T11:34:34Z</time>
      </trkpt>
      <trkpt lat="45.72155" lon="4.35725">
        <ele>566</ele>
        <time>2017-03-02T11:34:39Z</time>
      </trkpt>
      <trkpt lat="45.72155" lon="4.35723">
        <ele>566</ele>
        <time>2017-03-02T11:34:40Z</time>
      </trkpt>
      <trkpt lat="45.72153" lon="4.35712">
        <ele>566</ele>
        <time>2017-03-02T11:34:46Z</time>
      </trkpt>
      <trkpt lat="45.72152" lon="4.3571">
        <ele>566</ele>
        <time>2017-03-02T11:34:47Z</time>
      </trkpt>
      <trkpt lat="45.7215" lon="4.35698">
        <ele>566</ele>
        <time>2017-03-02T11:34:53Z</time>
      </trkpt>
      <trkpt lat="45.7215" lon="4.35696">
        <ele>566</ele>
        <time>2017-03-02T11:34:54Z</time>
      </trkpt>
      <trkpt lat="45.72146" lon="4.35684">
        <ele>566</ele>
        <time>2017-03-02T11:35:01Z</time>
      </trkpt>
      <trkpt lat="45.72146" lon="4.35683">
        <ele>566</ele>
        <time>2017-03-02T11:35:02Z</time>
      </trkpt>
      <trkpt lat="45.72142" lon="4.35672">
        <ele>566</ele>
        <time>2017-03-02T11:35:09Z</time>
      </trkpt>
      <trkpt lat="45.7214" lon="4.35671">
        <ele>566</ele>
        <time>2017-03-02T11:35:10Z</time>
      </trkpt>
      <trkpt lat="45.72137" lon="4.35659">
        <ele>567</ele>
        <time>2017-03-02T11:35:17Z</time>
      </trkpt>
      <trkpt lat="45.72137" lon="4.35657">
        <ele>567</ele>
        <time>2017-03-02T11:35:18Z</time>
      </trkpt>
      <trkpt lat="45.72132" lon="4.35647">
        <ele>568</ele>
        <time>2017-03-02T11:35:25Z</time>
      </trkpt>
      <trkpt lat="45.72132" lon="4.35645">
        <ele>568</ele>
        <time>2017-03-02T11:35:26Z</time>
      </trkpt>
      <trkpt lat="45.72128" lon="4.35635">
        <ele>568</ele>
        <time>2017-03-02T11:35:33Z</time>
      </trkpt>
      <trkpt lat="45.72128" lon="4.35633">
        <ele>568</ele>
        <time>2017-03-02T11:35:34Z</time>
      </trkpt>
      <trkpt lat="45.72122" lon="4.35625">
        <ele>569</ele>
        <time>2017-03-02T11:35:40Z</time>
      </trkpt>
      <trkpt lat="45.72121" lon="4.35624">
        <ele>569</ele>
        <time>2017-03-02T11:35:41Z</time>
      </trkpt>
      <trkpt lat="45.72114" lon="4.35617">
        <ele>569</ele>
        <time>2017-03-02T11:35:47Z</time>
      </trkpt>
      <trkpt lat="45.72113" lon="4.35615">
        <ele>569</ele>
        <time>2017-03-02T11:35:48Z</time>
      </trkpt>
      <trkpt lat="45.72108" lon="4.35605">
        <ele>569</ele>
        <time>2017-03-02T11:35:55Z</time>
      </trkpt>
      <trkpt lat="45.72107" lon="4.35605">
        <ele>569</ele>
        <time>2017-03-02T11:35:56Z</time>
      </trkpt>
      <trkpt lat="45.72101" lon="4.35595">
        <ele>570</ele>
        <time>2017-03-02T11:36:03Z</time>
      </trkpt>
      <trkpt lat="45.72101" lon="4.35593">
        <ele>570</ele>
        <time>2017-03-02T11:36:04Z</time>
      </trkpt>
      <trkpt lat="45.72095" lon="4.35585">
        <ele>571</ele>
        <time>2017-03-02T11:36:11Z</time>
      </trkpt>
      <trkpt lat="45.72094" lon="4.35584">
        <ele>571</ele>
        <time>2017-03-02T11:36:12Z</time>
      </trkpt>
      <trkpt lat="45.72086" lon="4.35578">
        <ele>572</ele>
        <time>2017-03-02T11:36:19Z</time>
      </trkpt>
      <trkpt lat="45.72085" lon="4.35577">
        <ele>572</ele>
        <time>2017-03-02T11:36:20Z</time>
      </trkpt>
      <trkpt lat="45.72077" lon="4.35575">
        <ele>572</ele>
        <time>2017-03-02T11:36:27Z</time>
      </trkpt>
      <trkpt lat="45.72076" lon="4.35575">
        <ele>572</ele>
        <time>2017-03-02T11:36:28Z</time>
      </trkpt>
      <trkpt lat="45.72068" lon="4.35571">
        <ele>572</ele>
        <time>2017-03-02T11:36:36Z</time>
      </trkpt>
      <trkpt lat="45.72067" lon="4.3557">
        <ele>572</ele>
        <time>2017-03-02T11:36:37Z</time>
      </trkpt>
      <trkpt lat="45.72059" lon="4.35564">
        <ele>572</ele>
        <time>2017-03-02T11:36:54Z</time>
      </trkpt>
      <trkpt lat="45.72059" lon="4.35563">
        <ele>572</ele>
        <time>2017-03-02T11:36:55Z</time>
      </trkpt>
      <trkpt lat="45.72055" lon="4.35551">
        <ele>572</ele>
        <time>2017-03-02T11:37:07Z</time>
      </trkpt>
      <trkpt lat="45.72056" lon="4.3555">
        <ele>572</ele>
        <time>2017-03-02T11:37:08Z</time>
      </trkpt>
      <trkpt lat="45.72057" lon="4.35544">
        <ele>572</ele>
        <time>2017-03-02T11:40:23.364Z</time>
      </trkpt>
    </trkseg>
  </trk>
</gpx>